[[{"header":{"parameterUnit":"m.s-1","parameterCategory":1,"la1":31.0,"la2":29.5877,"lo1":-88.7671,"lo2":-86.6584,"dy":0.0162,"dx":0.0185,"nx":115,"ny":88,"refTime":"2023-07-25T18:00:00:Z","depth":0,"parameterNumber":2,"parameterNumberName":"U-component_of_WINDS"},"data":[0.0,0.0,0.0,0.0,0.0,0.0,0.0,0.0,0.0,0.0,0.0,0.0,0.0,0.0,0.0,0.0,0.0,0.0,0.0,0.0,0.0,0.0,0.0,0.0,0.0,0.0,0.0,0.0,0.0,0.0,0.0,0.0,0.0,0.0,0.0,0.0,0.0,0.0,0.0,0.0,0.0,0.0,0.0,0.0,0.0,0.0,0.0,0.0,0.0,0.0,0.0,0.0,0.0,0.0,0.0,0.0,0.0,0.0,0.0,0.0,0.0,0.0,0.0,0.0,0.0,0.0,0.0,0.0,0.0,0.0,0.0,0.0,0.0,0.0,0.0,0.0,0.0,0.0,0.0,0.0,0.0,0.0,0.0,0.0,0.0,0.0,0.0,0.0,0.0,0.0,0.0,0.0,0.0,0.0,0.0,0.0,0.0,0.0,0.0,0.0,0.0,0.0,0.0,0.0,0.0,0.0,0.0,0.0,0.0,0.0,0.0,0.0,0.0,0.0,0.0,0.0,0.0,0.0,0.0,0.0,0.0,0.0,0.0,0.0,0.0,0.0,0.0,0.0,0.0,0.0,0.0,0.0,0.0,0.0,0.0,0.0,0.0,0.0,0.0,0.0,0.0,0.0,0.0,0.0,0.0,0.0,0.0,0.0,0.0,0.0,0.0,0.0,0.0,0.0,0.0,0.0,0.0,0.0,0.0,0.0,0.0,0.0,0.0,0.0,0.0,0.0,0.0,0.0,0.0,0.0,0.0,0.0,0.0,0.0,0.0,0.0,0.0,0.0,0.0,0.0,0.0,0.0,0.0,0.0,0.0,0.0,0.0,0.0,0.0,0.0,0.0,0.0,0.0,0.0,0.0,0.0,0.0,0.0,0.0,0.0,0.0,0.0,0.0,0.0,0.0,0.0,0.0,0.0,0.0,0.0,0.0,0.0,0.0,0.0,0.0,0.0,0.0,0.0,0.0,0.0,0.0,0.0,0.0,0.0,0.0,0.0,0.0,0.0,0.0,0.0,0.0,0.0,0.0,0.0,0.0,0.0,0.0,0.0,0.0,0.0,0.0,0.0,0.0,0.0,0.0,0.0,0.0,0.0,0.0,0.0,0.0,0.0,0.0,0.0,0.0,0.0,0.0,0.0,0.0,0.0,0.0,0.0,0.0,0.0,0.0,0.0,0.0,0.0,0.0,0.0,0.0,0.0,0.0,0.0,0.0,0.0,0.0,0.0,0.0,0.0,0.0,0.0,0.0,0.0,0.0,0.0,0.0,0.0,0.0,0.0,0.0,0.0,0.0,0.0,0.0,0.0,0.0,0.0,0.0,0.0,0.0,0.0,0.0,0.0,0.0,0.0,0.0,0.0,0.0,0.0,0.0,0.0,0.0,0.0,0.0,0.0,0.0,0.0,0.0,0.0,0.0,0.0,0.0,0.0,0.0,0.0,0.0,0.0,0.0,0.0,0.0,0.0,0.0,0.0,0.0,0.0,0.0,0.0,0.0,0.0,0.0,0.0,0.0,0.0,0.0,0.0,0.0,0.0,0.0,0.0,0.0,0.0,0.0,0.0,0.0,0.0,0.0,0.0,0.0,0.0,0.0,0.0,0.0,0.0,0.0,0.0,0.0,0.0,0.0,0.0,0.0,0.0,0.0,0.0,0.0,0.0,0.0,0.0,0.0,0.0,0.0,0.0,0.0,0.0,0.0,0.0,0.0,0.0,0.0,0.0,0.0,0.0,0.0,0.0,0.0,0.0,0.0,0.0,0.0,0.0,0.0,0.0,0.0,0.0,0.0,0.0,0.0,0.0,0.0,0.0,0.0,0.0,0.0,0.0,0.0,0.0,0.0,0.0,0.0,0.0,0.0,0.0,0.0,0.0,0.0,0.0,0.0,0.0,0.0,0.0,0.0,0.0,0.0,0.0,0.0,0.0,0.0,0.0,0.0,0.0,0.0,0.0,0.0,0.0,0.0,0.0,0.0,0.0,0.0,0.0,0.0,0.0,0.0,0.0,0.0,0.0,0.0,0.0,0.0,0.0,0.0,0.0,0.0,0.0,0.0,0.0,0.0,0.0,0.0,0.0,0.0,0.0,0.0,0.0,0.0,0.0,0.0,0.0,0.0,0.0,0.0,0.0,0.0,0.0,0.0,0.0,0.0,0.0,0.0,0.0,0.0,0.0,0.0,0.0,0.0,0.0,0.0,0.0,0.0,0.0,0.0,0.0,0.0,0.0,0.0,0.0,0.0,0.0,0.0,0.0,0.0,0.0,0.0,0.0,0.0,0.0,0.0,0.0,0.0,0.0,0.0,0.0,0.0,0.0,0.0,0.0,0.0,0.0,0.0,0.0,0.0,0.0,0.0,0.0,0.0,0.0,0.0,0.0,0.0,0.0,0.0,0.0,0.0,0.0,0.0,0.0,0.0,0.0,0.0,0.0,0.0,0.0,0.0,0.0,0.0,0.0,0.0,0.0,0.0,0.0,0.0,0.0,0.0,0.0,0.0,0.0,0.0,0.0,0.0,0.0,0.0,0.0,0.0,0.0,0.0,0.0,0.0,0.0,0.0,0.0,0.0,0.0,0.0,0.0,0.0,0.0,0.0,0.0,0.0,0.0,0.0,0.0,0.0,0.0,0.0,0.0,0.0,0.0,0.0,0.0,0.0,0.0,0.0,0.0,0.0,0.0,0.0,0.0,0.0,0.0,0.0,0.0,0.0,0.0,0.0,0.0,0.0,0.0,0.0,0.0,0.0,0.0,0.0,0.0,0.0,0.0,0.0,0.0,0.0,0.0,0.0,0.0,0.0,0.0,0.0,0.0,0.0,0.0,0.0,0.0,0.0,0.0,0.0,0.0,0.0,0.0,0.0,0.0,0.0,0.0,0.0,0.0,0.0,0.0,0.0,0.0,0.0,0.0,0.0,0.0,0.0,0.0,0.0,0.0,0.0,0.0,0.0,0.0,0.0,0.0,0.0,0.0,0.0,0.0,0.0,0.0,0.0,0.0,0.0,0.0,0.0,0.0,0.0,0.0,0.0,0.0,0.0,0.0,0.0,0.0,0.0,0.0,0.0,0.0,0.0,0.0,0.0,0.0,0.0,0.0,0.0,0.0,0.0,0.0,0.0,0.0,0.0,0.0,0.0,0.0,0.0,0.0,0.0,0.0,0.0,0.0,0.0,0.0,0.0,0.0,0.0,0.0,0.0,0.0,0.0,0.0,0.0,0.0,0.0,0.0,0.0,0.0,0.0,0.0,0.0,0.0,0.0,0.0,0.0,0.0,0.0,0.0,0.0,0.0,0.0,0.0,0.0,0.0,0.0,0.0,0.0,0.0,0.0,0.0,0.0,0.0,0.0,0.0,0.0,0.0,0.0,0.0,0.0,0.0,0.0,0.0,0.0,0.0,0.0,0.0,0.0,0.0,0.0,0.0,0.0,0.0,0.0,0.0,0.0,0.0,0.0,0.0,0.0,0.0,0.0,0.0,0.0,0.0,0.0,0.0,0.0,0.0,0.0,0.0,0.0,0.0,0.0,0.0,0.0,0.0,0.0,0.0,0.0,0.0,0.0,0.0,0.0,0.0,0.0,0.0,0.0,0.0,0.0,0.0,0.0,0.0,0.0,0.0,0.0,0.0,0.0,0.0,0.0,0.0,0.0,0.0,0.0,0.0,0.0,0.0,0.0,0.0,0.0,0.0,0.0,0.0,0.0,0.0,0.0,0.0,0.0,0.0,0.0,0.0,0.0,0.0,0.0,0.0,0.0,0.0,0.0,0.0,0.0,0.0,0.0,0.0,0.0,0.0,0.0,0.0,0.0,0.0,0.0,0.0,0.0,0.0,0.0,0.0,0.0,0.0,0.0,0.0,0.0,0.0,0.0,0.0,0.0,0.0,0.0,0.0,0.0,0.0,0.0,0.0,0.0,0.0,0.0,0.0,0.0,0.0,0.0,0.0,0.0,0.0,0.0,0.0,0.0,0.0,0.0,0.0,0.0,0.0,0.0,0.0,0.0,0.0,0.0,0.0,0.0,0.0,0.0,0.0,0.0,0.0,0.0,0.0,0.0,0.0,0.0,0.0,0.0,0.0,0.0,0.0,0.0,0.0,0.0,0.0,0.0,0.0,0.0,0.0,0.0,0.0,0.0,0.0,0.0,0.0,0.0,0.0,0.0,0.0,0.0,0.0,0.0,0.0,0.0,0.0,0.0,0.0,0.0,0.0,0.0,0.0,0.0,0.0,0.0,0.0,0.0,0.0,0.0,0.0,0.0,0.0,0.0,0.0,-2.5742,0.0,0.0,0.0,0.0,0.0,0.0,0.0,0.0,0.0,0.0,0.0,0.0,0.0,0.0,0.0,0.0,0.0,0.0,0.0,0.0,0.0,0.0,0.0,0.0,0.0,0.0,0.0,0.0,0.0,0.0,0.0,0.0,0.0,0.0,0.0,0.0,0.0,0.0,0.0,0.0,0.0,0.0,0.0,0.0,0.0,0.0,0.0,0.0,0.0,0.0,0.0,0.0,0.0,0.0,0.0,0.0,0.0,0.0,0.0,0.0,0.0,0.0,0.0,0.0,0.0,0.0,0.0,0.0,0.0,0.0,0.0,0.0,0.0,0.0,0.0,0.0,0.0,0.0,0.0,0.0,0.0,0.0,0.0,0.0,0.0,0.0,0.0,0.0,0.0,0.0,0.0,0.0,0.0,0.0,0.0,0.0,0.0,0.0,0.0,0.0,0.0,0.0,0.0,0.0,0.0,0.0,0.0,0.0,0.0,0.0,-2.7968,-2.7174,-2.7963,-2.7775,-2.6473,0.0,0.0,0.0,0.0,0.0,0.0,0.0,0.0,0.0,0.0,0.0,0.0,0.0,0.0,0.0,0.0,0.0,0.0,0.0,0.0,0.0,0.0,0.0,0.0,0.0,0.0,0.0,0.0,0.0,0.0,0.0,0.0,0.0,0.0,0.0,0.0,0.0,0.0,0.0,0.0,0.0,0.0,0.0,0.0,0.0,0.0,0.0,0.0,0.0,0.0,0.0,0.0,0.0,0.0,0.0,0.0,0.0,0.0,0.0,0.0,0.0,0.0,0.0,0.0,0.0,0.0,0.0,0.0,0.0,0.0,0.0,0.0,0.0,0.0,0.0,0.0,0.0,0.0,0.0,0.0,0.0,0.0,0.0,0.0,0.0,0.0,0.0,0.0,0.0,0.0,0.0,0.0,0.0,0.0,0.0,0.0,0.0,0.0,0.0,0.0,0.0,0.0,0.0,0.0,0.0,0.0,0.0,0.0,0.0,0.0,0.0,0.0,-2.9537,-2.9172,-2.7652,0.0,0.0,0.0,0.0,0.0,0.0,0.0,0.0,0.0,0.0,0.0,0.0,0.0,0.0,0.0,0.0,0.0,0.0,0.0,0.0,0.0,0.0,0.0,0.0,0.0,0.0,0.0,0.0,0.0,0.0,0.0,0.0,0.0,0.0,0.0,0.0,0.0,0.0,0.0,0.0,0.0,0.0,0.0,0.0,0.0,0.0,0.0,0.0,0.0,0.0,0.0,0.0,0.0,0.0,0.0,0.0,0.0,0.0,0.0,0.0,0.0,0.0,0.0,0.0,0.0,0.0,0.0,0.0,0.0,0.0,0.0,0.0,0.0,0.0,0.0,0.0,0.0,0.0,0.0,0.0,0.0,0.0,0.0,0.0,0.0,0.0,0.0,0.0,0.0,0.0,0.0,0.0,0.0,0.0,0.0,0.0,0.0,0.0,0.0,0.0,0.0,0.0,0.0,0.0,0.0,0.0,0.0,0.0,0.0,0.0,-2.9131,-3.0605,-3.0741,0.0,-2.9393,0.0,0.0,0.0,0.0,0.0,0.0,0.0,0.0,0.0,0.0,0.0,0.0,0.0,0.0,0.0,0.0,0.0,0.0,0.0,0.0,0.0,0.0,0.0,0.0,0.0,0.0,0.0,0.0,0.0,0.0,0.0,0.0,0.0,0.0,0.0,0.0,0.0,0.0,0.0,0.0,0.0,0.0,0.0,0.0,0.0,0.0,0.0,0.0,0.0,0.0,0.0,0.0,0.0,0.0,0.0,0.0,0.0,0.0,0.0,0.0,0.0,0.0,0.0,0.0,0.0,0.0,0.0,0.0,0.0,0.0,0.0,0.0,0.0,0.0,0.0,0.0,0.0,0.0,0.0,0.0,0.0,0.0,0.0,0.0,0.0,0.0,0.0,0.0,0.0,0.0,0.0,0.0,0.0,0.0,0.0,0.0,0.0,0.0,0.0,0.0,0.0,0.0,0.0,0.0,0.0,0.0,0.0,0.0,0.0,0.0,-3.113,-3.2342,-3.1426,-3.0488,0.0,0.0,0.0,0.0,0.0,0.0,0.0,0.0,0.0,0.0,0.0,0.0,0.0,0.0,0.0,0.0,0.0,0.0,0.0,0.0,0.0,0.0,0.0,0.0,0.0,0.0,0.0,0.0,0.0,0.0,0.0,0.0,0.0,0.0,0.0,0.0,0.0,0.0,0.0,0.0,0.0,0.0,0.0,0.0,0.0,0.0,0.0,0.0,0.0,0.0,0.0,0.0,0.0,0.0,0.0,0.0,0.0,0.0,0.0,0.0,0.0,0.0,0.0,0.0,0.0,0.0,0.0,0.0,0.0,0.0,0.0,0.0,0.0,0.0,0.0,0.0,0.0,0.0,0.0,0.0,0.0,0.0,0.0,0.0,0.0,0.0,0.0,0.0,0.0,0.0,0.0,0.0,0.0,0.0,0.0,0.0,0.0,0.0,0.0,0.0,0.0,0.0,0.0,0.0,0.0,0.0,0.0,0.0,0.0,0.0,-3.2089,-3.3007,-3.3965,-3.248,-3.1072,-2.9977,0.0,0.0,0.0,0.0,0.0,0.0,0.0,0.0,0.0,0.0,0.0,0.0,0.0,0.0,0.0,0.0,0.0,0.0,0.0,0.0,0.0,0.0,0.0,0.0,0.0,0.0,0.0,0.0,0.0,0.0,0.0,0.0,0.0,0.0,0.0,0.0,0.0,0.0,0.0,0.0,0.0,0.0,0.0,0.0,0.0,0.0,0.0,0.0,0.0,0.0,0.0,0.0,0.0,0.0,0.0,0.0,0.0,0.0,0.0,0.0,0.0,0.0,0.0,0.0,0.0,0.0,0.0,0.0,0.0,0.0,0.0,0.0,0.0,0.0,0.0,0.0,0.0,0.0,0.0,0.0,0.0,0.0,0.0,0.0,0.0,0.0,0.0,0.0,0.0,0.0,0.0,0.0,0.0,0.0,0.0,0.0,0.0,0.0,0.0,0.0,0.0,0.0,0.0,0.0,0.0,0.0,0.0,0.0,-3.537,-3.4101,-3.416,-3.5756,-3.419,-3.2488,0.0,0.0,0.0,0.0,0.0,0.0,0.0,0.0,0.0,0.0,0.0,0.0,0.0,0.0,0.0,0.0,0.0,0.0,0.0,0.0,0.0,0.0,0.0,0.0,0.0,0.0,0.0,0.0,0.0,0.0,0.0,0.0,0.0,0.0,0.0,0.0,0.0,0.0,0.0,0.0,0.0,0.0,0.0,0.0,0.0,0.0,0.0,0.0,0.0,0.0,0.0,0.0,0.0,0.0,0.0,0.0,0.0,0.0,0.0,0.0,0.0,0.0,0.0,0.0,0.0,0.0,0.0,0.0,0.0,0.0,0.0,0.0,0.0,0.0,0.0,0.0,0.0,0.0,0.0,0.0,0.0,0.0,0.0,0.0,0.0,0.0,0.0,0.0,0.0,0.0,0.0,0.0,0.0,0.0,0.0,0.0,0.0,0.0,0.0,0.0,0.0,0.0,0.0,0.0,0.0,0.0,0.0,0.0,0.0,-3.2656,-3.3164,-3.4254,-3.5839,-3.3773,-3.227,0.0,0.0,0.0,0.0,0.0,0.0,0.0,0.0,0.0,0.0,0.0,0.0,0.0,0.0,0.0,0.0,0.0,0.0,0.0,0.0,0.0,0.0,0.0,0.0,0.0,0.0,0.0,0.0,0.0,0.0,0.0,0.0,0.0,0.0,0.0,0.0,0.0,0.0,0.0,0.0,0.0,0.0,0.0,0.0,0.0,0.0,0.0,0.0,0.0,0.0,0.0,0.0,0.0,0.0,0.0,0.0,0.0,0.0,0.0,0.0,0.0,0.0,0.0,0.0,0.0,0.0,0.0,0.0,0.0,0.0,0.0,0.0,0.0,0.0,0.0,0.0,0.0,0.0,0.0,0.0,0.0,0.0,0.0,0.0,0.0,0.0,0.0,0.0,0.0,0.0,0.0,0.0,0.0,0.0,0.0,0.0,0.0,0.0,0.0,0.0,0.0,0.0,0.0,0.0,0.0,0.0,0.0,0.0,0.0,-3.2558,0.0,-3.5373,-3.5889,-3.4019,-3.2303,0.0,0.0,0.0,0.0,0.0,0.0,0.0,0.0,0.0,0.0,0.0,0.0,0.0,0.0,0.0,0.0,0.0,0.0,0.0,0.0,0.0,0.0,0.0,0.0,0.0,0.0,0.0,0.0,0.0,0.0,0.0,0.0,0.0,0.0,0.0,0.0,0.0,0.0,0.0,0.0,0.0,0.0,0.0,0.0,0.0,0.0,0.0,0.0,0.0,0.0,0.0,0.0,0.0,0.0,0.0,0.0,0.0,0.0,0.0,0.0,0.0,0.0,0.0,0.0,0.0,0.0,0.0,0.0,0.0,0.0,0.0,0.0,0.0,0.0,0.0,0.0,0.0,0.0,0.0,0.0,0.0,0.0,0.0,0.0,0.0,0.0,0.0,0.0,0.0,0.0,0.0,0.0,0.0,0.0,0.0,0.0,0.0,0.0,0.0,0.0,0.0,0.0,0.0,0.0,0.0,0.0,0.0,0.0,-3.2574,-3.5748,-3.7404,-3.7478,-3.6088,-3.5066,-3.2664,0.0,0.0,0.0,0.0,0.0,0.0,0.0,0.0,0.0,0.0,0.0,0.0,0.0,0.0,0.0,0.0,0.0,0.0,0.0,0.0,0.0,0.0,0.0,0.0,0.0,0.0,0.0,0.0,0.0,0.0,0.0,0.0,0.0,0.0,0.0,0.0,0.0,0.0,0.0,0.0,0.0,0.0,0.0,0.0,0.0,0.0,0.0,0.0,0.0,0.0,0.0,0.0,0.0,0.0,0.0,0.0,0.0,0.0,0.0,0.0,0.0,0.0,0.0,0.0,0.0,0.0,0.0,0.0,0.0,0.0,0.0,0.0,0.0,0.0,0.0,0.0,0.0,0.0,0.0,0.0,0.0,0.0,0.0,0.0,0.0,0.0,0.0,0.0,0.0,0.0,0.0,0.0,0.0,0.0,0.0,0.0,0.0,0.0,0.0,0.0,0.0,0.0,0.0,0.0,0.0,0.0,0.0,0.0,0.0,-3.3362,-3.4998,-3.6474,-3.7552,-3.4591,-3.3122,0.0,0.0,0.0,0.0,0.0,0.0,0.0,0.0,0.0,0.0,0.0,0.0,0.0,0.0,0.0,0.0,0.0,0.0,0.0,0.0,0.0,0.0,0.0,0.0,0.0,0.0,0.0,0.0,0.0,0.0,0.0,0.0,0.0,0.0,0.0,0.0,0.0,0.0,0.0,0.0,0.0,0.0,0.0,0.0,0.0,0.0,0.0,0.0,0.0,0.0,0.0,0.0,0.0,0.0,0.0,0.0,0.0,0.0,0.0,0.0,0.0,0.0,0.0,0.0,0.0,0.0,0.0,0.0,0.0,0.0,0.0,0.0,0.0,0.0,0.0,0.0,0.0,0.0,0.0,0.0,0.0,0.0,0.0,0.0,0.0,0.0,0.0,0.0,0.0,0.0,0.0,0.0,0.0,0.0,0.0,0.0,0.0,0.0,0.0,0.0,0.0,0.0,0.0,0.0,0.0,0.0,0.0,0.0,0.0,-3.4192,-3.6019,-3.7353,-3.7978,-3.5093,-3.3661,-3.3913,0.0,0.0,0.0,0.0,0.0,0.0,0.0,0.0,0.0,0.0,0.0,0.0,0.0,0.0,0.0,0.0,0.0,0.0,0.0,0.0,0.0,0.0,0.0,0.0,0.0,0.0,0.0,0.0,0.0,0.0,0.0,0.0,0.0,0.0,0.0,0.0,0.0,0.0,0.0,0.0,0.0,0.0,0.0,0.0,0.0,0.0,0.0,0.0,0.0,0.0,0.0,0.0,0.0,0.0,0.0,0.0,0.0,0.0,0.0,0.0,0.0,0.0,0.0,0.0,0.0,0.0,0.0,0.0,0.0,0.0,0.0,0.0,0.0,0.0,0.0,0.0,0.0,0.0,0.0,0.0,0.0,0.0,0.0,0.0,0.0,0.0,0.0,0.0,0.0,0.0,0.0,0.0,0.0,0.0,0.0,0.0,0.0,0.0,0.0,0.0,0.0,0.0,0.0,0.0,0.0,0.0,0.0,0.0,-3.7441,-3.9847,-3.9958,-3.762,-3.645,-3.4416,0.0,0.0,0.0,0.0,0.0,0.0,0.0,0.0,0.0,0.0,0.0,0.0,0.0,0.0,0.0,0.0,0.0,0.0,0.0,0.0,0.0,0.0,0.0,0.0,0.0,0.0,0.0,0.0,0.0,0.0,0.0,0.0,0.0,0.0,0.0,0.0,0.0,0.0,0.0,0.0,0.0,0.0,0.0,0.0,0.0,0.0,0.0,0.0,0.0,0.0,0.0,0.0,0.0,0.0,0.0,0.0,0.0,0.0,0.0,0.0,0.0,0.0,0.0,0.0,0.0,0.0,0.0,0.0,0.0,0.0,0.0,0.0,0.0,0.0,0.0,0.0,0.0,0.0,0.0,0.0,0.0,0.0,0.0,0.0,0.0,0.0,0.0,0.0,0.0,0.0,0.0,0.0,0.0,0.0,0.0,0.0,0.0,0.0,0.0,0.0,0.0,0.0,0.0,0.0,0.0,0.0,0.0,0.0,0.0,-3.917,-4.1529,-4.2177,-4.0871,-3.7654,-3.5742,0.0,0.0,0.0,0.0,0.0,0.0,0.0,0.0,0.0,0.0,0.0,0.0,0.0,0.0,0.0,0.0,0.0,0.0,0.0,0.0,0.0,0.0,0.0,0.0,0.0,0.0,0.0,0.0,0.0,0.0,0.0,0.0,0.0,0.0,0.0,0.0,0.0,0.0,0.0,0.0,0.0,0.0,0.0,0.0,0.0,0.0,0.0,0.0,0.0,0.0,0.0,0.0,0.0,0.0,0.0,0.0,0.0,0.0,0.0,0.0,0.0,0.0,0.0,0.0,0.0,0.0,0.0,0.0,0.0,0.0,0.0,0.0,0.0,0.0,0.0,0.0,0.0,0.0,0.0,0.0,0.0,0.0,0.0,0.0,0.0,0.0,0.0,0.0,0.0,0.0,0.0,0.0,0.0,0.0,0.0,0.0,0.0,0.0,0.0,0.0,0.0,0.0,0.0,0.0,0.0,0.0,0.0,0.0,-3.8705,-4.0733,-4.3175,-4.3851,-4.2602,-3.9544,-3.7216,0.0,0.0,0.0,0.0,0.0,0.0,0.0,0.0,0.0,0.0,0.0,0.0,0.0,0.0,0.0,0.0,0.0,0.0,0.0,0.0,0.0,0.0,0.0,0.0,0.0,0.0,0.0,0.0,0.0,0.0,0.0,0.0,0.0,0.0,0.0,0.0,0.0,0.0,0.0,0.0,0.0,0.0,0.0,0.0,0.0,0.0,0.0,0.0,0.0,0.0,0.0,0.0,0.0,0.0,0.0,0.0,0.0,0.0,0.0,0.0,0.0,0.0,0.0,0.0,0.0,0.0,0.0,0.0,0.0,0.0,0.0,0.0,0.0,0.0,0.0,0.0,0.0,0.0,0.0,0.0,0.0,0.0,0.0,0.0,0.0,0.0,0.0,0.0,0.0,0.0,0.0,0.0,0.0,0.0,0.0,0.0,0.0,0.0,0.0,0.0,0.0,0.0,0.0,0.0,0.0,0.0,0.0,0.0,-3.9691,-4.2044,-4.4552,-4.4982,-4.3135,-4.1391,-3.8575,0.0,0.0,0.0,0.0,0.0,0.0,0.0,0.0,0.0,0.0,0.0,0.0,0.0,0.0,0.0,0.0,0.0,0.0,0.0,0.0,0.0,0.0,0.0,0.0,0.0,0.0,0.0,0.0,0.0,0.0,0.0,0.0,0.0,0.0,0.0,0.0,0.0,0.0,0.0,0.0,0.0,0.0,0.0,0.0,0.0,0.0,0.0,0.0,0.0,0.0,0.0,0.0,0.0,0.0,0.0,0.0,0.0,0.0,0.0,0.0,0.0,0.0,0.0,0.0,0.0,0.0,0.0,0.0,0.0,0.0,0.0,0.0,0.0,0.0,0.0,0.0,0.0,0.0,0.0,0.0,0.0,0.0,0.0,0.0,0.0,0.0,0.0,0.0,0.0,0.0,0.0,0.0,0.0,0.0,0.0,0.0,0.0,0.0,0.0,0.0,0.0,0.0,0.0,0.0,0.0,0.0,0.0,0.0,-4.0218,-4.2011,-4.4478,-4.4859,-4.306,-4.0886,-3.8292,0.0,0.0,0.0,0.0,0.0,0.0,0.0,0.0,0.0,0.0,0.0,0.0,0.0,0.0,0.0,0.0,0.0,0.0,0.0,0.0,0.0,0.0,0.0,0.0,0.0,0.0,0.0,0.0,0.0,0.0,0.0,0.0,0.0,0.0,0.0,0.0,0.0,0.0,0.0,0.0,0.0,0.0,0.0,0.0,0.0,0.0,0.0,0.0,-3.0653,0.0,0.0,0.0,0.0,0.0,0.0,0.0,0.0,0.0,0.0,0.0,0.0,0.0,0.0,0.0,0.0,0.0,0.0,0.0,0.0,0.0,0.0,0.0,0.0,0.0,0.0,0.0,0.0,0.0,0.0,0.0,0.0,0.0,0.0,0.0,0.0,0.0,0.0,0.0,0.0,0.0,0.0,0.0,0.0,0.0,0.0,0.0,0.0,0.0,0.0,0.0,0.0,0.0,0.0,0.0,0.0,0.0,0.0,0.0,-4.0836,-4.247,-4.4487,-4.4713,-4.2954,-4.1338,-3.888,0.0,0.0,0.0,0.0,0.0,0.0,0.0,0.0,0.0,0.0,0.0,0.0,0.0,0.0,0.0,0.0,0.0,0.0,0.0,0.0,0.0,0.0,0.0,0.0,0.0,0.0,0.0,0.0,0.0,0.0,0.0,0.0,0.0,0.0,0.0,0.0,0.0,0.0,0.0,0.0,0.0,0.0,0.0,0.0,0.0,0.0,0.0,0.0,0.0,0.0,0.0,0.0,0.0,0.0,0.0,0.0,0.0,0.0,0.0,0.0,0.0,0.0,0.0,0.0,0.0,0.0,0.0,0.0,0.0,0.0,0.0,0.0,0.0,0.0,0.0,0.0,0.0,0.0,0.0,0.0,0.0,0.0,0.0,0.0,0.0,0.0,0.0,0.0,0.0,0.0,0.0,0.0,0.0,0.0,0.0,0.0,0.0,0.0,0.0,0.0,0.0,0.0,0.0,0.0,0.0,0.0,0.0,-3.873,-4.1112,-4.292,-4.4315,-4.4279,-4.2793,-4.1982,-3.96,-3.55,0.0,0.0,0.0,0.0,0.0,0.0,0.0,0.0,0.0,0.0,0.0,0.0,0.0,0.0,0.0,0.0,0.0,0.0,0.0,0.0,0.0,0.0,0.0,0.0,0.0,0.0,0.0,0.0,0.0,0.0,0.0,0.0,0.0,0.0,0.0,0.0,0.0,0.0,-3.3804,-3.4649,0.0,0.0,0.0,0.0,0.0,0.0,0.0,0.0,-3.2491,0.0,0.0,0.0,0.0,0.0,0.0,0.0,0.0,0.0,0.0,0.0,0.0,0.0,0.0,0.0,0.0,0.0,0.0,0.0,0.0,0.0,0.0,0.0,0.0,0.0,0.0,0.0,0.0,0.0,0.0,0.0,0.0,0.0,0.0,0.0,0.0,0.0,0.0,0.0,0.0,0.0,0.0,0.0,0.0,0.0,0.0,0.0,0.0,0.0,0.0,0.0,0.0,0.0,0.0,0.0,0.0,-3.6569,-3.7819,-3.9845,-4.2756,-4.3092,-4.3032,-4.2633,-4.1852,-3.949,-3.5488,0.0,0.0,0.0,0.0,0.0,0.0,0.0,0.0,0.0,0.0,0.0,0.0,0.0,0.0,0.0,0.0,0.0,0.0,0.0,0.0,0.0,0.0,0.0,0.0,0.0,0.0,0.0,0.0,0.0,0.0,0.0,0.0,0.0,0.0,0.0,0.0,0.0,0.0,0.0,-3.7143,-3.7161,0.0,0.0,0.0,0.0,0.0,0.0,0.0,0.0,-3.2571,0.0,0.0,0.0,0.0,0.0,0.0,0.0,0.0,0.0,0.0,0.0,0.0,0.0,0.0,0.0,0.0,0.0,0.0,0.0,0.0,0.0,0.0,0.0,0.0,0.0,0.0,0.0,0.0,0.0,0.0,0.0,0.0,0.0,0.0,0.0,0.0,0.0,0.0,0.0,0.0,0.0,0.0,0.0,0.0,0.0,0.0,0.0,0.0,0.0,0.0,0.0,0.0,0.0,0.0,0.0,-3.6105,-3.8604,-4.0663,-4.2116,-4.2536,-4.2515,-4.1977,-4.0715,-3.8508,0.0,0.0,0.0,0.0,0.0,0.0,0.0,0.0,0.0,0.0,0.0,0.0,0.0,0.0,0.0,0.0,0.0,0.0,0.0,0.0,0.0,0.0,0.0,0.0,0.0,0.0,0.0,0.0,0.0,0.0,0.0,0.0,0.0,0.0,0.0,0.0,0.0,0.0,0.0,0.0,-3.6663,-3.6739,-3.6331,0.0,0.0,0.0,0.0,0.0,0.0,-3.2871,-3.2409,0.0,0.0,0.0,0.0,0.0,0.0,0.0,0.0,0.0,0.0,0.0,0.0,0.0,0.0,0.0,0.0,0.0,0.0,0.0,0.0,0.0,0.0,0.0,0.0,0.0,0.0,0.0,0.0,0.0,0.0,0.0,0.0,0.0,0.0,0.0,0.0,0.0,0.0,0.0,0.0,0.0,0.0,0.0,0.0,0.0,0.0,0.0,0.0,0.0,0.0,0.0,0.0,0.0,0.0,0.0,-3.5484,-3.8851,-4.0948,-4.1514,-4.1932,-4.1824,-4.1099,-3.959,-3.7537,0.0,0.0,0.0,0.0,0.0,0.0,0.0,0.0,0.0,0.0,0.0,0.0,0.0,0.0,0.0,0.0,0.0,0.0,0.0,0.0,0.0,0.0,0.0,0.0,0.0,0.0,0.0,0.0,0.0,0.0,0.0,0.0,0.0,0.0,0.0,0.0,0.0,0.0,0.0,0.0,0.0,-3.6516,-3.7,-3.7057,0.0,0.0,0.0,0.0,-3.41,-3.4,0.0,0.0,0.0,0.0,0.0,0.0,0.0,0.0,0.0,0.0,0.0,0.0,0.0,0.0,0.0,0.0,0.0,0.0,0.0,0.0,0.0,0.0,0.0,0.0,0.0,0.0,0.0,0.0,0.0,0.0,0.0,0.0,0.0,0.0,0.0,0.0,0.0,0.0,0.0,0.0,0.0,0.0,0.0,0.0,0.0,0.0,0.0,0.0,0.0,0.0,0.0,0.0,0.0,0.0,0.0,0.0,-3.5251,-3.6485,-3.8469,-4.1146,-4.0676,-4.0224,-4.0084,-3.9193,-3.7203,0.0,0.0,0.0,0.0,0.0,0.0,0.0,0.0,0.0,0.0,0.0,0.0,0.0,0.0,0.0,0.0,0.0,0.0,0.0,0.0,0.0,0.0,0.0,0.0,0.0,0.0,0.0,0.0,0.0,0.0,0.0,0.0,0.0,0.0,0.0,0.0,0.0,0.0,0.0,0.0,0.0,-3.8663,-3.8047,-3.7903,-3.7868,0.0,0.0,0.0,-3.7214,-3.792,0.0,0.0,0.0,0.0,0.0,0.0,0.0,0.0,0.0,0.0,0.0,0.0,0.0,0.0,0.0,0.0,0.0,0.0,0.0,0.0,0.0,0.0,0.0,0.0,0.0,0.0,0.0,0.0,0.0,0.0,0.0,0.0,0.0,0.0,0.0,0.0,0.0,0.0,0.0,0.0,0.0,0.0,0.0,0.0,0.0,0.0,0.0,0.0,0.0,0.0,0.0,0.0,0.0,0.0,0.0,-3.3704,-3.5245,-3.7024,-3.8784,-4.0544,-4.0188,-3.9777,-3.929,-3.7505,-3.5657,0.0,0.0,0.0,0.0,0.0,0.0,0.0,0.0,0.0,0.0,0.0,0.0,0.0,0.0,0.0,0.0,0.0,0.0,0.0,0.0,0.0,0.0,0.0,0.0,0.0,0.0,0.0,0.0,0.0,0.0,0.0,0.0,0.0,0.0,0.0,0.0,0.0,0.0,0.0,0.0,0.0,0.0,-3.8097,-3.8387,0.0,0.0,0.0,-3.7231,-3.7124,0.0,0.0,0.0,0.0,0.0,0.0,0.0,0.0,0.0,0.0,0.0,0.0,0.0,0.0,0.0,0.0,0.0,0.0,0.0,0.0,0.0,0.0,0.0,0.0,0.0,0.0,0.0,0.0,0.0,0.0,0.0,0.0,0.0,0.0,0.0,0.0,0.0,0.0,0.0,0.0,0.0,0.0,0.0,0.0,0.0,0.0,0.0,0.0,0.0,0.0,0.0,0.0,0.0,0.0,0.0,0.0,0.0,-3.4893,-3.7354,-3.8985,-3.9734,-3.9901,-3.9501,-3.8465,-3.6339,0.0,0.0,0.0,0.0,0.0,0.0,0.0,0.0,0.0,0.0,0.0,0.0,0.0,0.0,0.0,0.0,0.0,0.0,0.0,0.0,0.0,0.0,0.0,0.0,0.0,0.0,0.0,-3.023,0.0,0.0,0.0,0.0,0.0,0.0,0.0,0.0,0.0,0.0,0.0,0.0,0.0,0.0,-3.8387,-3.8327,-3.9019,-3.9522,0.0,0.0,-3.7964,-3.7515,-3.7458,-3.6739,0.0,0.0,0.0,0.0,0.0,0.0,0.0,0.0,0.0,0.0,0.0,0.0,0.0,0.0,0.0,0.0,0.0,0.0,0.0,0.0,0.0,0.0,0.0,0.0,0.0,0.0,0.0,0.0,0.0,0.0,0.0,0.0,0.0,0.0,0.0,0.0,0.0,0.0,0.0,0.0,0.0,0.0,0.0,0.0,0.0,0.0,0.0,0.0,0.0,0.0,0.0,0.0,0.0,0.0,0.0,-3.3933,-3.634,-3.8011,-3.8795,-3.9513,-3.9131,-3.7528,-3.6534,-3.4877,0.0,0.0,0.0,0.0,0.0,0.0,0.0,0.0,0.0,0.0,0.0,0.0,0.0,0.0,0.0,0.0,0.0,0.0,0.0,0.0,0.0,0.0,0.0,0.0,0.0,0.0,0.0,0.0,0.0,0.0,0.0,0.0,0.0,0.0,0.0,0.0,0.0,0.0,0.0,0.0,0.0,-3.9222,-3.9213,-3.9904,-4.0389,0.0,0.0,-3.9247,-3.9918,-4.0024,-3.8934,-3.5737,0.0,0.0,0.0,0.0,0.0,0.0,0.0,0.0,0.0,0.0,0.0,0.0,0.0,0.0,0.0,0.0,0.0,0.0,0.0,0.0,0.0,0.0,0.0,0.0,0.0,0.0,0.0,0.0,0.0,0.0,0.0,0.0,0.0,0.0,0.0,0.0,0.0,0.0,0.0,0.0,0.0,0.0,0.0,0.0,0.0,0.0,0.0,0.0,0.0,0.0,0.0,0.0,0.0,-3.2963,-3.374,-3.6169,-3.7816,-3.8588,-3.8915,-3.8504,-3.736,-3.5509,-3.3808,0.0,0.0,0.0,0.0,0.0,0.0,0.0,0.0,0.0,0.0,0.0,0.0,0.0,0.0,0.0,0.0,0.0,0.0,0.0,0.0,0.0,0.0,0.0,0.0,0.0,0.0,0.0,0.0,-3.0096,-3.0044,-3.0364,0.0,0.0,0.0,0.0,0.0,0.0,0.0,0.0,0.0,0.0,-3.9854,-3.9376,-4.0378,0.0,0.0,-4.0096,-3.9947,-4.0253,-3.9889,-3.8969,-3.7171,-3.6052,0.0,0.0,0.0,0.0,0.0,0.0,0.0,0.0,0.0,0.0,0.0,0.0,0.0,0.0,0.0,0.0,0.0,0.0,0.0,0.0,0.0,0.0,0.0,0.0,0.0,0.0,0.0,0.0,0.0,0.0,0.0,0.0,0.0,0.0,0.0,0.0,0.0,0.0,0.0,0.0,0.0,0.0,0.0,0.0,0.0,0.0,0.0,0.0,0.0,0.0,0.0,0.0,-3.2791,-3.3317,-3.573,-3.7394,-3.8194,-3.815,-3.7863,-3.7219,-3.4824,-3.3099,0.0,0.0,0.0,0.0,0.0,0.0,0.0,0.0,0.0,0.0,0.0,0.0,0.0,0.0,0.0,0.0,0.0,0.0,0.0,0.0,0.0,0.0,0.0,0.0,0.0,0.0,0.0,0.0,-3.0398,-3.0398,-3.0373,0.0,0.0,0.0,0.0,0.0,0.0,0.0,0.0,0.0,0.0,-3.9988,-3.968,-4.0769,-4.1225,-4.0159,-3.9955,-3.9823,-3.9565,-3.882,-3.7987,-3.7223,0.0,0.0,0.0,0.0,0.0,0.0,0.0,0.0,0.0,0.0,0.0,0.0,0.0,0.0,0.0,0.0,0.0,0.0,0.0,0.0,0.0,0.0,0.0,0.0,0.0,0.0,0.0,0.0,0.0,0.0,0.0,0.0,0.0,0.0,0.0,0.0,0.0,0.0,0.0,0.0,0.0,0.0,0.0,0.0,0.0,0.0,0.0,0.0,0.0,0.0,0.0,0.0,0.0,0.0,-3.2458,-3.4838,-3.6459,-3.7297,-3.7327,-3.7268,-3.7107,-3.4773,-3.3039,-3.2096,0.0,0.0,0.0,0.0,0.0,0.0,0.0,0.0,0.0,0.0,0.0,0.0,0.0,0.0,0.0,0.0,0.0,0.0,0.0,0.0,0.0,0.0,0.0,0.0,0.0,0.0,-3.0304,-3.0354,-3.0373,0.0,0.0,0.0,0.0,0.0,0.0,0.0,0.0,0.0,0.0,-3.8038,-3.9438,-4.0234,-4.1051,-4.0986,-3.9378,-3.9085,-3.8763,-3.7941,-3.7002,-3.609,0.0,0.0,0.0,0.0,0.0,0.0,0.0,0.0,0.0,0.0,0.0,0.0,0.0,0.0,0.0,0.0,0.0,0.0,0.0,0.0,0.0,0.0,0.0,0.0,0.0,0.0,0.0,0.0,-3.2662,0.0,0.0,0.0,0.0,0.0,0.0,0.0,0.0,0.0,0.0,0.0,-3.1962,-3.1955,0.0,0.0,0.0,0.0,0.0,0.0,0.0,0.0,0.0,0.0,0.0,0.0,-3.2317,-3.2373,-3.4699,-3.6064,-3.6365,-3.6381,-3.6084,-3.548,-3.3563,-3.1928,-3.0556,0.0,0.0,0.0,0.0,0.0,0.0,0.0,0.0,0.0,0.0,0.0,0.0,0.0,0.0,0.0,0.0,0.0,0.0,0.0,0.0,0.0,0.0,0.0,0.0,0.0,-3.0299,0.0,0.0,0.0,0.0,0.0,0.0,0.0,0.0,0.0,0.0,0.0,-3.5308,-3.6394,-3.7948,-3.9087,-3.9428,-4.0129,-4.0244,0.0,0.0,0.0,0.0,0.0,0.0,0.0,0.0,0.0,0.0,0.0,0.0,0.0,0.0,-3.4988,-3.314,-3.2771,-3.2757,-3.2742,0.0,0.0,0.0,0.0,0.0,0.0,0.0,0.0,0.0,0.0,0.0,0.0,0.0,0.0,0.0,0.0,-3.3023,0.0,0.0,0.0,0.0,0.0,0.0,0.0,0.0,-3.1981,-3.2716,-3.319,-3.3187,-3.3421,0.0,-3.3151,-3.2148,0.0,0.0,0.0,0.0,0.0,0.0,0.0,0.0,-3.2172,-3.2236,-3.4282,-3.5529,-3.5792,-3.5556,-3.515,-3.4542,-3.2695,-3.1043,-2.9692,-2.9139,-2.8979,0.0,0.0,0.0,0.0,0.0,0.0,0.0,0.0,0.0,0.0,0.0,0.0,0.0,0.0,0.0,0.0,0.0,0.0,0.0,0.0,0.0,0.0,0.0,-3.0279,0.0,0.0,0.0,0.0,0.0,0.0,0.0,0.0,0.0,-3.4347,-3.517,-3.6067,-3.7127,-3.7909,-3.8509,-3.888,0.0,0.0,0.0,0.0,0.0,0.0,0.0,-3.6615,-3.6595,-3.5883,-3.5239,-3.4964,-3.5619,-3.616,-3.5949,0.0,0.0,-3.3895,-3.3578,-3.3528,-3.354,-3.3484,-3.3454,-3.3405,-3.3361,-3.3316,0.0,0.0,0.0,0.0,0.0,0.0,0.0,0.0,-3.5706,-3.5598,0.0,-3.4591,0.0,0.0,0.0,0.0,0.0,0.0,0.0,0.0,-3.3288,-3.4112,-3.4117,-3.3998,-3.4001,-3.4033,-3.3668,-3.309,-3.238,-3.1515,0.0,0.0,0.0,0.0,0.0,0.0,-3.2014,-3.2107,-3.3631,-3.4808,-3.5574,-3.4903,-3.4476,-3.4326,-3.2083,-3.047,-2.9654,-2.9655,-2.9317,-2.8501,-2.8463,0.0,0.0,0.0,0.0,0.0,0.0,0.0,0.0,0.0,0.0,0.0,0.0,0.0,0.0,0.0,0.0,0.0,0.0,0.0,0.0,-3.0202,0.0,0.0,0.0,0.0,0.0,0.0,0.0,0.0,0.0,0.0,-3.5024,-3.5879,-3.6957,-3.8367,0.0,0.0,0.0,0.0,-3.8417,-3.7776,-3.821,-3.8346,-3.7484,-3.7211,-3.7101,-3.7173,0.0,0.0,-3.4942,-3.5552,-3.5894,-3.5182,-3.5068,-3.502,-3.5136,-3.5011,-3.5003,-3.5006,-3.4969,-3.501,-3.4908,-3.4708,-3.4706,-3.9537,0.0,0.0,0.0,0.0,-3.7411,-3.7392,-3.7392,-3.7385,-3.6672,-3.549,-3.5251,0.0,0.0,0.0,0.0,0.0,0.0,-3.2696,-3.2509,-3.3547,-3.427,-3.4745,-3.4786,-3.5051,-3.5467,-3.4736,-3.3949,-3.3118,-3.276,-3.1865,-3.0537,0.0,0.0,0.0,0.0,-3.2232,-3.2881,-3.3881,-3.4517,-3.4752,-3.4539,-3.3878,-3.2727,-3.0878,-2.9813,-2.9598,-2.9617,-2.9523,-2.928,-2.9261,0.0,0.0,0.0,0.0,0.0,0.0,0.0,0.0,0.0,0.0,0.0,0.0,0.0,0.0,0.0,0.0,0.0,0.0,0.0,-3.0921,-3.1016,-3.1046,0.0,0.0,0.0,0.0,0.0,0.0,0.0,0.0,0.0,-3.5579,-3.6508,-3.6981,0.0,0.0,-3.7583,-3.8461,-3.8058,-3.7824,-3.8302,0.0,0.0,0.0,-3.5885,-3.5466,-3.5383,-3.5141,-3.5093,-3.5512,-3.53,-3.5202,-3.5603,-3.5206,-3.4801,-3.4898,-3.4898,-3.4908,-3.4936,-3.487,-3.48,-3.4769,-3.4718,-3.4658,-4.1446,-3.9301,-3.8912,-3.8537,-3.8189,-3.8132,-3.8086,-3.8046,-3.8052,-3.746,-3.6465,-3.6101,-3.5163,-3.3875,-3.3456,0.0,0.0,0.0,-3.3585,-3.3268,-3.4423,-3.516,-3.5548,-3.5621,-3.5807,-3.6072,-3.5208,-3.4456,-3.3855,-3.3362,-3.2642,-3.1717,0.0,0.0,-3.1169,-3.1946,-3.2575,-3.3096,-3.3883,-3.4323,-3.4281,-3.3713,-3.2803,-3.1515,-3.0192,-2.9511,-2.9521,-2.9578,-2.9588,-2.9578,-2.9569,-2.956,0.0,0.0,0.0,0.0,0.0,0.0,0.0,0.0,0.0,0.0,0.0,-3.0113,0.0,0.0,0.0,0.0,-3.0147,-3.0468,-3.1264,-3.134,0.0,0.0,0.0,0.0,0.0,0.0,0.0,-3.2798,-3.3554,-3.4392,-3.5278,-3.6122,-3.6584,-3.6448,-3.6595,-3.6889,-3.7426,0.0,-3.6911,-3.7543,-3.7406,-3.7038,-3.6516,-3.6026,-3.559,-3.5176,-3.539,-3.5439,-3.5334,-3.5184,-3.5187,-3.5316,-3.4996,-3.4687,-3.4751,-3.4732,-3.4752,-3.4879,-3.481,-3.4747,-3.4728,-3.4687,-3.4623,-4.254,-4.0846,-4.0126,-3.9282,-3.8402,-3.8325,-3.8265,-3.8185,-3.8137,-3.8046,-3.7923,-3.7022,-3.614,-3.5335,-3.4485,0.0,0.0,-3.4553,-3.4805,-3.4083,-3.5592,-3.6316,-3.6288,-3.6224,-3.6169,-3.6065,-3.5148,-3.4655,-3.4534,-3.3601,-3.3099,-3.3063,-3.2419,-3.2035,-3.2006,-3.2648,-3.2992,-3.2988,-3.3771,-3.4123,-3.3982,-3.2623,-3.1506,-3.0727,-2.991,-2.9463,-2.9394,-2.9521,-2.955,-2.9521,-2.955,-2.9598,-2.9588,0.0,0.0,0.0,0.0,0.0,0.0,0.0,0.0,0.0,0.0,0.0,0.0,0.0,0.0,0.0,-3.003,0.0,-3.1299,-3.1328,0.0,0.0,0.0,-3.2188,-3.1111,-3.254,-3.346,-3.3148,0.0,0.0,0.0,0.0,-3.5775,-3.6756,-3.6299,-3.5938,-3.6056,-3.6017,-3.5919,-3.6187,-3.6592,-3.6967,-3.6817,-3.6641,-3.6152,-3.5428,-3.6216,-3.5897,-3.4706,-3.4921,-3.5146,-3.4481,-3.4387,-3.439,-3.4469,-3.4336,-3.4478,-3.4594,-3.4705,-3.4768,-3.4597,-3.4547,-3.4427,-4.2556,-4.0948,-4.1382,-4.1022,-4.0114,-3.9986,-3.9923,-3.985,-3.9246,-3.8623,-3.7942,-3.7022,-3.609,-3.5242,-3.5015,-3.4797,-3.4628,-3.5024,-3.5102,-3.4914,-3.5261,-3.5378,-3.5323,-3.5369,-3.5334,-3.5191,-3.4854,-3.4645,-3.4498,-3.4118,-3.3596,-3.3069,-3.3441,-3.3324,-3.269,-3.2778,-3.3149,-3.3728,-3.3994,-3.3839,-3.3245,-3.2314,-3.1425,-3.0626,-2.9837,-2.9429,-2.9384,-2.9433,-2.9433,-2.9433,-2.9482,-2.9511,-2.9443,-2.9598,0.0,0.0,0.0,0.0,0.0,0.0,0.0,0.0,0.0,-3.0022,-3.003,0.0,-3.008,0.0,-2.9956,-3.0281,-3.1159,-3.1271,0.0,0.0,-3.1982,-3.1969,-3.0383,-3.168,-3.2383,-3.1493,-3.2117,-3.2852,-3.3429,-3.3624,-3.4041,-3.4918,-3.5441,-3.5958,-3.6555,-3.6119,-3.5977,-3.6443,-3.6206,-3.6063,-3.596,-3.5057,-3.4038,-3.3137,-3.3223,-3.3137,-3.2762,-3.2856,-3.2931,-3.2724,-3.2687,-3.2726,-3.2822,-3.2736,-3.2786,-3.3015,-3.3864,-3.4425,-3.3738,-3.3607,-3.343,-4.2217,-4.0992,-4.1442,-4.1281,-4.0739,-4.0633,-4.0542,-4.0439,-3.965,-3.8803,-3.7904,-3.6592,-3.5737,-3.5253,-3.5218,-3.5193,-3.5196,-3.5189,-3.5164,-3.512,-3.5075,-3.5029,-3.5001,-3.5011,-3.4955,-3.4831,-3.437,-3.4057,-3.39,-3.3387,-3.2908,-3.2481,-3.2915,-3.2873,-3.2425,-3.3062,-3.3617,-3.3979,-3.3685,-3.3006,-3.1949,-3.1463,-3.085,-3.0084,-2.9649,-2.9221,-2.8832,-2.9218,-2.9236,-2.8861,-2.9286,-2.9521,-2.9453,-2.9569,-2.9317,0.0,0.0,0.0,0.0,0.0,0.0,0.0,0.0,0.0,0.0,0.0,-3.0159,0.0,-3.014,0.0,-3.1162,-3.1246,-3.1094,-3.0717,-3.1741,-3.1879,-3.0424,-3.1431,-3.1955,-3.1323,-3.1635,-3.2072,-3.256,-3.2553,-3.268,-3.3232,-3.3698,-3.4318,-3.5056,-3.4857,-3.464,-3.4731,-3.4364,-3.4083,-3.4128,-3.3414,-3.2687,-3.2217,-3.2115,-3.2115,-3.2115,-3.2115,-3.2115,-3.2115,-3.2115,-3.2115,-3.2153,-3.2163,-3.2183,-3.2335,-3.2976,-3.3351,-3.2951,-3.2787,-3.2587,-4.1685,-4.0986,-4.0953,-4.0854,-4.0814,-4.0733,-4.0626,-4.0439,-3.9515,-3.8565,-3.757,-3.5998,-3.5285,-3.5277,-3.5237,-3.5196,-3.5191,-3.5191,-3.5101,-3.5001,-3.4992,-3.4992,-3.4992,-3.4927,-3.4832,-3.4632,-3.3814,-3.3314,-3.3058,-3.2236,-3.176,-3.1667,-3.1768,-3.1723,-3.1628,-3.3115,-3.3839,-3.3697,-3.3124,-3.213,-3.0798,-3.0687,-3.0309,-2.959,-2.9452,-2.8988,-2.816,-2.8994,-2.906,-2.8207,-2.9043,-2.954,-2.9521,-2.956,-2.9289,0.0,-2.9346,0.0,0.0,0.0,0.0,0.0,0.0,0.0,0.0,-2.9907,-3.021,-3.0977,-3.0351,-3.0235,-3.1062,-3.1059,-3.0722,-3.0045,-3.1249,-3.1723,-3.0757,-3.1325,-3.175,-3.1526,-3.1496,-3.1556,-3.1722,-3.1697,-3.1667,-3.1935,-3.2068,-3.2333,-3.2812,-3.3044,-3.2903,-3.2123,-3.2027,-3.2259,-3.2106,-3.1989,-3.1888,-3.1804,-3.1673,-3.1785,-3.1692,-3.1729,-3.1729,-3.1739,-3.1692,-3.1711,-3.1805,-3.1787,-3.1816,-3.1739,-3.1892,-3.2043,-3.2147,-3.2072,-3.1947,-4.1211,-4.099,-4.0983,-4.0906,-4.0794,-4.0782,-4.0674,-4.04,-3.8892,-3.737,-3.5893,-3.5484,-3.5289,-3.5218,-3.5215,-3.5153,-3.511,-3.5047,-3.5039,-3.5001,-3.4945,-3.4917,-3.4917,-3.4917,-3.4548,-3.3923,-3.3629,-3.3146,-3.2447,-3.2115,-3.1608,-3.0937,-3.1492,-3.1444,0.0,0.0,0.0,0.0,-3.2612,-3.2432,-3.1529,-3.1526,-3.1147,-3.0305,-2.971,0.0,-2.8203,-2.894,-2.9006,-2.8203,-2.8944,0.0,0.0,0.0,0.0,0.0,0.0,0.0,0.0,0.0,0.0,0.0,-2.991,-2.9912,-2.9912,-2.9912,-2.9958,-3.0124,-2.9991,-2.9972,-3.0132,-3.0143,-3.0086,-2.9983,-3.071,-3.0875,-3.003,-3.0571,-3.0733,-2.9956,-2.9842,-3.0132,-3.0756,-3.0838,-3.108,-3.163,-3.1823,-3.1633,-3.1259,-3.1755,-3.2042,-3.1879,-3.1752,-3.1638,-3.1133,-3.104,-3.0864,-3.0349,-3.0152,-3.019,-3.0246,-3.0227,-3.019,-3.0227,-3.0142,-3.0207,-3.0263,-3.0207,-3.031,-3.0307,-3.0289,-3.0413,-3.1045,-3.1288,-3.1171,-4.1084,0.0,-4.1039,-4.096,0.0,-4.0796,-4.07,-4.0472,-3.9184,-3.7658,-3.602,-3.5522,-3.527,-3.5182,-3.5185,-3.5145,-3.5057,-3.5057,-3.5011,-3.4945,-3.4917,-3.4908,-3.4908,-3.4908,-3.4472,-3.3695,-3.3129,-3.243,-3.1666,-3.1059,-3.0528,-3.0058,-3.0435,-3.0381,-2.9986,-3.0397,-3.0798,-3.1173,-3.1529,-3.1362,-3.0587,-3.055,-3.0394,-2.9967,0.0,0.0,0.0,0.0,0.0,0.0,0.0,0.0,0.0,0.0,0.0,-2.9143,-2.9519,-2.9583,-2.923,-2.9641,-2.9876,-2.9849,-2.9815,-2.9834,-2.9904,-2.9904,-2.992,-2.9916,-2.9916,-2.9907,-2.991,-2.9899,-2.9847,-2.9782,-3.0113,-3.0143,-2.97,-2.9854,-2.9915,-2.951,-2.9388,-2.9574,-2.9935,-2.9991,-3.014,-3.053,-3.0623,-3.0504,-3.0227,-3.074,-3.1131,-3.0711,-3.0671,-3.0613,-3.0299,-3.0254,-3.0161,-2.9795,-2.9701,-2.9701,-2.9701,-2.9701,-2.9692,-2.9701,-2.9691,-2.97,-2.9745,-2.9771,-2.9806,-2.9895,-2.9901,-3.0013,-3.044,-3.0532,-3.0465,-4.1106,-4.1107,-4.1107,-4.1027,-4.0903,-4.0844,-4.0647,-4.0311,0.0,0.0,0.0,-3.5699,-3.5273,-3.5182,-3.5182,-3.5126,-3.5039,-3.5066,-3.502,-3.4927,-3.4908,-3.4832,-3.468,-3.469,-3.4169,-3.3222,-3.2392,-3.1591,-3.0781,-2.9945,-2.9512,-2.9453,-2.9433,-2.9421,-2.9399,-2.9388,-2.9723,-3.0344,-3.0476,-3.0216,-2.9598,-2.9418,-2.9334,-2.9376,-2.9099,-2.8542,-2.7696,-2.8053,-2.8165,-2.7968,-2.8353,-2.883,-2.9316,-2.942,-2.9401,-2.9249,-2.923,-2.9275,-2.9357,-2.9408,-2.9492,-2.9563,-2.9651,-2.9771,-2.9895,-2.9876,-2.9885,-2.9907,-2.9916,-2.9899,-2.992,-2.9918,-2.9841,-2.9645,-2.9692,-2.9636,-2.9468,-2.9399,-2.9425,-2.9388,-2.9388,-2.9388,-2.9425,-2.9425,-2.9388,-2.9425,-2.9537,-2.9388,-2.9463,-2.9983,-3.0198,-2.9698,-2.9656,-2.9567,-2.9578,-2.9683,-2.9692,-2.9701,-2.9701,-2.9701,-2.9683,-2.972,-2.9729,-2.9738,-2.9766,-2.9773,-2.9789,-2.9866,-2.9926,-2.9918,-3.0007,-3.0091,-3.0083,-3.0038,-2.9991,-4.1106,-4.1107,-4.1107,-4.1027,-4.0888,-4.0903,-4.0353,-3.9415,-3.85,-3.7537,-3.655,-3.568,-3.5269,-3.5182,-3.5187,-3.5164,-3.5084,-3.5029,-3.5001,0.0,-3.4927,-3.4548,-3.3884,-3.38,-3.2968,-3.1539,-3.1313,-3.0806,-3.0017,-2.9756,-2.9673,-2.9626,-2.955,-2.9453,-2.9402,-2.9392,-2.9456,-2.9593,-3.0241,-3.0516,-3.0342,-2.9718,-2.9365,-2.9267,-2.7983,-2.685,-2.6014,-2.7343,-2.7789,-2.708,-2.8452,-2.9004,-2.8445,-2.8465,-2.8203,-2.7528,-2.7461,-2.7524,-2.7646,-2.7643,-2.7999,-2.8722,-2.9339,-2.9744,-2.9895,-2.9842,-2.9832,-2.988,-2.9907,-2.9907,-2.9907,-2.9907,-2.9847,-2.9782,-2.9729,-2.9645,-2.9511,-2.944,-2.9388,-2.9407,-2.9388,-2.9388,-2.9399,-2.9388,-2.9388,-2.9407,-2.9388,-2.9388,-2.9407,-2.9471,-2.9518,-2.9417,-2.9392,-2.9433,-2.9502,-2.956,-2.9655,-2.9701,-2.9692,-2.9711,-2.9711,-2.9756,-2.9799,-2.9861,-2.9945,-3.0018,-3.0022,-3.0049,-3.0049,-2.9996,-3.006,-3.0101,-3.0109,-3.0128,-3.013,-4.1112,-4.111,-4.1107,-4.1025,-4.096,-4.0907,-4.03,-3.9302,-3.8366,-3.7463,-3.6557,-3.5668,-3.5258,-3.5196,-3.5196,-3.5153,-3.5092,-3.512,-3.5084,-3.5019,-3.4537,-3.412,-3.3731,-3.3194,-3.2315,-3.1197,-3.108,-3.0619,-2.9856,-2.9726,-2.97,-2.9683,-2.9531,-2.9421,-2.9339,-2.9307,-2.9336,-2.9407,-2.975,-2.972,-2.9206,-2.8866,-2.8476,-2.8019,-2.7269,-2.673,-2.633,-2.6656,-2.6879,-2.6897,-2.727,-2.7531,-2.7596,-2.766,-2.7546,-2.7197,-2.716,-2.7177,-2.7238,-2.7652,-2.7884,-2.7934,-2.9022,-2.9549,-2.9158,-2.9526,-2.978,-2.9822,-2.9866,-2.9874,-2.9849,-2.9864,-2.9847,-2.9763,-2.9755,-2.9682,-2.9522,-2.9481,-2.9451,-2.9451,-2.9421,-2.9421,-2.95,-2.945,-2.9411,-2.946,-2.944,-2.9411,-2.946,-2.949,-2.948,-2.9411,-2.9423,-2.9491,-2.955,-2.9617,-2.9673,-2.9701,-2.9729,-2.9756,-2.9765,-2.9816,-2.9893,-2.9943,-2.9991,-3.003,-3.0083,-3.0094,-3.009,-3.0126,-3.0154,-3.0213,-3.0219,-3.02,-3.0206,-4.1114,-4.111,-4.1107,-4.0961,-4.0703,-4.0669,-3.9948,-3.8813,-3.8054,-3.7242,-3.6335,-3.5596,-3.5266,-3.5234,-3.5212,-3.5168,-3.5136,-3.5191,-3.5069,-3.4767,-3.4125,-3.3605,-3.3197,-3.2426,-3.1775,-3.1187,-3.0892,-3.0517,-3.0101,-2.9876,-2.9736,-2.9729,-2.9747,-2.9639,-2.938,-2.9318,-2.9336,-2.9409,-2.9407,-2.9062,-2.8412,-2.804,-2.752,-2.6944,-2.6544,-2.6358,-2.634,-2.5977,-2.6069,-2.6656,-2.6354,-2.6388,-2.6762,-2.688,-2.6831,-2.667,-2.6643,-2.6633,-2.6679,-2.7384,-2.7616,-2.7091,-2.8328,-2.895,-2.8618,-2.9051,-2.9529,-2.976,-2.9851,-2.9851,-2.9842,-2.9849,-2.9822,-2.9708,-2.9755,-2.9701,-2.9541,-2.9531,-2.954,-2.954,-2.9501,-2.9491,-2.9559,-2.9511,-2.9491,-2.9531,-2.9492,-2.9511,-2.9531,-2.9589,-2.9551,-2.9492,-2.9522,-2.9598,-2.9645,-2.9719,-2.9756,-2.9747,-2.979,-2.9825,-2.9842,-2.9883,-2.9948,-3.0014,-3.0019,-3.0064,-3.0118,-3.0173,-3.0194,-3.0241,-3.0279,-3.0292,-3.0299,-3.026,-3.0233,-4.1109,-4.111,-4.111,-4.0604,-3.9887,-3.982,-3.8826,-3.7306,-3.7098,-3.6522,-3.5663,-3.5376,-3.5293,-3.5296,-3.5226,-3.5182,-3.5185,-3.5179,-3.48,-3.4077,-3.3868,-3.2997,-3.1697,-3.1328,-3.118,-3.1009,-3.0378,-3.0352,-3.0779,-3.021,-2.9842,-2.9893,-3.0535,-3.0461,-2.9767,-2.9589,-2.9531,-2.9501,-2.9429,-2.9359,-2.9192,-2.778,-2.6981,-2.6888,-2.5485,-2.4723,-2.4816,-2.5363,-2.5745,-2.5866,-2.6515,-2.6617,-2.6021,-2.5969,-2.5702,-2.5035,-2.4952,-2.4931,-2.5019,-2.5729,-2.6234,-2.6191,-2.6985,-2.7785,-2.8336,-2.8508,-2.8938,-2.9551,-2.9796,-2.9777,-2.9868,-2.9813,-2.9734,-2.9719,-2.9719,-2.9692,-2.9598,-2.9598,-2.9617,-2.9673,-2.9626,-2.9598,-2.9617,-2.9598,-2.9607,-2.9636,-2.9626,-2.9608,-2.9626,-2.9682,-2.9682,-2.9636,-2.9747,-2.9853,-2.9842,-2.9866,-2.9857,-2.9866,-2.9891,-2.9883,-2.9901,-2.9975,-3.0087,-3.0083,-3.0171,-3.0246,-3.0254,-3.0323,-3.0349,-3.0317,-3.0317,-3.0311,-3.0305,-3.0292,-3.0273,-4.1111,-4.1117,-4.1114,-4.0548,-3.971,-3.9151,-3.8197,-3.706,-3.7002,-3.6464,-3.567,-3.5477,-3.5386,-3.5354,-3.525,-3.5182,-3.5182,-3.5185,-3.4746,-3.3955,-3.3377,-3.2442,-3.1331,-3.0654,-3.0385,-3.0375,-3.0019,-3.0031,-3.0275,-3.0038,-2.9851,-2.9782,-3.0112,-3.0057,-2.9655,-2.9579,-2.956,-2.9626,-2.9549,-2.9548,-2.9362,-2.7829,-2.6665,-2.6135,-2.5094,-2.45,-2.4537,-2.4834,-2.4983,-2.5001,-2.5352,-2.5414,-2.5123,-2.5136,-2.5046,-2.4714,-2.4695,-2.4684,-2.4718,-2.5504,-2.5775,-2.5275,-2.6462,-2.7194,-2.7069,-2.7851,-2.8432,-2.8395,-2.8789,-2.9261,-2.9683,-2.9389,-2.9267,-2.9686,-2.9792,-2.9728,-2.9664,-2.9664,-2.9701,-2.9756,-2.971,-2.9701,-2.9737,-2.9701,-2.9645,-2.9617,-2.9617,-2.9626,-2.9598,-2.9718,-2.9789,-2.9773,-2.9918,-2.9975,-2.9849,-2.9866,-2.9883,-2.9866,-2.9883,-2.9899,-2.9926,-2.9996,-3.0113,-3.0154,-3.0245,-3.0305,-3.0299,-3.0317,-3.0342,-3.0348,-3.0379,-3.0361,-3.0368,-3.0336,-3.0299,-4.1105,-4.1074,-4.0857,-4.0212,-3.9292,-3.8439,-3.7572,-3.6805,-3.6696,-3.6309,-3.5713,-3.5355,-3.529,-3.5416,-3.5297,-3.5111,-3.4901,-3.4866,-3.4284,-3.3303,-3.258,-3.1797,-3.0944,-3.0295,-3.0094,-3.0208,-2.9988,-2.9857,-2.9931,-3.0185,-3.0095,-2.9827,-2.9988,-2.9971,-2.9701,-2.9608,-2.9636,-2.971,-2.9655,-2.9551,-2.9148,-2.7811,-2.6711,-2.6096,-2.5288,-2.4731,-2.4534,-2.4508,-2.45,-2.45,-2.4513,-2.4537,-2.4607,-2.4655,-2.4695,-2.47,-2.4681,-2.4681,-2.4718,-2.5297,-2.5364,-2.4895,-2.589,-2.6378,-2.6274,-2.7081,-2.7587,-2.7468,-2.767,-2.8271,-2.925,-2.9127,-2.9219,-2.9775,-2.9808,-2.9764,-2.9744,-2.9735,-2.9763,-2.9806,-2.9789,-2.9789,-2.987,-2.9818,-2.971,-2.9654,-2.9664,-2.9673,-2.9645,-2.9787,-2.9907,-2.9849,-3.0019,-3.0049,-2.9864,-2.9932,-2.994,-2.994,-2.9972,-2.9996,-2.9956,-3.0072,-3.0145,-3.0206,-3.0253,-3.0292,-3.0324,-3.0329,-3.0316,-3.0316,-3.0367,-3.0404,-3.0392,-3.0348,-3.0342,-4.1105,-4.0957,-4.0187,-3.9327,-3.8494,-3.7621,-3.6732,-3.5931,-3.5888,-3.5829,-3.5676,-3.4816,-3.4828,-3.5481,-3.5225,-3.4806,-3.4137,-3.4048,-3.3188,-3.1771,-3.1546,-3.1016,-3.0198,-3.0114,-3.0464,-3.0899,-3.0303,-2.9975,-2.9972,-3.0673,-3.0711,-2.9956,-3.06,-3.0646,-2.9988,-2.9806,-2.979,-2.979,-2.9747,-2.9335,-2.8547,-2.7684,-2.7244,-2.6943,-2.6123,-2.5231,-2.4731,-2.4524,-2.4508,-2.45,-2.4557,-2.4599,-2.4596,-2.466,-2.47,-2.4681,-2.4681,-2.4681,-2.4681,-2.4775,-2.4756,-2.4718,-2.4887,-2.5177,-2.5823,-2.6161,-2.6534,-2.7169,-2.6728,-2.711,-2.8345,-2.895,-2.9413,-2.9676,-2.9737,-2.9765,-2.9878,-2.9825,-2.9842,-2.9874,-2.9885,-2.9876,-2.9904,-2.9895,-2.9859,-2.983,-2.9855,-2.9847,-2.9849,-2.9924,-2.9948,-2.9921,-3.0011,-3.0087,-3.0095,-3.011,-3.0154,-3.0113,-3.0083,-3.015,-3.0171,-3.0192,-3.0226,-3.0253,-3.0247,-3.028,-3.0329,-3.0348,-3.0348,-3.0348,-3.0373,-3.0404,-3.0404,-3.0404,-3.0385,-4.0789,-4.0139,-3.8712,-3.7949,-3.7572,-3.6696,-3.6114,-3.5814,-3.5795,-3.5795,-3.5627,-3.4788,-3.4555,-3.4796,-3.4077,-3.3866,-3.3934,-3.3429,-3.2546,-3.1519,-3.1428,-3.0929,-3.0163,-3.0091,-3.0205,-3.0375,-3.0209,-3.003,-2.9983,-3.0287,-3.0287,-3.0059,-3.0241,-3.0249,-3.0005,-2.9899,-2.9883,-2.9907,-2.9868,-2.9444,-2.8734,-2.8781,-2.816,-2.6605,-2.559,-2.5217,-2.5493,-2.4914,-2.4599,-2.4671,-2.4588,-2.4588,-2.4703,-2.47,-2.4681,-2.4681,-2.4681,-2.4681,-2.4681,-2.4681,-2.4681,-2.4681,-2.4681,-2.482,-2.5196,-2.5654,-2.5952,-2.5871,-2.6558,-2.7024,-2.7028,-2.7738,-2.8436,-2.8965,-2.946,-2.9771,-2.9878,-2.9887,-2.9876,-2.988,-2.9907,-2.991,-2.9845,-2.9868,-2.9842,-2.9851,-2.9851,-2.9815,-2.9816,-2.9926,-3.0007,-2.9916,-3.0011,-3.0142,-3.0083,-3.0161,-3.0197,-3.0154,-3.0132,-3.0132,-3.0147,-3.0178,-3.0213,-3.0266,-3.026,-3.028,-3.0329,-3.0355,-3.0336,-3.0373,-3.0404,-3.0404,-3.0404,-3.0396,-3.0389,-4.0345,-3.9579,-3.7919,-3.7194,-3.7094,-3.6216,-3.5811,-3.5807,-3.5807,-3.5647,-3.5247,-3.4408,-3.4017,-3.3785,-3.2695,-3.2545,-3.3132,-3.2579,-3.187,-3.1099,-3.1016,-3.0696,-3.0204,-3.0121,-3.0091,-3.0053,-3.0072,-3.003,-2.9991,-2.9999,-3.0007,-3.0007,-3.0022,-3.003,-3.0022,-2.998,-2.9999,-2.9977,-2.9725,-2.9175,-2.8544,-2.857,-2.7949,-2.6375,-2.5312,-2.5069,-2.5631,-2.4984,-2.4676,-2.4772,-2.4668,-2.4653,-2.4783,-2.4749,-2.4681,-2.4681,-2.4681,-2.4681,-2.47,-2.4734,-2.4715,-2.4742,-2.473,-2.4738,-2.4776,-2.5272,-2.5295,-2.5246,-2.5755,-2.6284,-2.6112,-2.6562,-2.7369,-2.816,-2.8936,-2.9427,-2.955,-2.975,-2.9883,-2.9907,-2.9932,-2.9837,-2.9604,-2.9752,-2.967,-2.9502,-2.9635,-2.9798,-2.9808,-2.9918,-3.003,-2.9962,-3.0053,-3.0135,-3.0147,-3.0183,-3.0211,-3.0176,-3.0154,-3.014,-3.0154,-3.0178,-3.0219,-3.0266,-3.028,-3.0292,-3.0311,-3.0343,-3.0361,-3.0398,-3.0404,-3.0385,-3.0396,-3.04,-3.0411,-3.9795,-3.9476,-3.7903,-3.7103,-3.696,-3.6242,-3.5866,-3.5714,-3.5768,-3.5368,-3.4618,-3.3665,-3.3352,-3.2923,-3.1579,-3.106,-3.1648,-3.1584,-3.1071,-3.0328,-3.0266,-3.024,-3.0116,-3.0164,-3.0157,-3.0094,-3.0046,-2.9991,-2.994,-2.998,-3.0014,-3.0022,-3.008,-3.0087,-3.0095,-3.008,-3.008,-2.9928,-2.9323,-2.8493,-2.7645,-2.7079,-2.6578,-2.6173,-2.552,-2.5119,-2.4974,-2.4795,-2.4742,-2.4816,-2.4798,-2.4798,-2.4787,-2.4738,-2.4707,-2.4715,-2.4707,-2.4707,-2.4715,-2.4764,-2.4798,-2.4806,-2.4791,-2.4798,-2.4817,-2.4862,-2.4917,-2.5007,-2.5084,-2.513,-2.5316,-2.5843,-2.6602,-2.7418,-2.8145,-2.8663,-2.8954,-2.9442,-2.9864,-2.9745,-2.9679,-2.9527,-2.9117,-2.9177,-2.9309,-2.9101,-2.9347,-2.9821,-2.9861,-2.9991,-3.003,-3.0061,-3.0106,-3.015,-3.019,-3.0204,-3.0211,-3.0211,-3.0204,-3.0197,-3.0213,-3.0246,-3.0273,-3.0311,-3.0311,-3.0324,-3.0329,-3.0361,-3.0367,-3.0404,-3.0385,-3.0396,-3.0394,-3.0398,-3.0458,-3.8956,-3.8694,-3.7082,-3.6343,-3.6279,-3.6011,-3.5561,-3.5071,-3.5542,-3.5305,-3.4512,-3.3647,-3.3262,-3.285,-3.1392,-3.0708,-3.0922,-3.0791,-3.0548,-3.0266,-3.0232,-3.0185,-3.019,-3.0185,-3.0178,-3.0157,-3.0061,-3.0014,-3.003,-3.0053,-3.008,-3.0061,-3.0076,-3.0095,-3.0095,-3.0014,-2.9972,-2.9927,-2.9232,-2.8422,-2.7664,-2.7342,-2.6644,-2.5653,-2.5787,-2.5723,-2.5063,-2.4907,-2.4921,-2.5051,-2.4934,-2.4865,-2.4858,-2.4801,-2.4783,-2.4783,-2.4757,-2.4764,-2.4783,-2.4791,-2.4805,-2.4805,-2.4813,-2.4813,-2.4813,-2.4813,-2.4856,-2.4971,-2.4984,-2.503,-2.5139,-2.5311,-2.5875,-2.6571,-2.7424,-2.8142,-2.8643,-2.8977,-2.8856,-2.8419,-2.8327,-2.8194,-2.8053,-2.8286,-2.8495,-2.8677,-2.897,-2.9338,-2.9859,-3.0004,-3.0072,-3.0087,-3.0123,-3.0171,-3.0211,-3.0232,-3.0232,-3.0213,-3.0213,-3.0226,-3.0266,-3.0279,-3.0311,-3.033,-3.033,-3.0343,-3.0361,-3.0373,-3.0379,-3.0404,-3.0404,-3.0402,-3.0392,-3.0433,-3.0474,-3.8391,-3.7913,-3.6575,-3.5955,-3.5897,-3.5883,-3.5596,-3.5188,-3.5622,-3.5175,-3.4144,-3.354,-3.2907,-3.2223,-3.1115,-3.0676,-3.0613,-3.0521,-3.0439,-3.0373,-3.0292,-3.0239,-3.0211,-3.0204,-3.0178,-3.0157,-3.0091,-3.0061,-3.0095,-3.0091,-3.0091,-3.0098,-3.0113,-3.0113,-3.0098,-3.0023,-2.9931,-2.954,-2.8793,-2.7989,-2.7248,-2.6848,-2.6206,-2.5374,-2.5672,-2.5646,-2.5163,-2.5044,-2.5063,-2.5136,-2.505,-2.4981,-2.4974,-2.4895,-2.4879,-2.4867,-2.4886,-2.4879,-2.4865,-2.4879,-2.4872,-2.4891,-2.4884,-2.4891,-2.4891,-2.4891,-2.4919,-2.5024,-2.5037,-2.5057,-2.5133,-2.5145,-2.5387,-2.5825,-2.6611,-2.7435,-2.8158,-2.8377,-2.8198,-2.7811,-2.7658,-2.7449,-2.7214,-2.7492,-2.7568,-2.7949,-2.8458,-2.8908,-2.9558,-2.9911,-3.004,-3.0138,-3.0159,-3.0206,-3.0226,-3.0252,-3.0233,-3.0233,-3.0214,-3.0241,-3.028,-3.0292,-3.0324,-3.0323,-3.0336,-3.0361,-3.0379,-3.0379,-3.0404,-3.0404,-3.041,-3.0414,-3.0422,-3.0444,-3.049,-3.804,-3.723,-3.6362,-3.596,-3.5887,-3.5894,-3.5708,-3.5635,-3.5866,-3.4886,-3.3514,-3.3291,-3.2464,-3.1148,-3.0827,-3.0694,-3.0684,-3.0645,-3.0554,-3.0476,-3.0371,-3.0286,-3.0239,-3.0225,-3.0185,-3.0142,-3.0101,-3.0087,-3.0091,-3.0087,-3.0101,-3.0101,-3.013,-3.0164,-3.0071,-3.0138,-2.9646,-2.897,-2.8089,-2.7224,-2.6466,-2.572,-2.5281,-2.5185,-2.5262,-2.5262,-2.5224,-2.5184,-2.5181,-2.5193,-2.5145,-2.5111,-2.5094,-2.5044,-2.5,-2.5,-2.5006,-2.4994,-2.5,-2.5019,-2.5006,-2.5019,-2.5019,-2.5038,-2.5082,-2.5025,-2.5025,-2.5095,-2.5101,-2.5138,-2.5193,-2.5199,-2.5224,-2.5275,-2.6015,-2.6777,-2.7323,-2.7516,-2.7446,-2.735,-2.7369,-2.7153,-2.6352,-2.6879,-2.6891,-2.7,-2.7821,-2.8583,-2.9117,-2.961,-3.0096,-3.0206,-3.0207,-3.024,-3.0279,-3.0279,-3.0266,-3.026,-3.0235,-3.0222,-3.0286,-3.0318,-3.0337,-3.0349,-3.0354,-3.0385,-3.0385,-3.039,-3.039,-3.0396,-3.0414,-3.045,-3.0472,-3.0485,-3.0525,-3.7512,-3.7212,-3.6368,-3.5966,-3.5892,-3.5885,-3.5176,-3.4325,-3.5424,-3.4547,-3.2934,-3.305,-3.2655,-3.1704,-3.0972,-3.0707,-3.0691,-3.0683,-3.0626,-3.0552,-3.0486,-3.039,-3.0312,-3.0286,-3.0252,-3.0178,-3.0123,-3.0101,-3.0094,-3.0101,-3.0101,-3.0082,-3.0123,-3.0116,-3.0052,-2.9522,-2.9101,-2.8655,-2.7413,-2.667,-2.6314,-2.5598,-2.5228,-2.5216,-2.5208,-2.5208,-2.5216,-2.5198,-2.5231,-2.5266,-2.5206,-2.5165,-2.5174,-2.5115,-2.5072,-2.5097,-2.5122,-2.5153,-2.5153,-2.5151,-2.5162,-2.5157,-2.514,-2.5138,-2.5162,-2.5122,-2.5091,-2.5147,-2.5143,-2.5131,-2.518,-2.521,-2.5197,-2.5291,-2.5879,-2.6262,-2.6107,-2.6399,-2.659,-2.6004,-2.5928,-2.5788,-2.5744,-2.5782,-2.6088,-2.649,-2.7305,-2.8243,-2.8606,-2.9346,-2.9832,-3.0145,-3.0235,-3.0279,-3.0305,-3.0305,-3.0299,-3.0305,-3.0253,-3.0196,-3.0272,-3.0336,-3.0361,-3.0398,-3.0396,-3.0408,-3.0402,-3.0402,-3.0389,-3.0419,-3.0442,-3.0483,-3.0485,-3.051,-3.0545,-3.7087,-3.6728,-3.6212,-3.5988,-3.5934,-3.5924,-3.5139,-3.4255,-3.4831,-3.4169,-3.2555,-3.2564,-3.2322,-3.1524,-3.097,-3.0728,-3.07,-3.0695,-3.0664,-3.0634,-3.0572,-3.0441,-3.0336,-3.0311,-3.0286,-3.0233,-3.0166,-3.0152,-3.0145,-3.0157,-3.015,-3.0138,-3.013,-3.0123,-3.0052,-2.9315,-2.8679,-2.8202,-2.7084,-2.6307,-2.588,-2.5457,-2.5252,-2.5203,-2.5214,-2.5212,-2.5223,-2.5231,-2.5276,-2.5297,-2.5253,-2.5248,-2.5259,-2.5228,-2.5192,-2.5214,-2.5268,-2.5287,-2.5287,-2.5278,-2.5278,-2.5243,-2.5252,-2.5233,-2.5233,-2.5192,-2.5206,-2.5239,-2.5198,-2.5187,-2.5201,-2.5206,-2.5217,-2.5278,-2.568,-2.5781,-2.5231,-2.5661,-2.5686,-2.5346,-2.5212,-2.5212,-2.5212,-2.5212,-2.5436,-2.5935,-2.6655,-2.7301,-2.7807,-2.8726,-2.9352,-2.9473,-2.9454,-2.9288,-2.9248,-2.926,-2.9323,-2.9437,-2.9563,-2.964,-3.0165,-3.0273,-3.0337,-3.0342,-3.0386,-3.0431,-3.0431,-3.0436,-3.0447,-3.0458,-3.0479,-3.0514,-3.054,-3.055,-3.0564,-3.6723,-3.6014,-3.6019,-3.6009,-3.5984,-3.5924,-3.539,-3.4706,-3.4817,-3.3843,-3.2443,-3.2209,-3.1868,-3.0806,-3.0823,-3.0759,-3.0722,-3.0704,-3.0704,-3.0676,-3.0614,-3.0511,-3.0381,-3.0339,-3.0348,-3.0305,-3.0247,-3.0234,-3.0227,-3.0219,-3.0199,-3.0142,-3.0103,-3.0006,-2.9648,-2.9052,-2.832,-2.7561,-2.6693,-2.5926,-2.5461,-2.5256,-2.5212,-2.5201,-2.5206,-2.5231,-2.5276,-2.5292,-2.5307,-2.5298,-2.5293,-2.5322,-2.5384,-2.5327,-2.5337,-2.5364,-2.5379,-2.5374,-2.5403,-2.5403,-2.5384,-2.5341,-2.5322,-2.5308,-2.5317,-2.5317,-2.5327,-2.5308,-2.5308,-2.5269,-2.5238,-2.5228,-2.5262,-2.5316,-2.5355,-2.5287,-2.5233,-2.5203,-2.5222,-2.5222,-2.5217,-2.5222,-2.5222,-2.5203,-2.5241,-2.5564,-2.6252,-2.6828,-2.7284,-2.7928,-2.8286,-2.831,-2.8201,-2.8033,-2.8035,-2.8076,-2.8177,-2.8284,-2.8448,-2.8737,-2.9783,-3.0059,-3.0204,-3.0262,-3.0265,-3.0362,-3.0469,-3.0474,-3.0485,-3.0514,-3.053,-3.055,-3.0569,-3.0583,-3.0593,-3.6169,-3.6011,-3.6008,-3.6016,-3.5997,-3.5964,-3.5466,-3.4735,-3.531,-3.4135,-3.2638,-3.2774,-3.2146,-3.0796,-3.0789,-3.0784,-3.0756,-3.073,-3.0701,-3.0707,-3.07,-3.0621,-3.0496,-3.039,-3.0413,-3.0384,-3.0359,-3.0355,-3.0343,-3.0305,-3.0273,-3.0215,-2.966,-2.9251,-2.9117,-2.7956,-2.6999,-2.6636,-2.5943,-2.5499,-2.5302,-2.5206,-2.5201,-2.5201,-2.5206,-2.5233,-2.5288,-2.5298,-2.5322,-2.5351,-2.5337,-2.5341,-2.5393,-2.5384,-2.5388,-2.5391,-2.5408,-2.5408,-2.5393,-2.5452,-2.5488,-2.546,-2.5457,-2.5448,-2.5456,-2.5453,-2.5433,-2.5393,-2.5372,-2.535,-2.5303,-2.5331,-2.5355,-2.537,-2.5384,-2.537,-2.5346,-2.5298,-2.5274,-2.5293,-2.5274,-2.5274,-2.5269,-2.5274,-2.5312,-2.5408,-2.5817,-2.6442,-2.6837,-2.7189,-2.7271,-2.7295,-2.7339,-2.7248,-2.7263,-2.7268,-2.7277,-2.7286,-2.7388,-2.7556,-2.8579,-2.9448,-2.9429,-2.9728,-3.0118,-3.0258,-3.0486,-3.051,-3.0501,-3.055,-3.0583,-3.0583,-3.0597,-3.0612,-3.061,-3.6016,-3.6015,-3.6014,-3.6007,-3.5992,-3.596,-3.5477,-3.4779,-3.4669,-3.3748,-3.2365,-3.2245,-3.1639,-3.0818,-3.0791,-3.0789,-3.0784,-3.0742,-3.0711,-3.0703,-3.0676,-3.0455,-3.0056,-3.0048,-3.0087,-3.0351,-3.0449,-3.0447,-3.0436,-3.0369,-3.0352,-3.0263,-2.9459,-2.9121,-2.8789,-2.7363,-2.6686,-2.6447,-2.5739,-2.5283,-2.5252,-2.5243,-2.5259,-2.5274,-2.5293,-2.5313,-2.5341,-2.5346,-2.535,-2.5387,-2.5378,-2.5378,-2.5451,-2.5427,-2.544,-2.5449,-2.5445,-2.5437,-2.5453,-2.5483,-2.5513,-2.5517,-2.5506,-2.5509,-2.5512,-2.5525,-2.5518,-2.5478,-2.5464,-2.5468,-2.5402,-2.5406,-2.5445,-2.5441,-2.5437,-2.546,-2.5441,-2.5395,-2.5346,-2.5346,-2.5346,-2.5346,-2.5346,-2.5322,-2.5346,-2.5423,-2.5409,-2.5938,-2.5909,-2.6222,-2.6343,-2.6405,-2.6511,-2.6559,-2.6549,-2.6524,-2.646,-2.6425,-2.6395,-2.6485,-2.6938,-2.7785,-2.8476,-2.9105,-2.9815,-3.0342,-3.055,-3.053,-3.0482,-3.0577,-3.0595,-3.0608,-3.0621,-3.0653,-3.0657,-3.6012,-3.6015,-3.6016,-3.6014,-3.5968,-3.578,-3.5316,-3.4634,-3.3782,-3.3054,-3.2111,-3.1291,-3.121,-3.0838,-3.0791,-3.0791,-3.0767,-3.0734,-3.0704,-3.0704,-3.0425,-3.0079,-2.9613,-2.9405,-2.9574,-3.0277,-3.024,-3.0265,-3.0448,-3.0452,-3.0437,-3.0258,-2.9335,-2.8842,-2.8501,-2.7295,-2.6299,-2.616,-2.5702,-2.5375,-2.5327,-2.5332,-2.5332,-2.537,-2.5374,-2.5369,-2.5387,-2.5391,-2.5385,-2.5425,-2.5433,-2.5445,-2.5492,-2.5515,-2.5511,-2.5489,-2.5498,-2.5498,-2.5492,-2.5522,-2.5528,-2.5525,-2.5525,-2.5511,-2.5514,-2.5549,-2.5551,-2.5546,-2.5537,-2.5556,-2.5515,-2.5493,-2.5509,-2.5506,-2.5525,-2.5522,-2.5511,-2.548,-2.5452,-2.5395,-2.5382,-2.5373,-2.5382,-2.5382,-2.541,-2.5415,-2.5402,-2.5397,-2.5406,-2.5458,-2.5717,-2.5826,-2.5974,-2.6056,-2.6068,-2.6079,-2.5994,-2.5948,-2.5774,-2.5929,-2.6036,-2.685,-2.7892,-2.8887,-2.958,-2.9948,-3.0204,-3.015,-3.0197,-3.0451,-3.0622,-3.0638,-3.0676,-3.069,-3.0691,-3.6016,-3.6008,-3.6009,-3.6014,-3.5878,-3.5211,-3.4812,-3.4565,-3.3713,-3.2896,-3.2133,-3.1917,-3.1369,-3.0974,-3.0791,-3.0781,-3.0734,-3.0706,-3.07,-3.0552,-3.0098,-2.9534,-2.931,-2.8659,-2.8842,-2.9418,-2.9528,-2.9721,-3.0352,-3.0572,-3.0315,-3.0147,-2.9007,-2.8268,-2.7819,-2.6601,-2.5807,-2.5766,-2.5526,-2.5416,-2.5378,-2.5387,-2.5391,-2.54,-2.5404,-2.5408,-2.5417,-2.5417,-2.5425,-2.5488,-2.5483,-2.5478,-2.5501,-2.5529,-2.5517,-2.5515,-2.5531,-2.5518,-2.5522,-2.5559,-2.5582,-2.5587,-2.5568,-2.5576,-2.5571,-2.5581,-2.5588,-2.5588,-2.5588,-2.5591,-2.5578,-2.5576,-2.5587,-2.5577,-2.5587,-2.5582,-2.5576,-2.5564,-2.5511,-2.5453,-2.5418,-2.5412,-2.5433,-2.5445,-2.5468,-2.5476,-2.5472,-2.5464,-2.5464,-2.548,-2.5569,-2.5584,-2.5559,-2.5598,-2.5617,-2.5665,-2.5642,-2.5679,-2.5689,-2.5981,-2.6181,-2.6573,-2.7365,-2.7951,-2.857,-2.8958,-2.9214,-2.9536,-2.9943,-3.0236,-3.0445,-3.0646,-3.0701,-3.0733,-3.0716,-3.5974,-3.5949,-3.5524,-3.532,-3.5173,-3.4394,-3.404,-3.3893,-3.3119,-3.2498,-3.2071,-3.1648,-3.1232,-3.0877,-3.0789,-3.0756,-3.0709,-3.0731,-3.0728,-3.0528,-2.988,-2.9157,-2.8796,-2.7951,-2.7832,-2.8021,-2.8133,-2.8822,-2.9852,-2.9488,-2.9675,-2.9679,-2.8655,-2.8066,-2.7837,-2.6893,-2.5921,-2.5615,-2.5449,-2.5437,-2.5441,-2.5453,-2.5441,-2.5456,-2.5479,-2.5476,-2.5453,-2.5468,-2.5468,-2.5495,-2.5543,-2.5548,-2.5557,-2.5541,-2.5541,-2.5553,-2.5549,-2.5557,-2.5557,-2.5593,-2.5612,-2.5612,-2.5612,-2.56,-2.5615,-2.5622,-2.5652,-2.5634,-2.5656,-2.5662,-2.5642,-2.5644,-2.566,-2.5656,-2.5648,-2.5639,-2.5634,-2.5608,-2.5565,-2.5511,-2.5509,-2.5518,-2.5515,-2.5518,-2.5531,-2.5527,-2.5511,-2.5508,-2.5527,-2.5522,-2.5538,-2.5544,-2.5537,-2.5546,-2.5546,-2.5537,-2.5547,-2.5537,-2.5585,-2.5871,-2.6004,-2.6262,-2.6255,-2.6456,-2.7073,-2.7974,-2.8618,-2.9081,-2.956,-3.0016,-3.0339,-3.0561,-3.0703,-3.0747,-3.0757,-3.568,-3.5654,-3.4804,-3.4446,-3.4303,-3.351,-3.3144,-3.2945,-3.2215,-3.1835,-3.1742,-3.1161,-3.0837,-3.0793,-3.0784,-3.0772,-3.0717,-3.0789,-3.0767,-3.0578,-2.9891,-2.9055,-2.8159,-2.7398,-2.7023,-2.7159,-2.6806,-2.757,-2.884,-2.8701,-2.8713,-2.8863,-2.8423,-2.7998,-2.7668,-2.7013,-2.6311,-2.5786,-2.5522,-2.5515,-2.5518,-2.5531,-2.552,-2.5531,-2.5579,-2.5564,-2.5531,-2.5528,-2.5531,-2.5554,-2.557,-2.5593,-2.5604,-2.5598,-2.5625,-2.5627,-2.5612,-2.5612,-2.5612,-2.5634,-2.5634,-2.561,-2.5602,-2.5607,-2.5628,-2.5654,-2.5687,-2.5694,-2.5696,-2.5699,-2.5686,-2.5689,-2.5689,-2.5689,-2.5687,-2.5686,-2.5696,-2.5669,-2.5627,-2.5607,-2.5608,-2.5595,-2.5568,-2.5571,-2.5565,-2.5574,-2.5557,-2.554,-2.556,-2.5565,-2.5573,-2.5595,-2.5603,-2.5617,-2.56,-2.5595,-2.5595,-2.5619,-2.5583,-2.5723,-2.5718,-2.5749,-2.5758,-2.5881,-2.6362,-2.726,-2.7937,-2.8474,-2.8712,-2.9167,-2.9994,-3.0373,-3.0303,-3.0581,-3.0822,-3.4796,-3.4776,-3.393,-3.355,-3.3428,-3.2632,-3.2236,-3.2128,-3.1387,-3.0956,-3.1065,-3.0881,-3.0795,-3.0789,-3.0798,-3.0786,-3.0759,-3.0791,-3.0728,-3.0499,-2.9832,-2.9095,-2.8201,-2.7301,-2.6948,-2.6787,-2.6167,-2.6814,-2.7801,-2.8026,-2.815,-2.8228,-2.815,-2.7841,-2.7218,-2.6973,-2.6393,-2.5724,-2.5543,-2.5537,-2.5577,-2.5585,-2.5587,-2.5582,-2.5585,-2.5604,-2.5596,-2.5568,-2.5578,-2.5588,-2.56,-2.5615,-2.5607,-2.5663,-2.569,-2.5683,-2.565,-2.5604,-2.5609,-2.5652,-2.5671,-2.5628,-2.5654,-2.5634,-2.5638,-2.5668,-2.5699,-2.5707,-2.5689,-2.5693,-2.5698,-2.5696,-2.5694,-2.5696,-2.5697,-2.5694,-2.569,-2.5697,-2.5655,-2.5655,-2.5663,-2.5629,-2.5619,-2.5602,-2.561,-2.56,-2.5609,-2.5593,-2.5593,-2.5615,-2.5625,-2.563,-2.5632,-2.566,-2.5663,-2.5641,-2.5641,-2.5663,-2.5645,-2.5626,-2.5634,-2.5664,-2.567,-2.5867,-2.6234,-2.6482,-2.7018,-2.7443,-2.7716,-2.8324,-2.9109,-2.9508,-2.9712,-3.0125,-3.0495,-3.3437,-3.3821,-3.3013,-3.2652,-3.2547,-3.1716,-3.1362,-3.1278,-3.0971,-3.08,-3.08,-3.0797,-3.079,-3.0762,-3.0786,-3.0501,-3.0277,-3.0529,-3.0481,-3.0104,-2.9615,-2.9247,-2.8702,-2.7636,-2.6956,-2.6632,-2.6165,-2.5927,-2.6695,-2.6848,-2.6913,-2.7444,-2.7483,-2.7307,-2.6868,-2.6848,-2.6379,-2.5875,-2.5619,-2.5641,-2.5656,-2.5668,-2.5668,-2.566,-2.5646,-2.5623,-2.5613,-2.5638,-2.5625,-2.5609,-2.5597,-2.5629,-2.5655,-2.5683,-2.5689,-2.5693,-2.5667,-2.5654,-2.5658,-2.5691,-2.5687,-2.5666,-2.5671,-2.5678,-2.5681,-2.565,-2.5658,-2.5704,-2.5705,-2.5687,-2.5692,-2.5692,-2.5692,-2.5692,-2.5688,-2.5706,-2.5707,-2.5691,-2.5694,-2.5694,-2.5695,-2.5668,-2.5661,-2.5659,-2.5653,-2.565,-2.5636,-2.5638,-2.5634,-2.565,-2.5658,-2.5648,-2.5668,-2.5689,-2.569,-2.567,-2.5669,-2.569,-2.5693,-2.5674,-2.5676,-2.5699,-2.57,-2.5701,-2.5894,-2.6106,-2.6298,-2.6686,-2.7211,-2.7721,-2.8232,-2.8664,-2.9056,-2.8997,-2.9427,-3.2052,-3.2565,-3.1994,-3.1753,-3.1722,-3.1057,-3.082,-3.0796,-3.0801,-3.0791,-3.0798,-3.0781,-3.0702,-3.0518,-3.0413,-3.0112,-2.957,-2.9994,-2.9749,-2.9355,-2.9139,-2.8963,-2.8342,-2.7415,-2.683,-2.6603,-2.6006,-2.5825,-2.5742,-2.5818,-2.613,-2.6595,-2.6924,-2.6749,-2.6693,-2.6751,-2.6539,-2.5765,-2.568,-2.5686,-2.569,-2.5702,-2.5701,-2.5699,-2.5682,-2.5664,-2.5651,-2.5657,-2.5657,-2.5642,-2.5628,-2.5654,-2.5698,-2.5701,-2.5702,-2.5703,-2.5683,-2.568,-2.5692,-2.5704,-2.5694,-2.5636,-2.5346,-2.514,-2.4928,-2.5146,-2.5364,-2.527,-2.562,-2.5641,-2.57,-2.5701,-2.57,-2.5699,-2.5699,-2.5698,-2.5698,-2.57,-2.5702,-2.5702,-2.5702,-2.5703,-2.5683,-2.5683,-2.5682,-2.5699,-2.568,-2.5661,-2.5677,-2.5672,-2.5675,-2.568,-2.5679,-2.5699,-2.57,-2.5701,-2.5701,-2.5702,-2.5702,-2.5703,-2.5702,-2.5702,-2.5703,-2.5703,-2.5703,-2.578,-2.5994,-2.6364,-2.6716,-2.6969,-2.7321,-2.8024,-2.8357,-2.8279,-2.8435,-3.0814,-3.0876,-3.085,-3.0876,-3.0916,-3.0823,-3.08,-3.0801,-3.0762,-3.0668,-3.0539,-3.067,-3.0193,-2.9863,-2.9765,-2.9683,-2.944,-2.8791,-2.8642,-2.851,-2.8269,-2.8094,-2.7667,-2.7243,-2.6659,-2.6068,-2.5762,-2.5722,-2.5697,-2.5683,-2.5733,-2.5839,-2.6426,-2.6285,-2.625,-2.6454,-2.6284,-2.5669,-2.5504,-2.5469,-2.5449,-2.5453,-2.5456,-2.5513,-2.5612,-2.5693,-2.5672,-2.5579,-2.5661,-2.5624,-2.5683,-2.5684,-2.5702,-2.57,-2.5699,-2.5699,-2.5524,-2.5487,-2.5468,-2.5624,-2.5662,-2.5467,-2.5038,-2.4413,-2.4082,-2.4316,-2.4472,-2.4823,-2.541,-2.5664,-2.5703,-2.5703,-2.5703,-2.5703,-2.5703,-2.5703,-2.5703,-2.5703,-2.5703,-2.5703,-2.5702,-2.5701,-2.57,-2.5701,-2.5702,-2.5703,-2.5703,-2.5684,-2.5683,-2.5682,-2.5683,-2.5683,-2.5683,-2.5703,-2.5703,-2.5703,-2.5703,-2.5703,-2.5703,-2.5703,-2.5703,-2.5703,-2.5703,-2.5703,-2.5703,-2.5703,-2.5703,-2.6016,-2.6172,-2.6094,-2.6406,-2.709,-2.7715,-2.789,-2.7988,-3.0694,-3.0694,-3.0707,-3.071,-3.0739,-3.0774,-3.0791,-3.0689,-3.0234,-2.9652,-2.9232,-2.922,-2.9095,-2.9,-2.9394,-2.9257,-2.8883,-2.9052,-2.8616,-2.8395,-2.819,-2.8046,-2.7677,-2.7153,-2.6804,-2.6374,-2.6008,-2.5697,-2.5692,-2.5698,-2.5696,-2.5845,-2.6092,-2.5956,-2.5941,-2.6004,-2.5638,-2.5153,-2.4847,-2.4711,-2.4145,-2.4109,-2.4113,-2.4095,-2.4097,-2.4431,-2.4765,-2.4883,-2.5214,-2.5505,-2.5581,-2.5559,-2.5515,-2.5529,-2.5526,-2.5487,-2.5197,-2.5022,-2.5084,-2.5309,-2.5468,-2.4921,-2.4568,-2.4214,-2.3783,-2.4621,-2.5089,-2.5362,-2.5422,-2.5677,-2.5697,-2.5696,-2.5695,-2.5697,-2.5697,-2.5696,-2.5695,-2.5675,-2.5677,-2.5674,-2.5694,-2.5694,-2.5693,-2.5692,-2.5695,-2.5698,-2.5699,-2.57,-2.5702,-2.5703,-2.5703,-2.5702,-2.5703,-2.5703,-2.5702,-2.5702,-2.5702,-2.5702,-2.5702,-2.5702,-2.5702,-2.5702,-2.5702,-2.5701,-2.57,-2.57,-2.5701,-2.5702,-2.5741,-2.584,-2.5917,-2.6131,-2.6736,-2.7339,-2.7475,-3.047,-3.0625,-3.0173,-3.0267,-3.0678,-3.0742,-3.0621,-3.0321,-2.9771,-2.8838,-2.7876,-2.8099,-2.8129,-2.8192,-2.8433,-2.8515,-2.8027,-2.7986,-2.7846,-2.7586,-2.7383,-2.7534,-2.732,-2.6951,-2.6425,-2.6444,-2.6134,-2.5706,-2.5704,-2.5689,-2.569,-2.5687,-2.5704,-2.5704,-2.5702,-2.5631,-2.5144,-2.4285,-2.4229,-2.3936,-2.3273,-2.3217,-2.3219,-2.324,-2.3261,-2.3476,-2.3886,-2.4023,-2.4235,-2.4582,-2.4773,-2.4846,-2.4879,-2.491,-2.4925,-2.4807,-2.4688,-2.4411,-2.4574,-2.4782,-2.5028,-2.459,-2.4446,-2.4227,-2.4286,-2.4789,-2.4979,-2.5159,-2.5399,-2.5637,-2.5637,-2.5655,-2.5654,-2.5636,-2.5651,-2.5648,-2.5647,-2.5647,-2.5651,-2.5653,-2.5655,-2.5658,-2.5701,-2.5698,-2.5703,-2.5688,-2.5693,-2.5694,-2.5695,-2.5698,-2.57,-2.5699,-2.5698,-2.5698,-2.5698,-2.5698,-2.5697,-2.5698,-2.5698,-2.5698,-2.5698,-2.5698,-2.5698,-2.5698,-2.5697,-2.5696,-2.5696,-2.5698,-2.57,-2.5703,-2.5779,-2.5853,-2.5985,-2.6566,-2.668,-2.9904,-3.0451,-2.8975,-2.922,-3.0468,-3.0658,-3.0208,-2.9547,-2.9318,-2.8388,-2.7127,-2.7693,-2.7683,-2.7219,-2.733,-2.7376,-2.7166,-2.6582,-2.6269,-2.6385,-2.6342,-2.6026,-2.5967,-2.5928,-2.5985,-2.5767,-2.5692,-2.5694,-2.5693,-2.5698,-2.5699,-2.5622,-2.5562,-2.5501,-2.565,-2.5658,-2.4781,-2.3493,-2.3945,-2.3553,-2.2966,-2.2772,-2.2733,-2.2695,-2.2656,-2.2753,-2.3065,-2.3122,-2.3313,-2.3598,-2.381,-2.3862,-2.3814,-2.3865,-2.3862,-2.3764,-2.4204,-2.4353,-2.4403,-2.4452,-2.4454,-2.4413,-2.4327,-2.4103,-2.3645,-2.3971,-2.4581,-2.4791,-2.5048,-2.5368,-2.5506,-2.5524,-2.5444,-2.5438,-2.5431,-2.5619,-2.5617,-2.5621,-2.563,-2.563,-2.5627,-2.5627,-2.5657,-2.5702,-2.5705,-2.5693,-2.5702,-2.5705,-2.5705,-2.5689,-2.5694,-2.5694,-2.5692,-2.5693,-2.5692,-2.5689,-2.5688,-2.5688,-2.5689,-2.5689,-2.5691,-2.5693,-2.5693,-2.5692,-2.5691,-2.5689,-2.5689,-2.5691,-2.5672,-2.5651,-2.5671,-2.5722,-2.5754,-2.5822,-2.6068,-2.9229,-2.8932,-2.8414,-2.8523,-2.9009,-2.9055,-2.8858,-2.8556,-2.8041,-2.7188,-2.6336,-2.6487,-2.6476,-2.6324,-2.6719,-2.694,-2.6886,-2.6869,-2.656,-2.6462,-2.5976,-2.5761,-2.5702,-2.5701,-2.5699,-2.5696,-2.5698,-2.57,-2.5698,-2.5604,-2.5663,-2.5625,-2.498,-2.4844,-2.4666,-2.4374,-2.3359,-2.2518,-2.2519,-2.2323,-2.1579,-2.1522,-2.1562,-2.1562,-2.1582,-2.1814,-2.2241,-2.2258,-2.2427,-2.2922,-2.321,-2.3668,-2.3834,-2.4,-2.4507,-2.4466,-2.4773,-2.4339,-2.4345,-2.4362,-2.4338,-2.4314,-2.4348,-2.4243,-2.3996,-2.4705,-2.4766,-2.4418,-2.4543,-2.455,-2.4005,-2.4479,-2.4607,-2.4791,-2.4938,-2.5417,-2.5562,-2.5595,-2.5619,-2.5628,-2.5622,-2.5607,-2.5634,-2.563,-2.5634,-2.5662,-2.5653,-2.569,-2.5694,-2.5699,-2.5705,-2.5705,-2.5704,-2.5705,-2.5705,-2.5699,-2.5698,-2.5699,-2.5698,-2.5697,-2.5699,-2.5704,-2.5682,-2.5679,-2.5679,-2.5699,-2.5676,-2.5672,-2.5623,-2.5618,-2.5634,-2.5625,-2.5665,-2.5671,-2.5722,-2.8348,-2.8039,-2.7514,-2.7487,-2.7768,-2.8067,-2.8065,-2.7645,-2.6915,-2.6199,-2.5793,-2.5711,-2.5738,-2.5915,-2.6232,-2.6547,-2.6547,-2.6531,-2.653,-2.6488,-2.6008,-2.5739,-2.5701,-2.5663,-2.5703,-2.5683,-2.5683,-2.5703,-2.5663,-2.5371,-2.5019,-2.4531,-2.4003,-2.3535,-2.3398,-2.3125,-2.2656,-2.1953,-2.1738,-2.168,-2.1015,-2.0722,-2.0703,-2.0703,-2.076,-2.0914,-2.128,-2.1508,-2.1636,-2.2362,-2.2953,-2.3529,-2.3792,-2.4211,-2.4659,-2.4501,-2.4628,-2.4406,-2.4685,-2.4788,-2.4705,-2.4316,-2.4533,-2.473,-2.4649,-2.4848,-2.4677,-2.4388,-2.4036,-2.3589,-2.3215,-2.3724,-2.3902,-2.4087,-2.4538,-2.4999,-2.549,-2.5514,-2.5535,-2.5562,-2.5496,-2.5507,-2.552,-2.5573,-2.5565,-2.5581,-2.5612,-2.5638,-2.5678,-2.5687,-2.5693,-2.5693,-2.5693,-2.5694,-2.5693,-2.5687,-2.5705,-2.5687,-2.5683,-2.5676,-2.5705,-2.569,-2.5684,-2.5658,-2.566,-2.5658,-2.5652,-2.5623,-2.558,-2.5561,-2.5571,-2.5571,-2.5567,-2.5586,-2.5589,-2.7286,-2.7734,-2.6275,-2.6154,-2.691,-2.762,-2.7539,-2.6807,-2.6059,-2.5731,-2.5694,-2.5692,-2.5698,-2.568,-2.5704,-2.5724,-2.5646,-2.5646,-2.5585,-2.5563,-2.5274,-2.5335,-2.5377,-2.5419,-2.5404,-2.5543,-2.5622,-2.5583,-2.5546,-2.4745,-2.4004,-2.3262,-2.2676,-2.2303,-2.2284,-2.2245,-2.1873,-2.1308,-2.1269,-2.1172,-2.0703,-2.0605,-2.0604,-2.0602,-2.0639,-2.0654,-2.0805,-2.0818,-2.0766,-2.1083,-2.15,-2.1819,-2.2196,-2.2647,-2.2914,-2.3389,-2.4108,-2.4723,-2.516,-2.5259,-2.4846,-2.44,-2.4746,-2.5211,-2.5017,-2.4387,-2.3996,-2.3644,-2.325,-2.2995,-2.2814,-2.301,-2.3186,-2.3578,-2.4061,-2.4632,-2.5241,-2.5425,-2.5422,-2.5376,-2.5263,-2.5223,-2.5192,-2.5231,-2.5337,-2.5518,-2.5537,-2.5585,-2.5617,-2.5671,-2.5676,-2.5697,-2.5699,-2.5699,-2.5676,-2.5632,-2.5662,-2.5658,-2.5634,-2.5628,-2.566,-2.5664,-2.5632,-2.5607,-2.5613,-2.5611,-2.5619,-2.5593,-2.5534,-2.5515,-2.5512,-2.5495,-2.5498,-2.5527,-2.5573,-2.6604,-2.6272,-2.5792,-2.5743,-2.5993,-2.6257,-2.6173,-2.5944,-2.5744,-2.5692,-2.5694,-2.5687,-2.5595,-2.5654,-2.5088,-2.5187,-2.4991,-2.4656,-2.4457,-2.4378,-2.4337,-2.401,-2.411,-2.4483,-2.4704,-2.4982,-2.518,-2.52,-2.4656,-2.3898,-2.3042,-2.2227,-2.1906,-2.1536,-2.1283,-2.1224,-2.0953,-2.0838,-2.0975,-2.0838,-2.0681,-2.0582,-2.0579,-2.0595,-2.059,-2.0563,-2.0533,-2.0522,-2.0503,-2.0588,-2.1272,-2.1856,-2.2636,-2.3382,-2.3999,-2.4673,-2.505,-2.5255,-2.5314,-2.4919,-2.4428,-2.4015,-2.3914,-2.3656,-2.3582,-2.3404,-2.3004,-2.2749,-2.2351,-2.2016,-2.1819,-2.1921,-2.2343,-2.2917,-2.3428,-2.4026,-2.4642,-2.5075,-2.5074,-2.5078,-2.4964,-2.4749,-2.4733,-2.4857,-2.4984,-2.5278,-2.5448,-2.546,-2.5501,-2.5547,-2.5455,-2.5438,-2.5426,-2.5348,-2.55,-2.5492,-2.5574,-2.56,-2.5576,-2.5568,-2.5585,-2.5587,-2.5582,-2.556,-2.5563,-2.5585,-2.5601,-2.5564,-2.5482,-2.5478,-2.5475,-2.5449,-2.543,-2.5464,-2.5491,-2.6016,-2.5628,-2.5598,-2.5613,-2.5615,-2.5612,-2.56,-2.5604,-2.5664,-2.5692,-2.5673,-2.5314,-2.518,-2.5005,-2.434,-2.4123,-2.4411,-2.3785,-2.3506,-2.3598,-2.3283,-2.3304,-2.3403,-2.3559,-2.3816,-2.4136,-2.4262,-2.423,-2.3743,-2.3006,-2.2133,-2.1353,-2.1327,-2.1054,-2.0781,-2.0702,-2.0645,-2.0575,-2.0579,-2.056,-2.0557,-2.0553,-2.0548,-2.0556,-2.0549,-2.0495,-2.046,-2.0465,-2.0412,-2.0493,-2.1193,-2.2023,-2.2936,-2.3906,-2.4673,-2.5228,-2.5253,-2.5278,-2.5206,-2.4589,-2.4056,-2.3445,-2.278,-2.2238,-2.2146,-2.2072,-2.2006,-2.1863,-2.1381,-2.0981,-2.0823,-2.0812,-2.1497,-2.2179,-2.2765,-2.3351,-2.3941,-2.4552,-2.4667,-2.4687,-2.4522,-2.4251,-2.4244,-2.4403,-2.4731,-2.5166,-2.5266,-2.5095,-2.5197,-2.5318,-2.5082,-2.4904,-2.4902,-2.4895,-2.5043,-2.5073,-2.5001,-2.5099,-2.544,-2.5428,-2.5467,-2.5506,-2.5515,-2.5506,-2.5492,-2.5515,-2.5534,-2.5498,-2.5441,-2.5437,-2.543,-2.5425,-2.5412,-2.5433,-2.5437,-2.554,-2.5596,-2.5612,-2.5596,-2.5603,-2.5605,-2.5547,-2.5513,-2.5481,-2.5572,-2.5379,-2.4664,-2.4292,-2.4133,-2.3431,-2.3173,-2.3226,-2.287,-2.2615,-2.2937,-2.2586,-2.2489,-2.2561,-2.2944,-2.3009,-2.3015,-2.3157,-2.338,-2.2846,-2.2129,-2.1313,-2.0533,-2.0603,-2.0579,-2.054,-2.048,-2.0477,-2.0472,-2.0493,-2.0521,-2.0507,-2.0503,-2.05,-2.0492,-2.0456,-2.0383,-2.0388,-2.0385,-2.0355,-2.0595,-2.0994,-2.1787,-2.2962,-2.4255,-2.499,-2.5243,-2.5247,-2.5039,-2.4741,-2.4119,-2.3328,-2.2614,-2.1794,-2.1162,-2.1011,-2.115,-2.1193,-2.1151,-2.0757,-2.0548,-2.0425,-2.0444,-2.0921,-2.1507,-2.2072,-2.2638,-2.3218,-2.3616,-2.3707,-2.3655,-2.3399,-2.3254,-2.3668,-2.3851,-2.4394,-2.4961,-2.5005,-2.4736,-2.4619,-2.4764,-2.4673,-2.4319,-2.4178,-2.4136,-2.4183,-2.4211,-2.4185,-2.4403,-2.4907,-2.5107,-2.4988,-2.5166,-2.5448,-2.5453,-2.5453,-2.5418,-2.541,-2.5401,-2.5401,-2.5401,-2.5404,-2.5397,-2.5393,-2.5378,-2.5387,-2.5522,-2.5522,-2.5596,-2.5595,-2.5593,-2.5604,-2.5176,-2.463,-2.4615,-2.4607,-2.4473,-2.3787,-2.3379,-2.327,-2.251,-2.2331,-2.268,-2.1938,-2.1664,-2.1699,-2.1601,-2.1519,-2.136,-2.1895,-2.2068,-2.2338,-2.2496,-2.2537,-2.1999,-2.129,-2.0791,-2.055,-2.0508,-2.049,-2.0443,-2.042,-2.0409,-2.0403,-2.0402,-2.0426,-2.0415,-2.0407,-2.0417,-2.0417,-2.0385,-2.036,-2.034,-2.0321,-2.0282,-2.0358,-2.0404,-2.1261,-2.2574,-2.4222,-2.5008,-2.5149,-2.5066,-2.4724,-2.4154,-2.3429,-2.2522,-2.1706,-2.0944,-2.045,-2.0232,-2.0383,-2.0463,-2.0407,-2.0336,-2.0184,-2.0112,-2.0193,-2.0384,-2.0905,-2.1349,-2.1909,-2.2482,-2.2612,-2.2728,-2.2633,-2.236,-2.2609,-2.3074,-2.3539,-2.4061,-2.4277,-2.4293,-2.4111,-2.376,-2.3744,-2.3944,-2.3659,-2.3344,-2.3282,-2.3331,-2.3476,-2.3547,-2.379,-2.4266,-2.4408,-2.4539,-2.4992,-2.5406,-2.5408,-2.5387,-2.5378,-2.5373,-2.5397,-2.5397,-2.5364,-2.5308,-2.5278,-2.5292,-2.5278,-2.5298,-2.5484,-2.5501,-2.5528,-2.534,-2.5066,-2.5007,-2.4538,-2.3764,-2.3322,-2.3152,-2.3101,-2.2676,-2.2483,-2.2388,-2.1608,-2.1433,-2.1824,-2.1005,-2.0947,-2.0927,-2.0865,-2.0683,-2.0757,-2.0983,-2.1075,-2.1345,-2.1575,-2.1495,-2.1155,-2.0859,-2.0526,-2.0468,-2.0451,-2.0444,-2.0388,-2.0377,-2.0374,-2.035,-2.0324,-2.0311,-2.0326,-2.0326,-2.0356,-2.0366,-2.0318,-2.0294,-2.0272,-2.025,-2.0215,-2.037,-2.0573,-2.1321,-2.2528,-2.3731,-2.455,-2.4759,-2.4651,-2.4227,-2.3506,-2.264,-2.17,-2.0995,-2.0365,-1.9977,-1.99,-2.0037,-2.0138,-2.0114,-2.012,-2.001,-1.9995,-2.0033,-2.0449,-2.0942,-2.0921,-2.1103,-2.1656,-2.2049,-2.2578,-2.3183,-2.2964,-2.2857,-2.3258,-2.349,-2.3801,-2.3353,-2.3388,-2.311,-2.2823,-2.2666,-2.2868,-2.2941,-2.2597,-2.2407,-2.2396,-2.2686,-2.3033,-2.3325,-2.3642,-2.4417,-2.4912,-2.5143,-2.537,-2.5341,-2.5332,-2.5346,-2.5346,-2.5322,-2.5283,-2.5238,-2.519,-2.514,-2.5164,-2.517,-2.5181,-2.5368,-2.5367,-2.546,-2.4965,-2.4233,-2.4277,-2.3745,-2.2832,-2.2067,-2.1681,-2.1619,-2.164,-2.1623,-2.1347,-2.0914,-2.0662,-2.0526,-2.0603,-2.0584,-2.0582,-2.0573,-2.0493,-2.0466,-2.049,-2.0567,-2.0589,-2.0728,-2.0701,-2.0538,-2.0432,-2.0443,-2.0405,-2.0387,-2.0392,-2.0366,-2.0324,-2.0295,-2.0289,-2.0254,-2.0226,-2.0227,-2.0258,-2.0277,-2.0258,-2.0226,-2.0199,-2.0174,-2.0152,-2.0135,-2.0418,-2.078,-2.1428,-2.2252,-2.3221,-2.3726,-2.4085,-2.3987,-2.3519,-2.2888,-2.1871,-2.1217,-2.064,-2.007,-1.9788,-1.9713,-1.9732,-1.983,-1.9841,-1.9851,-1.9862,-1.9845,-1.9947,-2.0376,-2.0646,-2.0462,-2.0499,-2.106,-2.1551,-2.2332,-2.3208,-2.3089,-2.2904,-2.3029,-2.3261,-2.3159,-2.2694,-2.2337,-2.1945,-2.1698,-2.1634,-2.1703,-2.1819,-2.1707,-2.1571,-2.178,-2.1797,-2.2194,-2.2725,-2.3164,-2.4337,-2.5221,-2.5244,-2.5259,-2.5253,-2.5248,-2.5241,-2.5215,-2.5168,-2.514,-2.5103,-2.5075,-2.5032,-2.5038,-2.5063,-2.5051,-2.502,-2.4511,-2.5177,-2.4645,-2.3476,-2.3948,-2.3418,-2.2071,-2.1762,-2.1346,-2.0849,-2.0721,-2.0745,-2.0767,-2.0648,-2.0512,-2.0514,-2.0514,-2.0512,-2.051,-2.0505,-2.0464,-2.0437,-2.0404,-2.0396,-2.0394,-2.041,-2.0402,-2.0374,-2.0387,-2.0375,-2.0321,-2.0321,-2.0313,-2.0319,-2.0296,-2.0281,-2.0229,-2.018,-2.0143,-2.0128,-2.015,-2.0203,-2.0214,-2.0209,-2.0173,-2.0135,-2.0122,-2.0122,-2.0336,-2.0766,-2.1223,-2.189,-2.264,-2.3116,-2.3314,-2.3197,-2.259,-2.1857,-2.1187,-2.0622,-2.0082,-1.966,-1.9648,-1.9614,-1.9613,-1.9635,-1.9609,-1.9617,-1.9656,-1.9668,-1.9655,-1.994,-2.0006,-1.9926,-2.0433,-2.0989,-2.1195,-2.1616,-2.1937,-2.1951,-2.1858,-2.1859,-2.2161,-2.2502,-2.2161,-2.2098,-2.1688,-2.1098,-2.0853,-2.0662,-2.084,-2.0994,-2.1618,-2.2144,-2.1137,-2.1284,-2.1875,-2.2638,-2.3755,-2.4582,-2.5083,-2.5135,-2.5135,-2.509,-2.5068,-2.5037,-2.5031,-2.5032,-2.5013,-2.4954,-2.4933,-2.4946,-2.4946,-2.4959]},{"header":{"parameterUnit":"m.s-1","parameterCategory":1,"la1":31.0,"la2":29.5877,"lo1":-88.7671,"lo2":-86.6584,"dy":0.0162,"dx":0.0185,"nx":115,"ny":88,"refTime":"2023-07-25T18:00:00:Z","depth":0,"parameterNumber":3,"parameterNumberName":"V-component_of_WINDS"},"data":[0.0,0.0,0.0,0.0,0.0,0.0,0.0,0.0,0.0,0.0,0.0,0.0,0.0,0.0,0.0,0.0,0.0,0.0,0.0,0.0,0.0,0.0,0.0,0.0,0.0,0.0,0.0,0.0,0.0,0.0,0.0,0.0,0.0,0.0,0.0,0.0,0.0,0.0,0.0,0.0,0.0,0.0,0.0,0.0,0.0,0.0,0.0,0.0,0.0,0.0,0.0,0.0,0.0,0.0,0.0,0.0,0.0,0.0,0.0,0.0,0.0,0.0,0.0,0.0,0.0,0.0,0.0,0.0,0.0,0.0,0.0,0.0,0.0,0.0,0.0,0.0,0.0,0.0,0.0,0.0,0.0,0.0,0.0,0.0,0.0,0.0,0.0,0.0,0.0,0.0,0.0,0.0,0.0,0.0,0.0,0.0,0.0,0.0,0.0,0.0,0.0,0.0,0.0,0.0,0.0,0.0,0.0,0.0,0.0,0.0,0.0,0.0,0.0,0.0,0.0,0.0,0.0,0.0,0.0,0.0,0.0,0.0,0.0,0.0,0.0,0.0,0.0,0.0,0.0,0.0,0.0,0.0,0.0,0.0,0.0,0.0,0.0,0.0,0.0,0.0,0.0,0.0,0.0,0.0,0.0,0.0,0.0,0.0,0.0,0.0,0.0,0.0,0.0,0.0,0.0,0.0,0.0,0.0,0.0,0.0,0.0,0.0,0.0,0.0,0.0,0.0,0.0,0.0,0.0,0.0,0.0,0.0,0.0,0.0,0.0,0.0,0.0,0.0,0.0,0.0,0.0,0.0,0.0,0.0,0.0,0.0,0.0,0.0,0.0,0.0,0.0,0.0,0.0,0.0,0.0,0.0,0.0,0.0,0.0,0.0,0.0,0.0,0.0,0.0,0.0,0.0,0.0,0.0,0.0,0.0,0.0,0.0,0.0,0.0,0.0,0.0,0.0,0.0,0.0,0.0,0.0,0.0,0.0,0.0,0.0,0.0,0.0,0.0,0.0,0.0,0.0,0.0,0.0,0.0,0.0,0.0,0.0,0.0,0.0,0.0,0.0,0.0,0.0,0.0,0.0,0.0,0.0,0.0,0.0,0.0,0.0,0.0,0.0,0.0,0.0,0.0,0.0,0.0,0.0,0.0,0.0,0.0,0.0,0.0,0.0,0.0,0.0,0.0,0.0,0.0,0.0,0.0,0.0,0.0,0.0,0.0,0.0,0.0,0.0,0.0,0.0,0.0,0.0,0.0,0.0,0.0,0.0,0.0,0.0,0.0,0.0,0.0,0.0,0.0,0.0,0.0,0.0,0.0,0.0,0.0,0.0,0.0,0.0,0.0,0.0,0.0,0.0,0.0,0.0,0.0,0.0,0.0,0.0,0.0,0.0,0.0,0.0,0.0,0.0,0.0,0.0,0.0,0.0,0.0,0.0,0.0,0.0,0.0,0.0,0.0,0.0,0.0,0.0,0.0,0.0,0.0,0.0,0.0,0.0,0.0,0.0,0.0,0.0,0.0,0.0,0.0,0.0,0.0,0.0,0.0,0.0,0.0,0.0,0.0,0.0,0.0,0.0,0.0,0.0,0.0,0.0,0.0,0.0,0.0,0.0,0.0,0.0,0.0,0.0,0.0,0.0,0.0,0.0,0.0,0.0,0.0,0.0,0.0,0.0,0.0,0.0,0.0,0.0,0.0,0.0,0.0,0.0,0.0,0.0,0.0,0.0,0.0,0.0,0.0,0.0,0.0,0.0,0.0,0.0,0.0,0.0,0.0,0.0,0.0,0.0,0.0,0.0,0.0,0.0,0.0,0.0,0.0,0.0,0.0,0.0,0.0,0.0,0.0,0.0,0.0,0.0,0.0,0.0,0.0,0.0,0.0,0.0,0.0,0.0,0.0,0.0,0.0,0.0,0.0,0.0,0.0,0.0,0.0,0.0,0.0,0.0,0.0,0.0,0.0,0.0,0.0,0.0,0.0,0.0,0.0,0.0,0.0,0.0,0.0,0.0,0.0,0.0,0.0,0.0,0.0,0.0,0.0,0.0,0.0,0.0,0.0,0.0,0.0,0.0,0.0,0.0,0.0,0.0,0.0,0.0,0.0,0.0,0.0,0.0,0.0,0.0,0.0,0.0,0.0,0.0,0.0,0.0,0.0,0.0,0.0,0.0,0.0,0.0,0.0,0.0,0.0,0.0,0.0,0.0,0.0,0.0,0.0,0.0,0.0,0.0,0.0,0.0,0.0,0.0,0.0,0.0,0.0,0.0,0.0,0.0,0.0,0.0,0.0,0.0,0.0,0.0,0.0,0.0,0.0,0.0,0.0,0.0,0.0,0.0,0.0,0.0,0.0,0.0,0.0,0.0,0.0,0.0,0.0,0.0,0.0,0.0,0.0,0.0,0.0,0.0,0.0,0.0,0.0,0.0,0.0,0.0,0.0,0.0,0.0,0.0,0.0,0.0,0.0,0.0,0.0,0.0,0.0,0.0,0.0,0.0,0.0,0.0,0.0,0.0,0.0,0.0,0.0,0.0,0.0,0.0,0.0,0.0,0.0,0.0,0.0,0.0,0.0,0.0,0.0,0.0,0.0,0.0,0.0,0.0,0.0,0.0,0.0,0.0,0.0,0.0,0.0,0.0,0.0,0.0,0.0,0.0,0.0,0.0,0.0,0.0,0.0,0.0,0.0,0.0,0.0,0.0,0.0,0.0,0.0,0.0,0.0,0.0,0.0,0.0,0.0,0.0,0.0,0.0,0.0,0.0,0.0,0.0,0.0,0.0,0.0,0.0,0.0,0.0,0.0,0.0,0.0,0.0,0.0,0.0,0.0,0.0,0.0,0.0,0.0,0.0,0.0,0.0,0.0,0.0,0.0,0.0,0.0,0.0,0.0,0.0,0.0,0.0,0.0,0.0,0.0,0.0,0.0,0.0,0.0,0.0,0.0,0.0,0.0,0.0,0.0,0.0,0.0,0.0,0.0,0.0,0.0,0.0,0.0,0.0,0.0,0.0,0.0,0.0,0.0,0.0,0.0,0.0,0.0,0.0,0.0,0.0,0.0,0.0,0.0,0.0,0.0,0.0,0.0,0.0,0.0,0.0,0.0,0.0,0.0,0.0,0.0,0.0,0.0,0.0,0.0,0.0,0.0,0.0,0.0,0.0,0.0,0.0,0.0,0.0,0.0,0.0,0.0,0.0,0.0,0.0,0.0,0.0,0.0,0.0,0.0,0.0,0.0,0.0,0.0,0.0,0.0,0.0,0.0,0.0,0.0,0.0,0.0,0.0,0.0,0.0,0.0,0.0,0.0,0.0,0.0,0.0,0.0,0.0,0.0,0.0,0.0,0.0,0.0,0.0,0.0,0.0,0.0,0.0,0.0,0.0,0.0,0.0,0.0,0.0,0.0,0.0,0.0,0.0,0.0,0.0,0.0,0.0,0.0,0.0,0.0,0.0,0.0,0.0,0.0,0.0,0.0,0.0,0.0,0.0,0.0,0.0,0.0,0.0,0.0,0.0,0.0,0.0,0.0,0.0,0.0,0.0,0.0,0.0,0.0,0.0,0.0,0.0,0.0,0.0,0.0,0.0,0.0,0.0,0.0,0.0,0.0,0.0,0.0,0.0,0.0,0.0,0.0,0.0,0.0,0.0,0.0,0.0,0.0,0.0,0.0,0.0,0.0,0.0,0.0,0.0,0.0,0.0,0.0,0.0,0.0,0.0,0.0,0.0,0.0,0.0,0.0,0.0,0.0,0.0,0.0,0.0,0.0,0.0,0.0,0.0,0.0,0.0,0.0,0.0,0.0,0.0,0.0,0.0,0.0,0.0,0.0,0.0,0.0,0.0,0.0,0.0,0.0,0.0,0.0,0.0,0.0,0.0,0.0,0.0,0.0,0.0,0.0,0.0,0.0,0.0,0.0,0.0,0.0,0.0,0.0,0.0,0.0,0.0,0.0,0.0,0.0,0.0,0.0,0.0,0.0,0.0,0.0,0.0,0.0,0.0,0.0,0.0,0.0,0.0,0.0,0.0,0.0,0.0,0.0,0.0,0.0,0.0,0.0,0.0,0.0,0.0,0.0,0.0,0.0,0.0,0.0,0.0,0.0,0.0,0.0,0.0,0.0,0.0,0.0,0.0,0.0,0.0,0.0,0.0,0.0,0.0,0.0,0.0,0.0,0.0,0.0,0.0,0.0,0.0,0.0,0.0,0.0,0.0,0.0,0.0,0.0,0.0,0.0,0.0,0.0,0.0,0.0,0.0,0.0,0.0,0.0,0.1011,0.0,0.0,0.0,0.0,0.0,0.0,0.0,0.0,0.0,0.0,0.0,0.0,0.0,0.0,0.0,0.0,0.0,0.0,0.0,0.0,0.0,0.0,0.0,0.0,0.0,0.0,0.0,0.0,0.0,0.0,0.0,0.0,0.0,0.0,0.0,0.0,0.0,0.0,0.0,0.0,0.0,0.0,0.0,0.0,0.0,0.0,0.0,0.0,0.0,0.0,0.0,0.0,0.0,0.0,0.0,0.0,0.0,0.0,0.0,0.0,0.0,0.0,0.0,0.0,0.0,0.0,0.0,0.0,0.0,0.0,0.0,0.0,0.0,0.0,0.0,0.0,0.0,0.0,0.0,0.0,0.0,0.0,0.0,0.0,0.0,0.0,0.0,0.0,0.0,0.0,0.0,0.0,0.0,0.0,0.0,0.0,0.0,0.0,0.0,0.0,0.0,0.0,0.0,0.0,0.0,0.0,0.0,0.0,0.0,0.0,0.1496,0.1335,0.119,0.1,0.078,0.0,0.0,0.0,0.0,0.0,0.0,0.0,0.0,0.0,0.0,0.0,0.0,0.0,0.0,0.0,0.0,0.0,0.0,0.0,0.0,0.0,0.0,0.0,0.0,0.0,0.0,0.0,0.0,0.0,0.0,0.0,0.0,0.0,0.0,0.0,0.0,0.0,0.0,0.0,0.0,0.0,0.0,0.0,0.0,0.0,0.0,0.0,0.0,0.0,0.0,0.0,0.0,0.0,0.0,0.0,0.0,0.0,0.0,0.0,0.0,0.0,0.0,0.0,0.0,0.0,0.0,0.0,0.0,0.0,0.0,0.0,0.0,0.0,0.0,0.0,0.0,0.0,0.0,0.0,0.0,0.0,0.0,0.0,0.0,0.0,0.0,0.0,0.0,0.0,0.0,0.0,0.0,0.0,0.0,0.0,0.0,0.0,0.0,0.0,0.0,0.0,0.0,0.0,0.0,0.0,0.0,0.0,0.0,0.0,0.0,0.0,0.0,0.0902,0.0668,0.0453,0.0,0.0,0.0,0.0,0.0,0.0,0.0,0.0,0.0,0.0,0.0,0.0,0.0,0.0,0.0,0.0,0.0,0.0,0.0,0.0,0.0,0.0,0.0,0.0,0.0,0.0,0.0,0.0,0.0,0.0,0.0,0.0,0.0,0.0,0.0,0.0,0.0,0.0,0.0,0.0,0.0,0.0,0.0,0.0,0.0,0.0,0.0,0.0,0.0,0.0,0.0,0.0,0.0,0.0,0.0,0.0,0.0,0.0,0.0,0.0,0.0,0.0,0.0,0.0,0.0,0.0,0.0,0.0,0.0,0.0,0.0,0.0,0.0,0.0,0.0,0.0,0.0,0.0,0.0,0.0,0.0,0.0,0.0,0.0,0.0,0.0,0.0,0.0,0.0,0.0,0.0,0.0,0.0,0.0,0.0,0.0,0.0,0.0,0.0,0.0,0.0,0.0,0.0,0.0,0.0,0.0,0.0,0.0,0.0,0.0,0.0763,0.0234,0.0201,0.0,-0.0289,0.0,0.0,0.0,0.0,0.0,0.0,0.0,0.0,0.0,0.0,0.0,0.0,0.0,0.0,0.0,0.0,0.0,0.0,0.0,0.0,0.0,0.0,0.0,0.0,0.0,0.0,0.0,0.0,0.0,0.0,0.0,0.0,0.0,0.0,0.0,0.0,0.0,0.0,0.0,0.0,0.0,0.0,0.0,0.0,0.0,0.0,0.0,0.0,0.0,0.0,0.0,0.0,0.0,0.0,0.0,0.0,0.0,0.0,0.0,0.0,0.0,0.0,0.0,0.0,0.0,0.0,0.0,0.0,0.0,0.0,0.0,0.0,0.0,0.0,0.0,0.0,0.0,0.0,0.0,0.0,0.0,0.0,0.0,0.0,0.0,0.0,0.0,0.0,0.0,0.0,0.0,0.0,0.0,0.0,0.0,0.0,0.0,0.0,0.0,0.0,0.0,0.0,0.0,0.0,0.0,0.0,0.0,0.0,0.0,0.0,0.0441,0.0282,0.0069,-0.01,0.0,0.0,0.0,0.0,0.0,0.0,0.0,0.0,0.0,0.0,0.0,0.0,0.0,0.0,0.0,0.0,0.0,0.0,0.0,0.0,0.0,0.0,0.0,0.0,0.0,0.0,0.0,0.0,0.0,0.0,0.0,0.0,0.0,0.0,0.0,0.0,0.0,0.0,0.0,0.0,0.0,0.0,0.0,0.0,0.0,0.0,0.0,0.0,0.0,0.0,0.0,0.0,0.0,0.0,0.0,0.0,0.0,0.0,0.0,0.0,0.0,0.0,0.0,0.0,0.0,0.0,0.0,0.0,0.0,0.0,0.0,0.0,0.0,0.0,0.0,0.0,0.0,0.0,0.0,0.0,0.0,0.0,0.0,0.0,0.0,0.0,0.0,0.0,0.0,0.0,0.0,0.0,0.0,0.0,0.0,0.0,0.0,0.0,0.0,0.0,0.0,0.0,0.0,0.0,0.0,0.0,0.0,0.0,0.0,0.0,0.028,0.018,0.0074,-0.0177,-0.0373,-0.0458,0.0,0.0,0.0,0.0,0.0,0.0,0.0,0.0,0.0,0.0,0.0,0.0,0.0,0.0,0.0,0.0,0.0,0.0,0.0,0.0,0.0,0.0,0.0,0.0,0.0,0.0,0.0,0.0,0.0,0.0,0.0,0.0,0.0,0.0,0.0,0.0,0.0,0.0,0.0,0.0,0.0,0.0,0.0,0.0,0.0,0.0,0.0,0.0,0.0,0.0,0.0,0.0,0.0,0.0,0.0,0.0,0.0,0.0,0.0,0.0,0.0,0.0,0.0,0.0,0.0,0.0,0.0,0.0,0.0,0.0,0.0,0.0,0.0,0.0,0.0,0.0,0.0,0.0,0.0,0.0,0.0,0.0,0.0,0.0,0.0,0.0,0.0,0.0,0.0,0.0,0.0,0.0,0.0,0.0,0.0,0.0,0.0,0.0,0.0,0.0,0.0,0.0,0.0,0.0,0.0,0.0,0.0,0.0,-0.0309,0.0,-0.0075,-0.0624,-0.0783,-0.0886,0.0,0.0,0.0,0.0,0.0,0.0,0.0,0.0,0.0,0.0,0.0,0.0,0.0,0.0,0.0,0.0,0.0,0.0,0.0,0.0,0.0,0.0,0.0,0.0,0.0,0.0,0.0,0.0,0.0,0.0,0.0,0.0,0.0,0.0,0.0,0.0,0.0,0.0,0.0,0.0,0.0,0.0,0.0,0.0,0.0,0.0,0.0,0.0,0.0,0.0,0.0,0.0,0.0,0.0,0.0,0.0,0.0,0.0,0.0,0.0,0.0,0.0,0.0,0.0,0.0,0.0,0.0,0.0,0.0,0.0,0.0,0.0,0.0,0.0,0.0,0.0,0.0,0.0,0.0,0.0,0.0,0.0,0.0,0.0,0.0,0.0,0.0,0.0,0.0,0.0,0.0,0.0,0.0,0.0,0.0,0.0,0.0,0.0,0.0,0.0,0.0,0.0,0.0,0.0,0.0,0.0,0.0,0.0,0.0,0.0036,-0.0109,-0.0523,-0.1212,-0.1032,-0.0986,0.0,0.0,0.0,0.0,0.0,0.0,0.0,0.0,0.0,0.0,0.0,0.0,0.0,0.0,0.0,0.0,0.0,0.0,0.0,0.0,0.0,0.0,0.0,0.0,0.0,0.0,0.0,0.0,0.0,0.0,0.0,0.0,0.0,0.0,0.0,0.0,0.0,0.0,0.0,0.0,0.0,0.0,0.0,0.0,0.0,0.0,0.0,0.0,0.0,0.0,0.0,0.0,0.0,0.0,0.0,0.0,0.0,0.0,0.0,0.0,0.0,0.0,0.0,0.0,0.0,0.0,0.0,0.0,0.0,0.0,0.0,0.0,0.0,0.0,0.0,0.0,0.0,0.0,0.0,0.0,0.0,0.0,0.0,0.0,0.0,0.0,0.0,0.0,0.0,0.0,0.0,0.0,0.0,0.0,0.0,0.0,0.0,0.0,0.0,0.0,0.0,0.0,0.0,0.0,0.0,0.0,0.0,0.0,0.0,-0.0142,0.0,-0.1119,-0.1449,-0.1262,-0.1163,0.0,0.0,0.0,0.0,0.0,0.0,0.0,0.0,0.0,0.0,0.0,0.0,0.0,0.0,0.0,0.0,0.0,0.0,0.0,0.0,0.0,0.0,0.0,0.0,0.0,0.0,0.0,0.0,0.0,0.0,0.0,0.0,0.0,0.0,0.0,0.0,0.0,0.0,0.0,0.0,0.0,0.0,0.0,0.0,0.0,0.0,0.0,0.0,0.0,0.0,0.0,0.0,0.0,0.0,0.0,0.0,0.0,0.0,0.0,0.0,0.0,0.0,0.0,0.0,0.0,0.0,0.0,0.0,0.0,0.0,0.0,0.0,0.0,0.0,0.0,0.0,0.0,0.0,0.0,0.0,0.0,0.0,0.0,0.0,0.0,0.0,0.0,0.0,0.0,0.0,0.0,0.0,0.0,0.0,0.0,0.0,0.0,0.0,0.0,0.0,0.0,0.0,0.0,0.0,0.0,0.0,0.0,0.0,-0.0533,-0.0975,-0.1674,-0.1759,-0.1339,-0.1493,-0.1426,0.0,0.0,0.0,0.0,0.0,0.0,0.0,0.0,0.0,0.0,0.0,0.0,0.0,0.0,0.0,0.0,0.0,0.0,0.0,0.0,0.0,0.0,0.0,0.0,0.0,0.0,0.0,0.0,0.0,0.0,0.0,0.0,0.0,0.0,0.0,0.0,0.0,0.0,0.0,0.0,0.0,0.0,0.0,0.0,0.0,0.0,0.0,0.0,0.0,0.0,0.0,0.0,0.0,0.0,0.0,0.0,0.0,0.0,0.0,0.0,0.0,0.0,0.0,0.0,0.0,0.0,0.0,0.0,0.0,0.0,0.0,0.0,0.0,0.0,0.0,0.0,0.0,0.0,0.0,0.0,0.0,0.0,0.0,0.0,0.0,0.0,0.0,0.0,0.0,0.0,0.0,0.0,0.0,0.0,0.0,0.0,0.0,0.0,0.0,0.0,0.0,0.0,0.0,0.0,0.0,0.0,0.0,0.0,0.0,-0.1056,-0.1222,-0.1473,-0.1845,-0.1624,-0.1663,0.0,0.0,0.0,0.0,0.0,0.0,0.0,0.0,0.0,0.0,0.0,0.0,0.0,0.0,0.0,0.0,0.0,0.0,0.0,0.0,0.0,0.0,0.0,0.0,0.0,0.0,0.0,0.0,0.0,0.0,0.0,0.0,0.0,0.0,0.0,0.0,0.0,0.0,0.0,0.0,0.0,0.0,0.0,0.0,0.0,0.0,0.0,0.0,0.0,0.0,0.0,0.0,0.0,0.0,0.0,0.0,0.0,0.0,0.0,0.0,0.0,0.0,0.0,0.0,0.0,0.0,0.0,0.0,0.0,0.0,0.0,0.0,0.0,0.0,0.0,0.0,0.0,0.0,0.0,0.0,0.0,0.0,0.0,0.0,0.0,0.0,0.0,0.0,0.0,0.0,0.0,0.0,0.0,0.0,0.0,0.0,0.0,0.0,0.0,0.0,0.0,0.0,0.0,0.0,0.0,0.0,0.0,0.0,0.0,-0.1343,-0.1612,-0.1917,-0.2281,-0.2108,-0.2169,-0.2483,0.0,0.0,0.0,0.0,0.0,0.0,0.0,0.0,0.0,0.0,0.0,0.0,0.0,0.0,0.0,0.0,0.0,0.0,0.0,0.0,0.0,0.0,0.0,0.0,0.0,0.0,0.0,0.0,0.0,0.0,0.0,0.0,0.0,0.0,0.0,0.0,0.0,0.0,0.0,0.0,0.0,0.0,0.0,0.0,0.0,0.0,0.0,0.0,0.0,0.0,0.0,0.0,0.0,0.0,0.0,0.0,0.0,0.0,0.0,0.0,0.0,0.0,0.0,0.0,0.0,0.0,0.0,0.0,0.0,0.0,0.0,0.0,0.0,0.0,0.0,0.0,0.0,0.0,0.0,0.0,0.0,0.0,0.0,0.0,0.0,0.0,0.0,0.0,0.0,0.0,0.0,0.0,0.0,0.0,0.0,0.0,0.0,0.0,0.0,0.0,0.0,0.0,0.0,0.0,0.0,0.0,0.0,0.0,-0.1717,-0.2743,-0.3101,-0.2672,-0.2869,-0.2822,0.0,0.0,0.0,0.0,0.0,0.0,0.0,0.0,0.0,0.0,0.0,0.0,0.0,0.0,0.0,0.0,0.0,0.0,0.0,0.0,0.0,0.0,0.0,0.0,0.0,0.0,0.0,0.0,0.0,0.0,0.0,0.0,0.0,0.0,0.0,0.0,0.0,0.0,0.0,0.0,0.0,0.0,0.0,0.0,0.0,0.0,0.0,0.0,0.0,0.0,0.0,0.0,0.0,0.0,0.0,0.0,0.0,0.0,0.0,0.0,0.0,0.0,0.0,0.0,0.0,0.0,0.0,0.0,0.0,0.0,0.0,0.0,0.0,0.0,0.0,0.0,0.0,0.0,0.0,0.0,0.0,0.0,0.0,0.0,0.0,0.0,0.0,0.0,0.0,0.0,0.0,0.0,0.0,0.0,0.0,0.0,0.0,0.0,0.0,0.0,0.0,0.0,0.0,0.0,0.0,0.0,0.0,0.0,0.0,-0.231,-0.3542,-0.3968,-0.3441,-0.3005,-0.3127,0.0,0.0,0.0,0.0,0.0,0.0,0.0,0.0,0.0,0.0,0.0,0.0,0.0,0.0,0.0,0.0,0.0,0.0,0.0,0.0,0.0,0.0,0.0,0.0,0.0,0.0,0.0,0.0,0.0,0.0,0.0,0.0,0.0,0.0,0.0,0.0,0.0,0.0,0.0,0.0,0.0,0.0,0.0,0.0,0.0,0.0,0.0,0.0,0.0,0.0,0.0,0.0,0.0,0.0,0.0,0.0,0.0,0.0,0.0,0.0,0.0,0.0,0.0,0.0,0.0,0.0,0.0,0.0,0.0,0.0,0.0,0.0,0.0,0.0,0.0,0.0,0.0,0.0,0.0,0.0,0.0,0.0,0.0,0.0,0.0,0.0,0.0,0.0,0.0,0.0,0.0,0.0,0.0,0.0,0.0,0.0,0.0,0.0,0.0,0.0,0.0,0.0,0.0,0.0,0.0,0.0,0.0,0.0,-0.2834,-0.3206,-0.4395,-0.5045,-0.5136,-0.4549,-0.4446,0.0,0.0,0.0,0.0,0.0,0.0,0.0,0.0,0.0,0.0,0.0,0.0,0.0,0.0,0.0,0.0,0.0,0.0,0.0,0.0,0.0,0.0,0.0,0.0,0.0,0.0,0.0,0.0,0.0,0.0,0.0,0.0,0.0,0.0,0.0,0.0,0.0,0.0,0.0,0.0,0.0,0.0,0.0,0.0,0.0,0.0,0.0,0.0,0.0,0.0,0.0,0.0,0.0,0.0,0.0,0.0,0.0,0.0,0.0,0.0,0.0,0.0,0.0,0.0,0.0,0.0,0.0,0.0,0.0,0.0,0.0,0.0,0.0,0.0,0.0,0.0,0.0,0.0,0.0,0.0,0.0,0.0,0.0,0.0,0.0,0.0,0.0,0.0,0.0,0.0,0.0,0.0,0.0,0.0,0.0,0.0,0.0,0.0,0.0,0.0,0.0,0.0,0.0,0.0,0.0,0.0,0.0,0.0,-0.3909,-0.4326,-0.5273,-0.6222,-0.7073,-0.6602,-0.6024,0.0,0.0,0.0,0.0,0.0,0.0,0.0,0.0,0.0,0.0,0.0,0.0,0.0,0.0,0.0,0.0,0.0,0.0,0.0,0.0,0.0,0.0,0.0,0.0,0.0,0.0,0.0,0.0,0.0,0.0,0.0,0.0,0.0,0.0,0.0,0.0,0.0,0.0,0.0,0.0,0.0,0.0,0.0,0.0,0.0,0.0,0.0,0.0,0.0,0.0,0.0,0.0,0.0,0.0,0.0,0.0,0.0,0.0,0.0,0.0,0.0,0.0,0.0,0.0,0.0,0.0,0.0,0.0,0.0,0.0,0.0,0.0,0.0,0.0,0.0,0.0,0.0,0.0,0.0,0.0,0.0,0.0,0.0,0.0,0.0,0.0,0.0,0.0,0.0,0.0,0.0,0.0,0.0,0.0,0.0,0.0,0.0,0.0,0.0,0.0,0.0,0.0,0.0,0.0,0.0,0.0,0.0,0.0,-0.4671,-0.5298,-0.63,-0.7055,-0.7399,-0.6293,-0.5808,0.0,0.0,0.0,0.0,0.0,0.0,0.0,0.0,0.0,0.0,0.0,0.0,0.0,0.0,0.0,0.0,0.0,0.0,0.0,0.0,0.0,0.0,0.0,0.0,0.0,0.0,0.0,0.0,0.0,0.0,0.0,0.0,0.0,0.0,0.0,0.0,0.0,0.0,0.0,0.0,0.0,0.0,0.0,0.0,0.0,0.0,0.0,0.0,-0.373,0.0,0.0,0.0,0.0,0.0,0.0,0.0,0.0,0.0,0.0,0.0,0.0,0.0,0.0,0.0,0.0,0.0,0.0,0.0,0.0,0.0,0.0,0.0,0.0,0.0,0.0,0.0,0.0,0.0,0.0,0.0,0.0,0.0,0.0,0.0,0.0,0.0,0.0,0.0,0.0,0.0,0.0,0.0,0.0,0.0,0.0,0.0,0.0,0.0,0.0,0.0,0.0,0.0,0.0,0.0,0.0,0.0,0.0,0.0,-0.583,-0.6395,-0.7395,-0.8035,-0.8204,-0.7382,-0.6812,0.0,0.0,0.0,0.0,0.0,0.0,0.0,0.0,0.0,0.0,0.0,0.0,0.0,0.0,0.0,0.0,0.0,0.0,0.0,0.0,0.0,0.0,0.0,0.0,0.0,0.0,0.0,0.0,0.0,0.0,0.0,0.0,0.0,0.0,0.0,0.0,0.0,0.0,0.0,0.0,0.0,0.0,0.0,0.0,0.0,0.0,0.0,0.0,0.0,0.0,0.0,0.0,0.0,0.0,0.0,0.0,0.0,0.0,0.0,0.0,0.0,0.0,0.0,0.0,0.0,0.0,0.0,0.0,0.0,0.0,0.0,0.0,0.0,0.0,0.0,0.0,0.0,0.0,0.0,0.0,0.0,0.0,0.0,0.0,0.0,0.0,0.0,0.0,0.0,0.0,0.0,0.0,0.0,0.0,0.0,0.0,0.0,0.0,0.0,0.0,0.0,0.0,0.0,0.0,0.0,0.0,0.0,-0.5918,-0.6972,-0.752,-0.8363,-0.8958,-0.9194,-0.8876,-0.8147,-0.7142,0.0,0.0,0.0,0.0,0.0,0.0,0.0,0.0,0.0,0.0,0.0,0.0,0.0,0.0,0.0,0.0,0.0,0.0,0.0,0.0,0.0,0.0,0.0,0.0,0.0,0.0,0.0,0.0,0.0,0.0,0.0,0.0,0.0,0.0,0.0,0.0,0.0,0.0,-0.2364,-0.2841,0.0,0.0,0.0,0.0,0.0,0.0,0.0,0.0,-0.5474,0.0,0.0,0.0,0.0,0.0,0.0,0.0,0.0,0.0,0.0,0.0,0.0,0.0,0.0,0.0,0.0,0.0,0.0,0.0,0.0,0.0,0.0,0.0,0.0,0.0,0.0,0.0,0.0,0.0,0.0,0.0,0.0,0.0,0.0,0.0,0.0,0.0,0.0,0.0,0.0,0.0,0.0,0.0,0.0,0.0,0.0,0.0,0.0,0.0,0.0,0.0,0.0,0.0,0.0,0.0,0.0,-0.5833,-0.6414,-0.7295,-0.8505,-0.8816,-0.9196,-0.9647,-0.947,-0.8755,-0.7584,0.0,0.0,0.0,0.0,0.0,0.0,0.0,0.0,0.0,0.0,0.0,0.0,0.0,0.0,0.0,0.0,0.0,0.0,0.0,0.0,0.0,0.0,0.0,0.0,0.0,0.0,0.0,0.0,0.0,0.0,0.0,0.0,0.0,0.0,0.0,0.0,0.0,0.0,0.0,-0.3863,-0.407,0.0,0.0,0.0,0.0,0.0,0.0,0.0,0.0,-0.5926,0.0,0.0,0.0,0.0,0.0,0.0,0.0,0.0,0.0,0.0,0.0,0.0,0.0,0.0,0.0,0.0,0.0,0.0,0.0,0.0,0.0,0.0,0.0,0.0,0.0,0.0,0.0,0.0,0.0,0.0,0.0,0.0,0.0,0.0,0.0,0.0,0.0,0.0,0.0,0.0,0.0,0.0,0.0,0.0,0.0,0.0,0.0,0.0,0.0,0.0,0.0,0.0,0.0,0.0,0.0,-0.6244,-0.7024,-0.7812,-0.8616,-0.8993,-0.9279,-0.945,-0.9447,-0.8935,0.0,0.0,0.0,0.0,0.0,0.0,0.0,0.0,0.0,0.0,0.0,0.0,0.0,0.0,0.0,0.0,0.0,0.0,0.0,0.0,0.0,0.0,0.0,0.0,0.0,0.0,0.0,0.0,0.0,0.0,0.0,0.0,0.0,0.0,0.0,0.0,0.0,0.0,0.0,0.0,-0.4461,-0.4796,-0.5187,0.0,0.0,0.0,0.0,0.0,0.0,-0.6129,-0.6153,0.0,0.0,0.0,0.0,0.0,0.0,0.0,0.0,0.0,0.0,0.0,0.0,0.0,0.0,0.0,0.0,0.0,0.0,0.0,0.0,0.0,0.0,0.0,0.0,0.0,0.0,0.0,0.0,0.0,0.0,0.0,0.0,0.0,0.0,0.0,0.0,0.0,0.0,0.0,0.0,0.0,0.0,0.0,0.0,0.0,0.0,0.0,0.0,0.0,0.0,0.0,0.0,0.0,0.0,0.0,-0.6497,-0.7508,-0.8284,-0.8729,-0.92,-0.9416,-0.9347,-0.9368,-0.8969,0.0,0.0,0.0,0.0,0.0,0.0,0.0,0.0,0.0,0.0,0.0,0.0,0.0,0.0,0.0,0.0,0.0,0.0,0.0,0.0,0.0,0.0,0.0,0.0,0.0,0.0,0.0,0.0,0.0,0.0,0.0,0.0,0.0,0.0,0.0,0.0,0.0,0.0,0.0,0.0,0.0,-0.5539,-0.586,-0.5994,0.0,0.0,0.0,0.0,-0.6358,-0.657,0.0,0.0,0.0,0.0,0.0,0.0,0.0,0.0,0.0,0.0,0.0,0.0,0.0,0.0,0.0,0.0,0.0,0.0,0.0,0.0,0.0,0.0,0.0,0.0,0.0,0.0,0.0,0.0,0.0,0.0,0.0,0.0,0.0,0.0,0.0,0.0,0.0,0.0,0.0,0.0,0.0,0.0,0.0,0.0,0.0,0.0,0.0,0.0,0.0,0.0,0.0,0.0,0.0,0.0,0.0,0.0,-0.7092,-0.7589,-0.8396,-0.9405,-0.9531,-0.9657,-0.9901,-0.9681,-0.9104,0.0,0.0,0.0,0.0,0.0,0.0,0.0,0.0,0.0,0.0,0.0,0.0,0.0,0.0,0.0,0.0,0.0,0.0,0.0,0.0,0.0,0.0,0.0,0.0,0.0,0.0,0.0,0.0,0.0,0.0,0.0,0.0,0.0,0.0,0.0,0.0,0.0,0.0,0.0,0.0,0.0,-0.634,-0.6111,-0.6385,-0.6592,0.0,0.0,0.0,-0.7234,-0.7586,0.0,0.0,0.0,0.0,0.0,0.0,0.0,0.0,0.0,0.0,0.0,0.0,0.0,0.0,0.0,0.0,0.0,0.0,0.0,0.0,0.0,0.0,0.0,0.0,0.0,0.0,0.0,0.0,0.0,0.0,0.0,0.0,0.0,0.0,0.0,0.0,0.0,0.0,0.0,0.0,0.0,0.0,0.0,0.0,0.0,0.0,0.0,0.0,0.0,0.0,0.0,0.0,0.0,0.0,0.0,-0.6857,-0.7411,-0.787,-0.851,-0.9407,-0.9556,-0.9595,-0.9614,-0.9264,-0.8849,0.0,0.0,0.0,0.0,0.0,0.0,0.0,0.0,0.0,0.0,0.0,0.0,0.0,0.0,0.0,0.0,0.0,0.0,0.0,0.0,0.0,0.0,0.0,0.0,0.0,0.0,0.0,0.0,0.0,0.0,0.0,0.0,0.0,0.0,0.0,0.0,0.0,0.0,0.0,0.0,0.0,0.0,-0.629,-0.6682,0.0,0.0,0.0,-0.7448,-0.7384,0.0,0.0,0.0,0.0,0.0,0.0,0.0,0.0,0.0,0.0,0.0,0.0,0.0,0.0,0.0,0.0,0.0,0.0,0.0,0.0,0.0,0.0,0.0,0.0,0.0,0.0,0.0,0.0,0.0,0.0,0.0,0.0,0.0,0.0,0.0,0.0,0.0,0.0,0.0,0.0,0.0,0.0,0.0,0.0,0.0,0.0,0.0,0.0,0.0,0.0,0.0,0.0,0.0,0.0,0.0,0.0,0.0,-0.7656,-0.8196,-0.8777,-0.9356,-0.9579,-0.9574,-0.9368,-0.9018,0.0,0.0,0.0,0.0,0.0,0.0,0.0,0.0,0.0,0.0,0.0,0.0,0.0,0.0,0.0,0.0,0.0,0.0,0.0,0.0,0.0,0.0,0.0,0.0,0.0,0.0,0.0,-0.4653,0.0,0.0,0.0,0.0,0.0,0.0,0.0,0.0,0.0,0.0,0.0,0.0,0.0,0.0,-0.6338,-0.6457,-0.6924,-0.7325,0.0,0.0,-0.7767,-0.7718,-0.7706,-0.7516,0.0,0.0,0.0,0.0,0.0,0.0,0.0,0.0,0.0,0.0,0.0,0.0,0.0,0.0,0.0,0.0,0.0,0.0,0.0,0.0,0.0,0.0,0.0,0.0,0.0,0.0,0.0,0.0,0.0,0.0,0.0,0.0,0.0,0.0,0.0,0.0,0.0,0.0,0.0,0.0,0.0,0.0,0.0,0.0,0.0,0.0,0.0,0.0,0.0,0.0,0.0,0.0,0.0,0.0,0.0,-0.7912,-0.8599,-0.917,-0.9583,-0.9852,-0.9847,-0.9575,-0.9363,-0.9061,0.0,0.0,0.0,0.0,0.0,0.0,0.0,0.0,0.0,0.0,0.0,0.0,0.0,0.0,0.0,0.0,0.0,0.0,0.0,0.0,0.0,0.0,0.0,0.0,0.0,0.0,0.0,0.0,0.0,0.0,0.0,0.0,0.0,0.0,0.0,0.0,0.0,0.0,0.0,0.0,0.0,-0.6784,-0.6606,-0.7081,-0.7577,0.0,0.0,-0.8119,-0.8439,-0.8507,-0.8187,-0.7149,0.0,0.0,0.0,0.0,0.0,0.0,0.0,0.0,0.0,0.0,0.0,0.0,0.0,0.0,0.0,0.0,0.0,0.0,0.0,0.0,0.0,0.0,0.0,0.0,0.0,0.0,0.0,0.0,0.0,0.0,0.0,0.0,0.0,0.0,0.0,0.0,0.0,0.0,0.0,0.0,0.0,0.0,0.0,0.0,0.0,0.0,0.0,0.0,0.0,0.0,0.0,0.0,0.0,-0.7686,-0.8217,-0.8892,-0.9472,-0.9845,-1.0064,-1.0092,-0.9836,-0.9349,-0.898,0.0,0.0,0.0,0.0,0.0,0.0,0.0,0.0,0.0,0.0,0.0,0.0,0.0,0.0,0.0,0.0,0.0,0.0,0.0,0.0,0.0,0.0,0.0,0.0,0.0,0.0,0.0,0.0,-0.5341,-0.5298,-0.5286,0.0,0.0,0.0,0.0,0.0,0.0,0.0,0.0,0.0,0.0,-0.7027,-0.681,-0.7529,0.0,0.0,-0.8158,-0.84,-0.8556,-0.8388,-0.8017,-0.7352,-0.6967,0.0,0.0,0.0,0.0,0.0,0.0,0.0,0.0,0.0,0.0,0.0,0.0,0.0,0.0,0.0,0.0,0.0,0.0,0.0,0.0,0.0,0.0,0.0,0.0,0.0,0.0,0.0,0.0,0.0,0.0,0.0,0.0,0.0,0.0,0.0,0.0,0.0,0.0,0.0,0.0,0.0,0.0,0.0,0.0,0.0,0.0,0.0,0.0,0.0,0.0,0.0,0.0,-0.7986,-0.8384,-0.9116,-0.9627,-0.9966,-1.0133,-1.0145,-1.006,-0.9413,-0.8985,0.0,0.0,0.0,0.0,0.0,0.0,0.0,0.0,0.0,0.0,0.0,0.0,0.0,0.0,0.0,0.0,0.0,0.0,0.0,0.0,0.0,0.0,0.0,0.0,0.0,0.0,0.0,0.0,-0.5428,-0.5428,-0.5458,0.0,0.0,0.0,0.0,0.0,0.0,0.0,0.0,0.0,0.0,-0.7276,-0.722,-0.7879,-0.8294,-0.7943,-0.8265,-0.851,-0.841,-0.8251,-0.7944,-0.7489,0.0,0.0,0.0,0.0,0.0,0.0,0.0,0.0,0.0,0.0,0.0,0.0,0.0,0.0,0.0,0.0,0.0,0.0,0.0,0.0,0.0,0.0,0.0,0.0,0.0,0.0,0.0,0.0,0.0,0.0,0.0,0.0,0.0,0.0,0.0,0.0,0.0,0.0,0.0,0.0,0.0,0.0,0.0,0.0,0.0,0.0,0.0,0.0,0.0,0.0,0.0,0.0,0.0,0.0,-0.8432,-0.9213,-0.9727,-0.9994,-0.9958,-1.0029,-1.0247,-0.9602,-0.9201,-0.9165,0.0,0.0,0.0,0.0,0.0,0.0,0.0,0.0,0.0,0.0,0.0,0.0,0.0,0.0,0.0,0.0,0.0,0.0,0.0,0.0,0.0,0.0,0.0,0.0,0.0,0.0,-0.5617,-0.5455,-0.5458,0.0,0.0,0.0,0.0,0.0,0.0,0.0,0.0,0.0,0.0,-0.7394,-0.7666,-0.7866,-0.8166,-0.8292,-0.7967,-0.813,-0.8239,-0.8065,-0.8246,-0.8208,0.0,0.0,0.0,0.0,0.0,0.0,0.0,0.0,0.0,0.0,0.0,0.0,0.0,0.0,0.0,0.0,0.0,0.0,0.0,0.0,0.0,0.0,0.0,0.0,0.0,0.0,0.0,0.0,-0.4627,0.0,0.0,0.0,0.0,0.0,0.0,0.0,0.0,0.0,0.0,0.0,-0.5996,-0.6139,0.0,0.0,0.0,0.0,0.0,0.0,0.0,0.0,0.0,0.0,0.0,0.0,-0.8659,-0.875,-0.9501,-0.9917,-1.0,-1.0089,-1.0134,-1.0048,-0.9505,-0.9042,-0.8726,0.0,0.0,0.0,0.0,0.0,0.0,0.0,0.0,0.0,0.0,0.0,0.0,0.0,0.0,0.0,0.0,0.0,0.0,0.0,0.0,0.0,0.0,0.0,0.0,0.0,-0.5855,0.0,0.0,0.0,0.0,0.0,0.0,0.0,0.0,0.0,0.0,0.0,-0.6903,-0.7446,-0.7936,-0.8219,-0.8111,-0.8575,-0.8692,0.0,0.0,0.0,0.0,0.0,0.0,0.0,0.0,0.0,0.0,0.0,0.0,0.0,0.0,-0.7677,-0.6592,-0.6444,-0.6516,-0.6587,0.0,0.0,0.0,0.0,0.0,0.0,0.0,0.0,0.0,0.0,0.0,0.0,0.0,0.0,0.0,0.0,-0.512,0.0,0.0,0.0,0.0,0.0,0.0,0.0,0.0,-0.5783,-0.6211,-0.664,-0.6752,-0.7066,0.0,-0.7997,-0.7904,0.0,0.0,0.0,0.0,0.0,0.0,0.0,0.0,-0.9111,-0.9244,-0.983,-1.023,-1.0305,-1.0279,-1.0204,-0.9986,-0.9414,-0.8938,-0.8619,-0.8424,-0.8344,0.0,0.0,0.0,0.0,0.0,0.0,0.0,0.0,0.0,0.0,0.0,0.0,0.0,0.0,0.0,0.0,0.0,0.0,0.0,0.0,0.0,0.0,0.0,-0.6057,0.0,0.0,0.0,0.0,0.0,0.0,0.0,0.0,0.0,-0.7027,-0.7195,-0.7584,-0.8316,-0.8665,-0.8758,-0.853,0.0,0.0,0.0,0.0,0.0,0.0,0.0,-0.896,-0.9039,-0.9071,-0.8909,-0.8475,-0.8592,-0.8598,-0.8299,0.0,0.0,-0.7089,-0.6984,-0.7127,-0.7167,-0.7423,-0.7647,-0.7943,-0.8125,-0.8307,0.0,0.0,0.0,0.0,0.0,0.0,0.0,0.0,-0.5536,-0.5718,0.0,-0.5944,0.0,0.0,0.0,0.0,0.0,0.0,0.0,0.0,-0.6546,-0.6708,-0.6786,-0.7265,-0.7344,-0.7195,-0.859,-0.8867,-0.8186,-0.8481,0.0,0.0,0.0,0.0,0.0,0.0,-0.9788,-0.9816,-1.0242,-1.06,-1.0834,-1.0422,-1.0212,-1.0168,-0.9351,-0.8881,-0.8819,-0.8608,-0.8441,-0.824,-0.8229,0.0,0.0,0.0,0.0,0.0,0.0,0.0,0.0,0.0,0.0,0.0,0.0,0.0,0.0,0.0,0.0,0.0,0.0,0.0,0.0,-0.6523,0.0,0.0,0.0,0.0,0.0,0.0,0.0,0.0,0.0,0.0,-0.7965,-0.8078,-0.8532,-0.9522,0.0,0.0,0.0,0.0,-0.9401,-0.8808,-0.9262,-0.9605,-0.9433,-0.971,-0.9898,-0.97,0.0,0.0,-0.9199,-0.8946,-0.8783,-0.8487,-0.846,-0.8327,-0.791,-0.7842,-0.788,-0.8042,-0.8114,-0.8284,-0.8623,-0.8855,-0.9097,-0.4068,0.0,0.0,0.0,0.0,-0.5758,-0.588,-0.588,-0.5921,-0.5931,-0.5899,-0.6136,0.0,0.0,0.0,0.0,0.0,0.0,-0.6318,-0.6356,-0.6749,-0.7206,-0.7782,-0.7593,-0.7931,-0.872,-0.8983,-0.9057,-0.899,-0.9471,-0.9401,-0.8792,0.0,0.0,0.0,0.0,-1.0008,-1.0092,-1.0359,-1.0553,-1.0583,-1.0477,-1.0236,-0.9927,-0.9293,-0.8902,-0.8802,-0.8738,-0.871,-0.8638,-0.8633,0.0,0.0,0.0,0.0,0.0,0.0,0.0,0.0,0.0,0.0,0.0,0.0,0.0,0.0,0.0,0.0,0.0,0.0,0.0,-0.7068,-0.6912,-0.6776,0.0,0.0,0.0,0.0,0.0,0.0,0.0,0.0,0.0,-0.9077,-0.9229,-0.9349,0.0,0.0,-0.9983,-0.9947,-1.002,-0.9914,-0.9461,0.0,0.0,0.0,-0.9531,-0.9586,-0.9813,-0.9952,-0.998,-0.9932,-0.9748,-0.9515,-0.9374,-0.9269,-0.9122,-0.8742,-0.8661,-0.8623,-0.8589,-0.8856,-0.9203,-0.9316,-0.9506,-0.9652,-0.3808,-0.4434,-0.4735,-0.5202,-0.5707,-0.5954,-0.6117,-0.6239,-0.6325,-0.6311,-0.6225,-0.6488,-0.6517,-0.6393,-0.6503,0.0,0.0,0.0,-0.6757,-0.6844,-0.7238,-0.7714,-0.8125,-0.7979,-0.8308,-0.9119,-0.9187,-0.9353,-0.9548,-1.012,-1.0136,-0.9621,0.0,0.0,-0.9678,-1.0072,-1.0349,-1.0515,-1.0683,-1.0781,-1.085,-1.0508,-1.0146,-0.9748,-0.9267,-0.9022,-0.899,-0.8867,-0.8835,-0.8867,-0.8829,-0.8861,0.0,0.0,0.0,0.0,0.0,0.0,0.0,0.0,0.0,0.0,0.0,-0.6745,0.0,0.0,0.0,0.0,-0.6683,-0.6859,-0.7146,-0.7163,0.0,0.0,0.0,0.0,0.0,0.0,0.0,-0.8444,-0.8795,-0.9215,-0.9825,-1.0145,-1.0232,-1.0065,-1.0192,-1.023,-1.0116,0.0,-1.015,-0.9753,-0.9892,-1.0054,-1.0041,-0.9906,-0.987,-1.0045,-1.0148,-1.012,-1.0132,-1.0089,-1.0007,-0.9836,-0.9746,-0.962,-0.9311,-0.9306,-0.9231,-0.8899,-0.9165,-0.9473,-0.9468,-0.962,-0.9846,-0.3395,-0.3933,-0.4439,-0.5084,-0.5739,-0.5984,-0.6232,-0.6476,-0.6639,-0.6709,-0.673,-0.6987,-0.7025,-0.6868,-0.6938,0.0,0.0,-0.7187,-0.7319,-0.7517,-0.7931,-0.8093,-0.8128,-0.8321,-0.8475,-0.8742,-0.9336,-0.9733,-0.9943,-1.0474,-1.0635,-1.0425,-1.0261,-1.0178,-1.0207,-1.0569,-1.0839,-1.1037,-1.1095,-1.1211,-1.1329,-1.0521,-0.9972,-0.9651,-0.9252,-0.9113,-0.9268,-0.899,-0.8894,-0.899,-0.8894,-0.8802,-0.8835,0.0,0.0,0.0,0.0,0.0,0.0,0.0,0.0,0.0,0.0,0.0,0.0,0.0,0.0,0.0,-0.7106,0.0,-0.7082,-0.7305,0.0,0.0,0.0,-0.7654,-0.7865,-0.8189,-0.8692,-0.9466,0.0,0.0,0.0,0.0,-1.098,-1.0627,-1.0451,-1.022,-0.9872,-1.0158,-1.0215,-0.9908,-1.0277,-1.06,-1.0557,-1.0463,-1.0324,-1.0159,-1.0385,-1.0293,-0.9911,-1.0013,-1.0078,-0.9847,-0.982,-0.9739,-0.96,-0.9643,-0.9643,-0.8987,-0.9178,-0.9397,-0.9432,-0.954,-0.975,-0.3443,-0.3898,-0.4076,-0.4855,-0.604,-0.6602,-0.686,-0.6937,-0.6876,-0.681,-0.6733,-0.6987,-0.7179,-0.733,-0.7363,-0.7357,-0.74,-0.7604,-0.7702,-0.774,-0.7979,-0.8168,-0.8317,-0.8206,-0.8442,-0.8937,-0.938,-0.9771,-1.0137,-1.0717,-1.0875,-1.0665,-1.0785,-1.0828,-1.0819,-1.1047,-1.1293,-1.1531,-1.1415,-1.1199,-1.0882,-1.046,-1.0097,-0.984,-0.9551,-0.935,-0.93,-0.921,-0.921,-0.921,-0.9049,-0.9022,-0.9177,-0.8802,0.0,0.0,0.0,0.0,0.0,0.0,0.0,0.0,0.0,-0.7138,-0.7106,0.0,-0.6979,0.0,-0.733,-0.748,-0.7589,-0.7544,0.0,0.0,-0.742,-0.7564,-0.7716,-0.8083,-0.8563,-0.9142,-0.9513,-0.9848,-1.0101,-1.04,-1.057,-1.0509,-1.0667,-1.0779,-1.0828,-1.0785,-1.0785,-1.0795,-1.0768,-1.0768,-1.0567,-1.0177,-0.976,-0.9502,-0.9487,-0.9502,-0.9394,-0.9421,-0.9443,-0.9383,-0.9373,-0.9307,-0.918,-0.9271,-0.9092,-0.8538,-0.9074,-0.983,-0.9954,-0.9915,-0.9823,-0.3276,-0.3631,-0.3854,-0.4658,-0.5816,-0.639,-0.683,-0.7085,-0.6947,-0.6798,-0.6726,-0.6947,-0.7149,-0.7373,-0.7446,-0.7561,-0.7642,-0.7761,-0.7876,-0.8068,-0.8178,-0.8289,-0.8403,-0.8365,-0.8594,-0.9008,-0.937,-0.9766,-1.0162,-1.0567,-1.0653,-1.0515,-1.0695,-1.0761,-1.081,-1.1062,-1.1371,-1.17,-1.1475,-1.1044,-1.0381,-1.0299,-1.0098,-0.9739,-0.9562,-0.9424,-0.9229,-0.9177,-0.9183,-0.9204,-0.9023,-0.899,-0.9145,-0.8829,-0.8441,0.0,0.0,0.0,0.0,0.0,0.0,0.0,0.0,0.0,0.0,0.0,-0.724,0.0,-0.748,0.0,-0.7661,-0.7646,-0.7609,-0.7588,-0.784,-0.8096,-0.8402,-0.8717,-0.9088,-0.9576,-0.9823,-0.9997,-1.0071,-1.0225,-1.0343,-1.0279,-1.0423,-1.0533,-1.0592,-1.0574,-1.0549,-1.0453,-1.0383,-1.0299,-1.015,-0.9739,-0.9373,-0.9238,-0.9171,-0.9171,-0.9171,-0.9171,-0.9171,-0.9171,-0.9171,-0.9171,-0.9106,-0.9071,-0.9001,-0.8891,-0.899,-0.9249,-0.9371,-0.9518,-0.9575,-0.3052,-0.3226,-0.3628,-0.4429,-0.5419,-0.5861,-0.6435,-0.7085,-0.6923,-0.68,-0.6709,-0.6834,-0.7019,-0.7257,-0.745,-0.7642,-0.7842,-0.7842,-0.8063,-0.8403,-0.8441,-0.8441,-0.8441,-0.8627,-0.8765,-0.8916,-0.9258,-0.9592,-0.991,-1.0125,-1.0205,-1.0175,-1.0245,-1.0384,-1.0544,-1.084,-1.1199,-1.1562,-1.1365,-1.0829,-1.0007,-1.0156,-0.9994,-0.9615,-0.9534,-0.9384,-0.915,-0.9107,-0.9093,-0.9131,-0.8949,-0.8926,-0.899,-0.8861,-0.8468,0.0,-0.7898,0.0,0.0,0.0,0.0,0.0,0.0,0.0,0.0,-0.7526,-0.7602,-0.7759,-0.7603,-0.7503,-0.7493,-0.7672,-0.7731,-0.77,-0.8191,-0.876,-0.922,-0.9502,-0.9783,-1.0167,-1.0196,-1.0139,-1.0002,-1.0146,-1.0175,-1.0107,-1.0073,-1.0078,-0.9914,-1.0024,-1.002,-0.963,-0.9677,-0.9786,-0.9548,-0.9324,-0.9181,-0.912,-0.9082,-0.9114,-0.9087,-0.9098,-0.9098,-0.9064,-0.9013,-0.9018,-0.9045,-0.8965,-0.8936,-0.9064,-0.8732,-0.8474,-0.8539,-0.8744,-0.8973,-0.2837,-0.3181,-0.327,-0.4119,-0.5416,-0.5505,-0.6124,-0.7078,-0.6858,-0.6716,-0.6652,-0.6817,-0.7099,-0.7446,-0.7646,-0.7834,-0.8025,-0.8212,-0.8331,-0.8403,-0.8551,-0.8665,-0.8665,-0.8665,-0.8614,-0.8537,-0.8893,-0.9037,-0.8998,-0.9589,-0.9777,-0.9569,-1.0081,-1.0293,0.0,0.0,0.0,0.0,-1.0991,-1.0852,-1.0473,-1.0357,-1.0196,-1.0067,-0.9689,0.0,-0.9334,-0.9403,-0.939,-0.9334,-0.9265,0.0,0.0,0.0,0.0,0.0,0.0,0.0,0.0,0.0,0.0,0.0,-0.7596,-0.7666,-0.7666,-0.7666,-0.7643,-0.7546,-0.7512,-0.7508,-0.7513,-0.755,-0.7536,-0.7545,-0.8014,-0.8454,-0.8646,-0.9092,-0.9433,-0.9625,-0.966,-0.9718,-0.9882,-0.9946,-1.0024,-1.0163,-1.0263,-1.0088,-0.9781,-0.9898,-1.0026,-1.009,-0.9973,-0.9748,-0.9259,-0.9158,-0.8996,-0.8738,-0.8646,-0.8657,-0.8673,-0.8667,-0.8585,-0.8454,-0.8395,-0.8377,-0.8251,-0.8306,-0.8299,-0.8085,-0.8151,-0.8292,-0.85,-0.8274,-0.8025,-0.2693,0.0,-0.305,-0.3764,0.0,-0.5099,-0.5811,-0.6773,-0.6777,-0.6767,-0.6717,-0.6824,-0.7096,-0.7518,-0.7599,-0.7872,-0.8255,-0.8255,-0.8365,-0.8551,-0.8665,-0.8703,-0.8703,-0.8703,-0.8595,-0.8401,-0.8799,-0.8841,-0.867,-0.9163,-0.937,-0.9369,-0.9669,-0.9835,-0.9852,-0.9913,-1.0007,-1.0242,-1.0473,-1.0418,-1.0086,-1.0074,-0.9986,-0.9845,0.0,0.0,0.0,0.0,0.0,0.0,0.0,0.0,0.0,0.0,0.0,-0.8048,-0.8082,-0.7996,-0.773,-0.77,-0.7727,-0.7754,-0.7884,-0.7889,-0.7699,-0.7699,-0.7634,-0.7493,-0.7493,-0.7526,-0.7596,-0.7559,-0.7684,-0.8084,-0.828,-0.8537,-0.8939,-0.9234,-0.9432,-0.9482,-0.9478,-0.9538,-0.969,-0.9709,-0.9757,-0.9883,-0.9913,-0.9838,-0.9676,-0.9803,-0.9928,-0.9831,-0.9634,-0.9359,-0.9047,-0.8854,-0.8755,-0.8544,-0.8517,-0.8517,-0.8517,-0.8517,-0.8479,-0.8376,-0.8339,-0.8306,-0.8144,-0.8047,-0.7917,-0.7731,-0.7629,-0.7587,-0.7731,-0.7683,-0.7631,-0.2649,-0.292,-0.292,-0.3454,-0.4344,-0.4699,-0.5487,-0.643,0.0,0.0,0.0,-0.6939,-0.7176,-0.7518,-0.7518,-0.7868,-0.8331,-0.8217,-0.8327,-0.8627,-0.8703,-0.8685,-0.8647,-0.8689,-0.8599,-0.836,-0.8604,-0.865,-0.85,-0.8728,-0.8952,-0.9145,-0.921,-0.9312,-0.9446,-0.9478,-0.9586,-0.9823,-1.0049,-0.9964,-0.9653,-0.9701,-0.9708,-0.958,-0.942,-0.9239,-0.8999,-0.8845,-0.8813,-0.8919,-0.8601,-0.8506,-0.8788,-0.8645,-0.8431,-0.818,-0.8175,-0.8084,-0.7935,-0.7742,-0.773,-0.7921,-0.8118,-0.8047,-0.7731,-0.7727,-0.7694,-0.7526,-0.7493,-0.7559,-0.7634,-0.7563,-0.7787,-0.8571,-0.8549,-0.8743,-0.9291,-0.9446,-0.949,-0.9478,-0.9478,-0.9478,-0.949,-0.949,-0.9478,-0.949,-0.9526,-0.9478,-0.9502,-0.967,-0.9703,-0.9471,-0.9279,-0.904,-0.8867,-0.8722,-0.8549,-0.8517,-0.8517,-0.8517,-0.8511,-0.8452,-0.842,-0.8317,-0.829,-0.8117,-0.7982,-0.7689,-0.7531,-0.7563,-0.7204,-0.6843,-0.6876,-0.7073,-0.7269,-0.2649,-0.292,-0.292,-0.3454,-0.4297,-0.4344,-0.5178,-0.6463,-0.6832,-0.6999,-0.7063,-0.7138,-0.7296,-0.7518,-0.768,-0.7876,-0.814,-0.8289,-0.8403,0.0,-0.8627,-0.8614,-0.8448,-0.8623,-0.8488,-0.8083,-0.8098,-0.811,-0.8113,-0.8252,-0.8404,-0.8635,-0.8894,-0.9145,-0.9306,-0.9338,-0.9394,-0.9544,-0.9826,-0.9989,-1.0079,-0.9728,-0.9612,-0.9722,-0.9126,-0.8757,-0.8673,-0.8884,-0.9029,-0.8995,-0.9073,-0.9075,-0.89,-0.8703,-0.8421,-0.8089,-0.8037,-0.7892,-0.7602,-0.7536,-0.7568,-0.7662,-0.7999,-0.8074,-0.7731,-0.7857,-0.7819,-0.7554,-0.7526,-0.7526,-0.7526,-0.7526,-0.7684,-0.8084,-0.8349,-0.8641,-0.9022,-0.9318,-0.9478,-0.9484,-0.9478,-0.9478,-0.9446,-0.9478,-0.9478,-0.9484,-0.9478,-0.9478,-0.9484,-0.954,-0.952,-0.9452,-0.9338,-0.921,-0.8985,-0.8861,-0.8679,-0.8517,-0.8479,-0.8484,-0.8484,-0.8252,-0.8019,-0.7862,-0.7536,-0.7241,-0.7138,-0.6937,-0.6937,-0.6994,-0.6802,-0.6708,-0.6675,-0.6679,-0.6576,-0.256,-0.2875,-0.292,-0.3229,-0.3764,-0.43,-0.5127,-0.6181,-0.6463,-0.6859,-0.723,-0.7095,-0.7253,-0.7642,-0.7642,-0.7834,-0.8102,-0.8068,-0.814,-0.8246,-0.8331,-0.831,-0.8254,-0.8392,-0.8282,-0.7923,-0.8219,-0.8204,-0.8035,-0.8139,-0.8306,-0.8511,-0.8958,-0.9312,-0.9568,-0.9664,-0.9638,-0.9484,-0.963,-0.9657,-0.9595,-0.9379,-0.9252,-0.9205,-0.886,-0.8685,-0.8651,-0.8597,-0.8604,-0.8739,-0.8533,-0.8417,-0.8404,-0.8259,-0.8094,-0.7895,-0.7884,-0.7825,-0.7682,-0.7799,-0.7766,-0.7583,-0.8048,-0.8195,-0.7847,-0.7981,-0.8014,-0.7782,-0.7689,-0.7657,-0.7754,-0.7619,-0.7684,-0.8079,-0.8182,-0.8441,-0.892,-0.9119,-0.9215,-0.9215,-0.9312,-0.9312,-0.9125,-0.9285,-0.9344,-0.9253,-0.9318,-0.9344,-0.9253,-0.9157,-0.9189,-0.9344,-0.9242,-0.9087,-0.8894,-0.8738,-0.8614,-0.8517,-0.8349,-0.8252,-0.822,-0.7954,-0.7661,-0.7466,-0.7269,-0.7106,-0.6876,-0.6741,-0.6671,-0.6507,-0.6375,-0.6284,-0.6251,-0.6247,-0.6317,-0.2515,-0.2875,-0.292,-0.3044,-0.3337,-0.414,-0.4949,-0.5628,-0.5815,-0.6316,-0.694,-0.6959,-0.7215,-0.765,-0.7565,-0.7676,-0.791,-0.7842,-0.7855,-0.7947,-0.8035,-0.8029,-0.797,-0.816,-0.8107,-0.7884,-0.8241,-0.8284,-0.8101,-0.811,-0.8177,-0.842,-0.8847,-0.9203,-0.944,-0.9632,-0.9638,-0.9414,-0.9484,-0.9408,-0.9197,-0.9077,-0.8909,-0.8722,-0.8561,-0.8501,-0.8495,-0.8284,-0.8251,-0.8404,-0.8057,-0.7879,-0.7991,-0.7867,-0.7757,-0.7679,-0.7703,-0.7668,-0.765,-0.7884,-0.7854,-0.7481,-0.7989,-0.8233,-0.797,-0.8091,-0.812,-0.7939,-0.7824,-0.7824,-0.7857,-0.7754,-0.7782,-0.8204,-0.8182,-0.8376,-0.8856,-0.8958,-0.8926,-0.8926,-0.9055,-0.9087,-0.8931,-0.9022,-0.9087,-0.8958,-0.9017,-0.9022,-0.8888,-0.8765,-0.8823,-0.9017,-0.892,-0.8662,-0.8571,-0.8382,-0.8252,-0.8284,-0.8052,-0.7922,-0.7857,-0.7624,-0.7363,-0.7171,-0.7068,-0.6872,-0.6539,-0.6379,-0.628,-0.605,-0.5954,-0.5888,-0.5958,-0.6053,-0.6185,-0.2604,-0.2875,-0.2875,-0.3106,-0.349,-0.379,-0.4295,-0.4829,-0.4761,-0.5092,-0.5808,-0.6756,-0.718,-0.7261,-0.7407,-0.7518,-0.7599,-0.7718,-0.7715,-0.7633,-0.7936,-0.7884,-0.761,-0.7884,-0.7991,-0.7947,-0.7892,-0.7991,-0.8211,-0.7918,-0.7857,-0.8045,-0.8289,-0.8412,-0.843,-0.8765,-0.8958,-0.9055,-0.935,-0.9504,-0.945,-0.8993,-0.8734,-0.8704,-0.8219,-0.7973,-0.8003,-0.8149,-0.8303,-0.8311,-0.8265,-0.8201,-0.808,-0.7847,-0.7583,-0.7356,-0.7362,-0.7296,-0.7204,-0.7347,-0.743,-0.7294,-0.7642,-0.7902,-0.7891,-0.8074,-0.8059,-0.7814,-0.7879,-0.7874,-0.7759,-0.7814,-0.8037,-0.8312,-0.8382,-0.8549,-0.8732,-0.8802,-0.8738,-0.8544,-0.8705,-0.8802,-0.8738,-0.8802,-0.877,-0.8673,-0.8705,-0.87,-0.8635,-0.8371,-0.8371,-0.8603,-0.8284,-0.7894,-0.7857,-0.7689,-0.7722,-0.7689,-0.7591,-0.7624,-0.7629,-0.7335,-0.6946,-0.6876,-0.6482,-0.6119,-0.5881,-0.562,-0.5591,-0.5653,-0.5653,-0.5686,-0.5822,-0.5888,-0.5987,-0.2244,-0.247,-0.2515,-0.2791,-0.3256,-0.3598,-0.393,-0.4263,-0.442,-0.4639,-0.4973,-0.5977,-0.6598,-0.6872,-0.7292,-0.7518,-0.7518,-0.7599,-0.7504,-0.7372,-0.7629,-0.7602,-0.7377,-0.7679,-0.7787,-0.7749,-0.7798,-0.7907,-0.79,-0.7803,-0.7824,-0.8084,-0.8209,-0.8336,-0.8538,-0.8797,-0.8861,-0.8705,-0.8964,-0.9034,-0.8907,-0.8774,-0.8632,-0.8429,-0.8093,-0.7901,-0.7913,-0.8009,-0.8057,-0.8063,-0.7993,-0.7861,-0.7741,-0.7565,-0.7389,-0.7203,-0.7198,-0.7166,-0.7117,-0.7283,-0.733,-0.7158,-0.7557,-0.7766,-0.7634,-0.7953,-0.8052,-0.7675,-0.7714,-0.784,-0.7849,-0.7737,-0.774,-0.7989,-0.8122,-0.8279,-0.8436,-0.8436,-0.8376,-0.8252,-0.8344,-0.8376,-0.8247,-0.8447,-0.8641,-0.8738,-0.8738,-0.8635,-0.8732,-0.8242,-0.7982,-0.8117,-0.7563,-0.7335,-0.7754,-0.7689,-0.7624,-0.7689,-0.7624,-0.7559,-0.7531,-0.7167,-0.6745,-0.6651,-0.6222,-0.5925,-0.5855,-0.5653,-0.5521,-0.5488,-0.5425,-0.5524,-0.5594,-0.5657,-0.5752,-0.1974,-0.2198,-0.2231,-0.2548,-0.3092,-0.3448,-0.3701,-0.3909,-0.4181,-0.4297,-0.4345,-0.5244,-0.5906,-0.6325,-0.7061,-0.7383,-0.7339,-0.7411,-0.7326,-0.7155,-0.726,-0.7268,-0.7144,-0.7343,-0.7503,-0.7532,-0.7686,-0.7722,-0.7671,-0.7701,-0.7818,-0.7992,-0.807,-0.8206,-0.8447,-0.863,-0.8603,-0.8414,-0.8608,-0.8613,-0.8461,-0.8436,-0.8358,-0.8165,-0.8064,-0.7946,-0.7794,-0.7875,-0.7901,-0.7901,-0.7729,-0.7589,-0.7494,-0.7333,-0.7198,-0.7112,-0.7106,-0.7106,-0.7117,-0.7224,-0.7273,-0.7139,-0.7424,-0.7564,-0.7503,-0.7734,-0.7813,-0.7585,-0.7511,-0.7608,-0.7803,-0.7736,-0.7693,-0.7804,-0.7987,-0.8149,-0.8074,-0.8107,-0.8079,-0.7917,-0.7982,-0.7982,-0.7829,-0.8025,-0.8344,-0.8468,-0.8436,-0.8474,-0.8501,-0.7912,-0.7526,-0.7754,-0.7068,-0.6937,-0.7619,-0.7428,-0.7396,-0.7396,-0.7265,-0.7167,-0.733,-0.6839,-0.6511,-0.6317,-0.6086,-0.5888,-0.5723,-0.5587,-0.555,-0.555,-0.5491,-0.5395,-0.5462,-0.5488,-0.5521,-0.1974,-0.2191,-0.2326,-0.2621,-0.303,-0.3167,-0.3456,-0.3816,-0.3851,-0.3845,-0.3986,-0.4738,-0.5205,-0.5461,-0.6608,-0.7121,-0.6984,-0.7121,-0.713,-0.6935,-0.6958,-0.6912,-0.6902,-0.6918,-0.7138,-0.7418,-0.731,-0.7335,-0.7508,-0.7683,-0.7693,-0.7573,-0.7736,-0.7712,-0.7686,-0.7917,-0.8052,-0.8052,-0.8284,-0.8377,-0.8219,-0.7971,-0.7876,-0.779,-0.808,-0.7986,-0.762,-0.7762,-0.7875,-0.7901,-0.7655,-0.7521,-0.7461,-0.7246,-0.7112,-0.7106,-0.7106,-0.7106,-0.7106,-0.7133,-0.7128,-0.7117,-0.7166,-0.7219,-0.7374,-0.7471,-0.7515,-0.7567,-0.7256,-0.7264,-0.7562,-0.7791,-0.795,-0.7952,-0.8247,-0.822,-0.7797,-0.7922,-0.7857,-0.7657,-0.7694,-0.7727,-0.7699,-0.7731,-0.7792,-0.7749,-0.7652,-0.7684,-0.7754,-0.7461,-0.7363,-0.7391,-0.7101,-0.6773,-0.6913,-0.6848,-0.6651,-0.6745,-0.6876,-0.6581,-0.6482,-0.6383,-0.6218,-0.6086,-0.6017,-0.5851,-0.5587,-0.5488,-0.5488,-0.5488,-0.5458,-0.5395,-0.5395,-0.5395,-0.5392,-0.1603,-0.1709,-0.2113,-0.2446,-0.2792,-0.321,-0.3557,-0.3804,-0.3802,-0.3802,-0.3902,-0.4348,-0.4626,-0.4736,-0.5817,-0.6544,-0.6904,-0.7029,-0.6955,-0.6808,-0.686,-0.6857,-0.6791,-0.6843,-0.7043,-0.7257,-0.7113,-0.7106,-0.7302,-0.7376,-0.7376,-0.7321,-0.74,-0.7367,-0.7377,-0.7559,-0.7624,-0.7526,-0.7759,-0.7683,-0.7464,-0.7745,-0.7644,-0.7036,-0.7338,-0.75,-0.7461,-0.7558,-0.7521,-0.7279,-0.7488,-0.7488,-0.7171,-0.7112,-0.7106,-0.7106,-0.7106,-0.7106,-0.7106,-0.7106,-0.7106,-0.7106,-0.7106,-0.7117,-0.7225,-0.7326,-0.735,-0.7205,-0.721,-0.7209,-0.7116,-0.7335,-0.752,-0.766,-0.7928,-0.8047,-0.7797,-0.7764,-0.7727,-0.7554,-0.7526,-0.7596,-0.7614,-0.7759,-0.7857,-0.7824,-0.7824,-0.7884,-0.7954,-0.7531,-0.7204,-0.7493,-0.7101,-0.6613,-0.6876,-0.6618,-0.6453,-0.6651,-0.6749,-0.6749,-0.6683,-0.6449,-0.6284,-0.602,-0.5951,-0.5851,-0.5587,-0.5557,-0.5554,-0.5458,-0.5395,-0.5395,-0.5395,-0.5326,-0.5256,-0.1453,-0.1555,-0.1946,-0.2316,-0.2635,-0.3089,-0.3448,-0.3684,-0.3684,-0.3707,-0.3782,-0.4072,-0.4214,-0.4335,-0.5069,-0.5739,-0.6328,-0.6702,-0.6847,-0.6717,-0.6734,-0.6735,-0.6696,-0.6712,-0.6843,-0.7007,-0.7012,-0.7106,-0.7269,-0.7237,-0.7204,-0.7204,-0.7138,-0.7106,-0.7138,-0.7232,-0.7237,-0.7162,-0.7205,-0.7072,-0.6853,-0.7157,-0.7066,-0.6515,-0.6576,-0.6805,-0.7048,-0.7253,-0.7192,-0.6928,-0.7219,-0.7273,-0.696,-0.7009,-0.7106,-0.7106,-0.7106,-0.7106,-0.7112,-0.7063,-0.7058,-0.7036,-0.7004,-0.6977,-0.6987,-0.7098,-0.7015,-0.6824,-0.6811,-0.6797,-0.6601,-0.6653,-0.6887,-0.7185,-0.7618,-0.7747,-0.7505,-0.759,-0.7624,-0.7526,-0.7428,-0.7405,-0.745,-0.766,-0.7742,-0.7767,-0.7802,-0.7949,-0.7987,-0.7563,-0.7106,-0.747,-0.7007,-0.6646,-0.6683,-0.6519,-0.6387,-0.6552,-0.6651,-0.6716,-0.6651,-0.6449,-0.6251,-0.602,-0.5851,-0.5785,-0.5686,-0.5624,-0.5524,-0.5428,-0.5395,-0.5392,-0.5326,-0.519,-0.5123,-0.152,-0.168,-0.1862,-0.2188,-0.2585,-0.2773,-0.3059,-0.3439,-0.3483,-0.3561,-0.36,-0.3873,-0.4021,-0.4152,-0.4473,-0.4781,-0.519,-0.6103,-0.6569,-0.6585,-0.6502,-0.6531,-0.6642,-0.6515,-0.6548,-0.6741,-0.704,-0.7269,-0.7396,-0.7232,-0.7171,-0.7138,-0.6979,-0.6946,-0.6913,-0.6979,-0.6979,-0.6944,-0.6871,-0.6644,-0.6414,-0.6345,-0.6258,-0.6103,-0.598,-0.606,-0.6401,-0.6847,-0.6891,-0.662,-0.6761,-0.6906,-0.6874,-0.6977,-0.7085,-0.7058,-0.7085,-0.7085,-0.7058,-0.6955,-0.6906,-0.6879,-0.6788,-0.6761,-0.6766,-0.6749,-0.6618,-0.6351,-0.6283,-0.6178,-0.599,-0.6055,-0.6325,-0.6773,-0.7246,-0.7346,-0.7152,-0.7375,-0.7619,-0.7451,-0.7228,-0.7191,-0.7226,-0.7308,-0.7342,-0.7289,-0.7351,-0.747,-0.7549,-0.7269,-0.7106,-0.6975,-0.6778,-0.6581,-0.6486,-0.642,-0.6387,-0.6387,-0.642,-0.6453,-0.6284,-0.6119,-0.5987,-0.5789,-0.5789,-0.5723,-0.5587,-0.5524,-0.5491,-0.5395,-0.5392,-0.5326,-0.5223,-0.5087,-0.496,-0.1488,-0.1689,-0.1862,-0.2143,-0.2537,-0.2716,-0.2955,-0.3184,-0.3383,-0.34,-0.3285,-0.3499,-0.3606,-0.3598,-0.3959,-0.4213,-0.438,-0.5222,-0.58,-0.6123,-0.6288,-0.6416,-0.6486,-0.6416,-0.6449,-0.6548,-0.6975,-0.7171,-0.7106,-0.7007,-0.6979,-0.6975,-0.6909,-0.6913,-0.6913,-0.7171,-0.7265,-0.7116,-0.6917,-0.6692,-0.6418,-0.625,-0.6059,-0.5923,-0.5865,-0.588,-0.5873,-0.6268,-0.6213,-0.5755,-0.6159,-0.6431,-0.6458,-0.6674,-0.6815,-0.6815,-0.6837,-0.681,-0.6815,-0.6788,-0.6734,-0.6734,-0.6707,-0.6707,-0.6707,-0.6707,-0.6544,-0.6255,-0.62,-0.6096,-0.5891,-0.5843,-0.6003,-0.6287,-0.6584,-0.6854,-0.6777,-0.689,-0.6894,-0.679,-0.667,-0.6639,-0.6638,-0.6758,-0.6808,-0.6885,-0.6922,-0.6976,-0.7065,-0.6961,-0.6839,-0.6773,-0.6609,-0.6482,-0.6387,-0.6288,-0.6288,-0.6284,-0.6284,-0.6218,-0.602,-0.5954,-0.5789,-0.569,-0.569,-0.5624,-0.5524,-0.5458,-0.5425,-0.5395,-0.5395,-0.5292,-0.512,-0.499,-0.4861,-0.1425,-0.1655,-0.1837,-0.2081,-0.2392,-0.2588,-0.2762,-0.2963,-0.3156,-0.3116,-0.3025,-0.3193,-0.3241,-0.3209,-0.3476,-0.3699,-0.3894,-0.4425,-0.4957,-0.5458,-0.5991,-0.6255,-0.6387,-0.642,-0.6449,-0.6548,-0.6843,-0.6975,-0.6913,-0.6843,-0.6843,-0.6811,-0.6745,-0.6745,-0.6811,-0.6966,-0.7013,-0.6888,-0.6647,-0.6397,-0.6134,-0.5952,-0.578,-0.5654,-0.5662,-0.5598,-0.5521,-0.5696,-0.5614,-0.5371,-0.5668,-0.5882,-0.5996,-0.6236,-0.6376,-0.6344,-0.6349,-0.6376,-0.6431,-0.6376,-0.6404,-0.6408,-0.6436,-0.6408,-0.6408,-0.6408,-0.63,-0.6037,-0.5982,-0.59,-0.5658,-0.5603,-0.5686,-0.5784,-0.6113,-0.6365,-0.6533,-0.6454,-0.6445,-0.6389,-0.6354,-0.6306,-0.6283,-0.6379,-0.6396,-0.6485,-0.6537,-0.6674,-0.6722,-0.6665,-0.6625,-0.6544,-0.6445,-0.6317,-0.6218,-0.6189,-0.6185,-0.6185,-0.6181,-0.605,-0.5851,-0.5888,-0.5826,-0.562,-0.5554,-0.5524,-0.5425,-0.5425,-0.5395,-0.5395,-0.5362,-0.5226,-0.5057,-0.4924,-0.4761,-0.1411,-0.1625,-0.1786,-0.2003,-0.2234,-0.2431,-0.2575,-0.2765,-0.2823,-0.2822,-0.2822,-0.2913,-0.2947,-0.2965,-0.3036,-0.3192,-0.3462,-0.3797,-0.4192,-0.4725,-0.5355,-0.5921,-0.6255,-0.6321,-0.6416,-0.6613,-0.6708,-0.6773,-0.6843,-0.6773,-0.6708,-0.6708,-0.6576,-0.6515,-0.6666,-0.6544,-0.6505,-0.6489,-0.6131,-0.588,-0.5686,-0.5438,-0.5345,-0.5325,-0.5341,-0.5341,-0.5333,-0.5238,-0.5152,-0.5097,-0.523,-0.5395,-0.5563,-0.5696,-0.58,-0.58,-0.5773,-0.5828,-0.5887,-0.5805,-0.5773,-0.5891,-0.5891,-0.5896,-0.5791,-0.5864,-0.5864,-0.565,-0.5622,-0.5544,-0.5384,-0.5356,-0.5333,-0.5372,-0.5738,-0.609,-0.6245,-0.6006,-0.5959,-0.6126,-0.613,-0.602,-0.5933,-0.6082,-0.6116,-0.6079,-0.6168,-0.6337,-0.6455,-0.6395,-0.6363,-0.6317,-0.6214,-0.6152,-0.6057,-0.6057,-0.602,-0.5951,-0.598,-0.584,-0.5716,-0.5756,-0.576,-0.5591,-0.5455,-0.5392,-0.5392,-0.5359,-0.5359,-0.5326,-0.5226,-0.513,-0.4997,-0.4794,-0.4664,-0.1433,-0.1584,-0.1667,-0.1885,-0.2156,-0.2273,-0.2344,-0.2475,-0.271,-0.2643,-0.2484,-0.2746,-0.2785,-0.2669,-0.2744,-0.2855,-0.3023,-0.3293,-0.3625,-0.4056,-0.4658,-0.5359,-0.5892,-0.6024,-0.6189,-0.6449,-0.6609,-0.6708,-0.6741,-0.6708,-0.6708,-0.6704,-0.6609,-0.6642,-0.6662,-0.6613,-0.6618,-0.655,-0.6109,-0.5852,-0.5743,-0.5354,-0.5219,-0.5274,-0.5215,-0.5215,-0.5274,-0.5069,-0.4904,-0.4825,-0.4928,-0.5034,-0.5093,-0.5281,-0.5386,-0.5363,-0.534,-0.5289,-0.5289,-0.5203,-0.5148,-0.5175,-0.5258,-0.5171,-0.5148,-0.534,-0.5391,-0.5317,-0.543,-0.5485,-0.5352,-0.5301,-0.527,-0.5203,-0.5442,-0.5522,-0.5401,-0.5341,-0.538,-0.532,-0.5305,-0.5305,-0.5325,-0.5333,-0.5397,-0.548,-0.5586,-0.5778,-0.595,-0.6037,-0.6002,-0.603,-0.598,-0.5954,-0.5925,-0.5925,-0.5855,-0.5719,-0.5675,-0.5665,-0.5576,-0.5554,-0.5524,-0.5428,-0.5326,-0.5259,-0.5292,-0.5292,-0.5256,-0.5193,-0.506,-0.493,-0.4794,-0.4628,-0.4531,-0.1295,-0.1483,-0.166,-0.1847,-0.2119,-0.2276,-0.2303,-0.2358,-0.2512,-0.2464,-0.2312,-0.2456,-0.2544,-0.2481,-0.2539,-0.2621,-0.272,-0.2989,-0.3291,-0.3558,-0.4059,-0.4821,-0.5554,-0.5789,-0.5921,-0.6185,-0.6412,-0.6478,-0.6511,-0.6548,-0.6581,-0.6544,-0.6576,-0.6609,-0.6662,-0.6465,-0.6358,-0.6252,-0.588,-0.5592,-0.5531,-0.5266,-0.5195,-0.5242,-0.5187,-0.5101,-0.5046,-0.4904,-0.477,-0.466,-0.468,-0.4708,-0.4653,-0.4818,-0.4897,-0.4787,-0.4712,-0.4715,-0.4715,-0.4656,-0.4656,-0.4736,-0.4794,-0.4791,-0.4791,-0.4897,-0.4928,-0.4963,-0.5069,-0.5124,-0.5156,-0.5128,-0.5073,-0.4971,-0.505,-0.5041,-0.4904,-0.5046,-0.5022,-0.4927,-0.4901,-0.4901,-0.4901,-0.4901,-0.4973,-0.5071,-0.5151,-0.5307,-0.5468,-0.5551,-0.5606,-0.5596,-0.5592,-0.5527,-0.5421,-0.5357,-0.5336,-0.5257,-0.5213,-0.5226,-0.5285,-0.5236,-0.5213,-0.518,-0.5153,-0.5126,-0.5126,-0.5093,-0.5027,-0.496,-0.4827,-0.4731,-0.4564,-0.4498,-0.4398,-0.1042,-0.1218,-0.1612,-0.1808,-0.1925,-0.2276,-0.2358,-0.2351,-0.2435,-0.2367,-0.2233,-0.2217,-0.2333,-0.2391,-0.2426,-0.2488,-0.2688,-0.2889,-0.3092,-0.336,-0.3725,-0.4356,-0.5186,-0.5315,-0.5488,-0.5719,-0.6017,-0.6083,-0.6115,-0.6251,-0.635,-0.6338,-0.633,-0.6412,-0.6403,-0.6109,-0.589,-0.5796,-0.5461,-0.5216,-0.5151,-0.5081,-0.5101,-0.5156,-0.5128,-0.4904,-0.477,-0.4688,-0.4605,-0.4432,-0.446,-0.4408,-0.4276,-0.438,-0.4325,-0.4159,-0.419,-0.4218,-0.4166,-0.4166,-0.4162,-0.4298,-0.4408,-0.4491,-0.4322,-0.4322,-0.438,-0.4491,-0.4491,-0.4598,-0.4763,-0.4818,-0.4739,-0.4664,-0.4671,-0.4715,-0.4791,-0.4842,-0.4846,-0.4846,-0.4873,-0.4846,-0.4846,-0.4842,-0.4849,-0.4825,-0.4866,-0.4972,-0.5088,-0.5145,-0.5147,-0.5119,-0.5068,-0.5006,-0.488,-0.4761,-0.4747,-0.4701,-0.4665,-0.4712,-0.4851,-0.4862,-0.4818,-0.4827,-0.4929,-0.4945,-0.4894,-0.4861,-0.4794,-0.4731,-0.4631,-0.4498,-0.4364,-0.44,-0.4334,-0.0473,-0.055,-0.0746,-0.1179,-0.165,-0.1924,-0.2092,-0.2201,-0.2392,-0.2387,-0.2246,-0.2256,-0.2283,-0.2255,-0.2356,-0.2423,-0.2522,-0.2824,-0.3125,-0.3431,-0.3498,-0.3828,-0.432,-0.4508,-0.4749,-0.505,-0.5422,-0.5557,-0.5624,-0.5822,-0.5987,-0.5976,-0.5967,-0.6018,-0.599,-0.5719,-0.5524,-0.5449,-0.5131,-0.4957,-0.4947,-0.4928,-0.4956,-0.4956,-0.4928,-0.4791,-0.4601,-0.4546,-0.4408,-0.4242,-0.4325,-0.4298,-0.4107,-0.4162,-0.4135,-0.3993,-0.3882,-0.3882,-0.3852,-0.3719,-0.361,-0.3663,-0.3549,-0.3322,-0.3408,-0.3577,-0.3716,-0.3852,-0.399,-0.4128,-0.4291,-0.4239,-0.4215,-0.4245,-0.4276,-0.4245,-0.427,-0.4432,-0.457,-0.4574,-0.457,-0.457,-0.4598,-0.457,-0.4577,-0.4595,-0.4639,-0.4692,-0.4702,-0.4733,-0.4717,-0.469,-0.4667,-0.4621,-0.4532,-0.438,-0.432,-0.4261,-0.4246,-0.418,-0.4335,-0.4467,-0.4464,-0.4576,-0.4737,-0.4725,-0.4658,-0.4628,-0.4558,-0.4498,-0.44,-0.4264,-0.4164,-0.42,-0.4064,0.0,-0.0157,-0.0354,-0.0786,-0.1296,-0.1609,-0.1898,-0.2127,-0.231,-0.2323,-0.2228,-0.2255,-0.2247,-0.2223,-0.2322,-0.2356,-0.2423,-0.269,-0.3025,-0.3295,-0.336,-0.3403,-0.3458,-0.3689,-0.3994,-0.4502,-0.4891,-0.5027,-0.5093,-0.5253,-0.5352,-0.5404,-0.546,-0.5463,-0.5433,-0.5195,-0.5097,-0.4991,-0.4741,-0.4629,-0.4794,-0.4736,-0.4653,-0.457,-0.4574,-0.4463,-0.4298,-0.427,-0.4128,-0.4021,-0.4076,-0.4076,-0.386,-0.3885,-0.3802,-0.3605,-0.3633,-0.3547,-0.3436,-0.3355,-0.3274,-0.3246,-0.3019,-0.2991,-0.2963,-0.3021,-0.3077,-0.3241,-0.3352,-0.3466,-0.3655,-0.3627,-0.3633,-0.366,-0.3688,-0.3663,-0.366,-0.3965,-0.427,-0.427,-0.427,-0.427,-0.427,-0.4294,-0.427,-0.4283,-0.4366,-0.4399,-0.4336,-0.4359,-0.4349,-0.433,-0.4288,-0.4236,-0.4175,-0.4082,-0.3984,-0.3949,-0.3886,-0.3811,-0.3816,-0.3967,-0.4097,-0.4252,-0.4389,-0.4433,-0.4361,-0.4359,-0.4284,-0.4161,-0.4028,-0.3928,-0.3828,-0.373,-0.3527,0.0511,0.0118,-0.0039,-0.0354,-0.0785,-0.121,-0.1581,-0.1929,-0.2103,-0.2166,-0.221,-0.2188,-0.2217,-0.2224,-0.2322,-0.2322,-0.2388,-0.2554,-0.2889,-0.3092,-0.3131,-0.3062,-0.3014,-0.3123,-0.337,-0.4053,-0.4317,-0.4422,-0.4517,-0.4619,-0.4719,-0.4725,-0.481,-0.4794,-0.4706,-0.469,-0.4608,-0.4495,-0.4388,-0.4332,-0.4494,-0.4467,-0.4353,-0.4245,-0.4218,-0.4132,-0.4021,-0.3993,-0.3907,-0.3771,-0.3716,-0.3633,-0.3583,-0.3557,-0.3444,-0.3158,-0.3244,-0.3244,-0.313,-0.3049,-0.2993,-0.3021,-0.2852,-0.2794,-0.2766,-0.2629,-0.2601,-0.2657,-0.274,-0.2742,-0.2935,-0.2961,-0.2991,-0.3019,-0.3021,-0.3049,-0.3132,-0.3524,-0.3719,-0.3965,-0.4049,-0.4104,-0.4049,-0.4049,-0.3996,-0.3968,-0.4052,-0.4079,-0.4024,-0.3947,-0.393,-0.386,-0.3795,-0.3778,-0.3693,-0.3752,-0.3653,-0.356,-0.3536,-0.3414,-0.3341,-0.3446,-0.361,-0.3835,-0.396,-0.4009,-0.401,-0.3969,-0.3909,-0.3773,-0.3658,-0.3525,-0.336,-0.3226,-0.3023,0.1179,0.0746,0.0707,0.0354,-0.0157,-0.0499,-0.0912,-0.132,-0.1582,-0.1868,-0.2177,-0.2197,-0.2194,-0.2234,-0.2322,-0.2456,-0.2554,-0.2653,-0.272,-0.2841,-0.2865,-0.2811,-0.2693,-0.2728,-0.2872,-0.2995,-0.343,-0.3781,-0.3929,-0.4059,-0.4058,-0.4136,-0.4109,-0.4036,-0.4003,-0.4094,-0.4116,-0.3995,-0.4014,-0.4082,-0.4076,-0.4021,-0.3993,-0.3938,-0.391,-0.3882,-0.3827,-0.3827,-0.3771,-0.361,-0.3355,-0.3241,-0.3216,-0.3304,-0.3246,-0.3105,-0.2965,-0.2907,-0.288,-0.2715,-0.2689,-0.2633,-0.2434,-0.235,-0.2406,-0.2294,-0.2211,-0.2211,-0.2211,-0.2183,-0.2322,-0.235,-0.2436,-0.2547,-0.2633,-0.2689,-0.2745,-0.2856,-0.3132,-0.3436,-0.3685,-0.3855,-0.3716,-0.3633,-0.3608,-0.3552,-0.358,-0.3635,-0.3635,-0.3524,-0.3451,-0.334,-0.3223,-0.3228,-0.3231,-0.3322,-0.3347,-0.321,-0.3126,-0.2989,-0.2954,-0.2969,-0.3088,-0.3123,-0.3381,-0.3588,-0.3587,-0.3528,-0.3412,-0.3245,-0.3133,-0.3086,-0.2922,-0.279,-0.2755,0.1728,0.1412,0.1279,0.0925,0.0422,0.0075,-0.0408,-0.0962,-0.1301,-0.1632,-0.1926,-0.2109,-0.2184,-0.2227,-0.2356,-0.2522,-0.2619,-0.2587,-0.2621,-0.2671,-0.268,-0.2647,-0.2519,-0.2538,-0.2557,-0.2636,-0.2895,-0.3061,-0.317,-0.3262,-0.3348,-0.3316,-0.3328,-0.3322,-0.3264,-0.3421,-0.347,-0.3401,-0.3463,-0.3547,-0.3519,-0.3436,-0.3378,-0.3408,-0.3383,-0.3411,-0.3577,-0.3466,-0.3466,-0.3413,-0.3193,-0.2996,-0.2912,-0.2882,-0.2882,-0.277,-0.2629,-0.2545,-0.2545,-0.238,-0.2382,-0.2382,-0.2156,-0.2071,-0.2128,-0.2045,-0.1906,-0.1877,-0.185,-0.1766,-0.1765,-0.1737,-0.1794,-0.185,-0.1962,-0.2074,-0.213,-0.2212,-0.2462,-0.2794,-0.2991,-0.3077,-0.3105,-0.3077,-0.3135,-0.3163,-0.3132,-0.316,-0.3163,-0.3049,-0.291,-0.2854,-0.274,-0.2657,-0.2657,-0.274,-0.2826,-0.274,-0.2661,-0.2548,-0.2389,-0.2355,-0.221,-0.214,-0.2488,-0.2909,-0.2945,-0.2832,-0.2749,-0.2692,-0.2588,-0.2506,-0.245,-0.2386,-0.2252,0.2104,0.1869,0.1672,0.1353,0.0973,0.0621,0.0072,-0.0503,-0.0879,-0.1146,-0.149,-0.1769,-0.1954,-0.2018,-0.2153,-0.2321,-0.2519,-0.2356,-0.2388,-0.2541,-0.2549,-0.2478,-0.2402,-0.2367,-0.2394,-0.2406,-0.2404,-0.2412,-0.2682,-0.27,-0.2575,-0.2652,-0.2737,-0.2665,-0.2634,-0.2899,-0.2852,-0.2796,-0.288,-0.2935,-0.2907,-0.2796,-0.271,-0.2796,-0.2717,-0.2856,-0.3135,-0.2993,-0.2965,-0.294,-0.28,-0.2577,-0.2465,-0.2324,-0.2242,-0.2214,-0.2156,-0.2156,-0.2156,-0.213,-0.213,-0.2184,-0.2043,-0.1987,-0.1961,-0.1878,-0.1684,-0.1572,-0.1543,-0.1487,-0.1374,-0.1318,-0.1318,-0.1318,-0.1346,-0.1374,-0.1543,-0.1654,-0.1708,-0.1987,-0.2212,-0.2352,-0.2434,-0.2603,-0.2659,-0.2575,-0.2545,-0.2516,-0.2517,-0.2462,-0.2378,-0.2352,-0.2268,-0.21,-0.2071,-0.2127,-0.2127,-0.2073,-0.2041,-0.1996,-0.1798,-0.1631,-0.1491,-0.1385,-0.1526,-0.1876,-0.1984,-0.2147,-0.2102,-0.204,-0.1966,-0.1858,-0.1721,-0.1636,-0.1514,0.2166,0.1823,0.1927,0.1722,0.1386,0.1246,0.0809,0.021,0.0068,-0.0203,-0.0746,-0.1045,-0.1244,-0.1378,-0.1614,-0.1816,-0.1949,-0.2052,-0.2115,-0.23,-0.2315,-0.2226,-0.2127,-0.2119,-0.2121,-0.2167,-0.2088,-0.2316,-0.2463,-0.236,-0.2277,-0.2284,-0.2277,-0.2222,-0.2172,-0.2508,-0.2629,-0.2449,-0.2685,-0.274,-0.2547,-0.2464,-0.2436,-0.2491,-0.2464,-0.2465,-0.2549,-0.2434,-0.2322,-0.2211,-0.2071,-0.1875,-0.1706,-0.1429,-0.129,-0.143,-0.1653,-0.2015,-0.1959,-0.1906,-0.1908,-0.1961,-0.1878,-0.1877,-0.1821,-0.1682,-0.1487,-0.1347,-0.1318,-0.1234,-0.1122,-0.1178,-0.1206,-0.1178,-0.115,-0.1206,-0.129,-0.115,-0.1204,-0.1204,-0.1429,-0.168,-0.182,-0.2043,-0.2184,-0.2071,-0.1959,-0.1902,-0.1902,-0.1875,-0.1736,-0.1652,-0.1624,-0.1485,-0.1429,-0.1484,-0.1484,-0.1429,-0.14,-0.1399,-0.1231,-0.1008,-0.084,-0.079,-0.0916,-0.1069,-0.1327,-0.1438,-0.1453,-0.1422,-0.1366,-0.1159,-0.094,-0.0855,-0.0898,0.2558,0.2402,0.22,0.2033,0.1813,0.1627,0.1232,0.0819,0.0608,0.0269,-0.0202,-0.0504,-0.0806,-0.1074,-0.1445,-0.1665,-0.1819,-0.1867,-0.1998,-0.2072,-0.2071,-0.2013,-0.1976,-0.1811,-0.1737,-0.1891,-0.1858,-0.1898,-0.2101,-0.2142,-0.2059,-0.2039,-0.2042,-0.2029,-0.1879,-0.2142,-0.2134,-0.2065,-0.2073,-0.2046,-0.185,-0.1682,-0.1682,-0.1794,-0.1709,-0.1764,-0.1903,-0.1821,-0.1736,-0.1679,-0.1566,-0.1343,-0.1204,-0.1009,-0.0841,-0.0729,-0.0924,-0.1232,-0.1513,-0.1628,-0.1684,-0.171,-0.1626,-0.1514,-0.1458,-0.1316,-0.1148,-0.0982,-0.0954,-0.0897,-0.0757,-0.0757,-0.0757,-0.0757,-0.0869,-0.0926,-0.0898,-0.0785,-0.0701,-0.0673,-0.0645,-0.0896,-0.1064,-0.112,-0.126,-0.1316,-0.1203,-0.1147,-0.1231,-0.1316,-0.1148,-0.0896,-0.0896,-0.0841,-0.0813,-0.084,-0.0868,-0.0813,-0.0729,-0.07,-0.0616,-0.0449,-0.0364,-0.0336,-0.0452,-0.0627,-0.0746,-0.0844,-0.0921,-0.0847,-0.0739,-0.0657,-0.0602,-0.0633,-0.0642,0.2945,0.2921,0.2483,0.229,0.2183,0.1866,0.1548,0.121,0.1076,0.0773,0.0403,0.0101,-0.0301,-0.0733,-0.0996,-0.1216,-0.1517,-0.1638,-0.182,-0.186,-0.1878,-0.1867,-0.1796,-0.1587,-0.1553,-0.1744,-0.1591,-0.1664,-0.1744,-0.1777,-0.1799,-0.186,-0.1912,-0.19,-0.1867,-0.1871,-0.1827,-0.1689,-0.1486,-0.1374,-0.129,-0.1038,-0.1066,-0.1094,-0.1037,-0.1008,-0.1288,-0.1176,-0.1176,-0.1064,-0.0923,-0.07,-0.0533,-0.0336,-0.0224,-0.014,-0.0224,-0.042,-0.0757,-0.0982,-0.1206,-0.1203,-0.1134,-0.0905,-0.0816,-0.0713,-0.0581,-0.0386,-0.0503,-0.042,-0.0364,-0.0336,-0.0421,-0.0449,-0.0477,-0.0505,-0.0505,-0.0393,-0.028,-0.0252,-0.0196,-0.0084,-0.0196,-0.014,-0.0252,-0.0449,-0.0448,-0.042,-0.056,-0.0756,-0.0644,-0.0448,-0.0476,-0.0449,-0.0393,-0.0336,-0.0308,-0.028,-0.0196,-0.0168,-0.0196,-0.0196,-0.014,-0.014,-0.0112,-0.0197,-0.034,-0.0374,-0.0408,-0.0412,-0.0387,-0.0397,-0.0371,-0.037,-0.0341,0.3171,0.3143,0.2801,0.2498,0.223,0.2155,0.1918,0.1547,0.1545,0.1473,0.13,0.0904,0.0395,0.0098,-0.0227,-0.0518,-0.0867,-0.1005,-0.1313,-0.1588,-0.1698,-0.1688,-0.1632,-0.1517,-0.1455,-0.1537,-0.1407,-0.1432,-0.1515,-0.143,-0.1574,-0.175,-0.1761,-0.1809,-0.1749,-0.1618,-0.1521,-0.1317,-0.1086,-0.1001,-0.1,-0.0889,-0.0806,-0.0863,-0.081,-0.0729,-0.0756,-0.0586,-0.0392,-0.0252,-0.0168,0.0,0.0196,0.0393,0.0477,0.0477,0.0418,0.0278,0.0111,-0.0224,-0.0308,-0.0278,-0.0246,-0.0186,-0.0131,-0.0027,0.0107,0.0217,0.0083,0.0,-0.0028,-0.0084,-0.0028,-0.0028,0.0028,0.0056,0.0028,0.0,0.0112,0.0168,0.0224,0.0308,0.0364,0.0336,0.0252,0.0056,-0.0028,0.0,-0.0084,-0.0252,-0.0196,-0.0112,-0.0168,-0.0168,-0.0056,-0.0028,-0.0028,-0.0028,0.0,0.0,0.0,0.0028,0.0056,0.0112,0.0112,0.0112,0.0084,-0.0028,-0.0086,-0.0057,-0.0029,-0.0059,0.0,0.0091,0.0092,0.3192,0.3192,0.3058,0.2822,0.2487,0.2287,0.2052,0.181,0.1882,0.1814,0.1628,0.102,0.0635,0.0443,0.0128,-0.016,-0.0473,-0.0761,-0.0968,-0.1147,-0.1354,-0.15,-0.145,-0.1364,-0.1317,-0.1296,-0.1192,-0.115,-0.1262,-0.1122,-0.1178,-0.1326,-0.1453,-0.1445,-0.136,-0.1277,-0.1147,-0.1071,-0.0895,-0.0863,-0.0843,-0.0763,-0.0631,-0.0578,-0.0473,-0.032,-0.0162,-0.0081,0.0138,0.0362,0.0474,0.0613,0.078,0.0947,0.1031,0.1029,0.0935,0.0928,0.0821,0.0442,0.0111,0.0245,0.0348,0.0476,0.0545,0.0618,0.0657,0.0692,0.0638,0.056,0.0561,0.0589,0.0645,0.0561,0.0561,0.0617,0.0645,0.0644,0.0588,0.07,0.0673,0.0673,0.0729,0.0757,0.0645,0.0505,0.0449,0.0393,0.028,0.0168,0.0168,0.0196,0.0168,0.014,0.0224,0.0252,0.0224,0.0224,0.0224,0.0224,0.0252,0.0252,0.028,0.0336,0.0364,0.0364,0.0336,0.0252,0.0197,0.0113,0.017,0.0257,0.035,0.0507,0.054,0.327,0.3286,0.3105,0.2948,0.2751,0.2453,0.2242,0.2054,0.2082,0.1985,0.1735,0.1196,0.0921,0.08,0.0496,0.0156,-0.0092,-0.0366,-0.0547,-0.0783,-0.1016,-0.1172,-0.1133,-0.1088,-0.1038,-0.1039,-0.097,-0.0926,-0.0982,-0.0841,-0.0813,-0.0897,-0.0982,-0.0982,-0.1038,-0.0839,-0.0768,-0.0742,-0.0661,-0.0679,-0.0635,-0.0507,-0.0405,-0.0304,-0.0203,-0.0051,0.0104,0.0183,0.037,0.0617,0.0784,0.0922,0.1086,0.1251,0.1334,0.1354,0.1375,0.144,0.1315,0.1055,0.0737,0.0966,0.1147,0.1217,0.122,0.1326,0.1418,0.1346,0.1248,0.1175,0.1175,0.1204,0.1232,0.1203,0.1288,0.1344,0.1372,0.1372,0.1288,0.126,0.1204,0.1148,0.1066,0.1122,0.101,0.0869,0.0729,0.0673,0.0645,0.0533,0.0421,0.0449,0.0505,0.0505,0.0533,0.0533,0.0561,0.0533,0.0533,0.0533,0.0533,0.0505,0.0505,0.0533,0.0561,0.0617,0.0589,0.0533,0.0364,0.0168,0.0366,0.0592,0.0766,0.0928,0.1019,0.3407,0.3436,0.2918,0.2814,0.29,0.275,0.251,0.2196,0.2114,0.1985,0.1808,0.1512,0.133,0.1218,0.0865,0.0597,0.0326,0.0087,-0.0086,-0.0317,-0.0546,-0.0682,-0.0708,-0.0707,-0.0766,-0.0844,-0.0757,-0.0673,-0.0729,-0.0533,-0.0449,-0.0419,-0.0474,-0.0584,-0.084,-0.056,-0.0433,-0.0384,-0.0183,-0.0283,-0.0376,-0.0248,-0.0198,-0.0149,0.0,0.0149,0.0277,0.0378,0.0585,0.085,0.0935,0.1094,0.1274,0.1407,0.1459,0.1453,0.1613,0.173,0.184,0.171,0.1683,0.1707,0.1808,0.1923,0.2017,0.2097,0.207,0.1897,0.1861,0.1774,0.1756,0.1785,0.1807,0.189,0.1974,0.2073,0.21,0.1792,0.1652,0.1652,0.1708,0.1708,0.1541,0.1431,0.1375,0.1234,0.1038,0.0954,0.0954,0.0841,0.0701,0.0701,0.0757,0.0729,0.0757,0.0841,0.0869,0.0869,0.0841,0.0841,0.0785,0.0729,0.0729,0.0757,0.0785,0.0841,0.0841,0.0785,0.0784,0.0812,0.0812,0.1011,0.1181,0.1382,0.1537,0.3298,0.3137,0.283,0.2715,0.2761,0.2478,0.224,0.2091,0.1899,0.1782,0.164,0.1388,0.1214,0.1121,0.1021,0.0823,0.0675,0.0557,0.0377,0.0404,0.0057,-0.0112,-0.0224,-0.0336,-0.0477,-0.0617,-0.0533,-0.0421,-0.0505,-0.0279,-0.0168,-0.0112,-0.0054,-0.0081,-0.0269,-0.0239,-0.0178,-0.0246,-0.0197,-0.0219,-0.0353,-0.0211,-0.0094,-0.0071,0.0118,0.0286,0.0461,0.0583,0.0808,0.1126,0.1216,0.1422,0.1588,0.1731,0.1767,0.1791,0.1868,0.1916,0.2076,0.2105,0.2156,0.2207,0.2264,0.2334,0.2258,0.2433,0.2412,0.2351,0.2282,0.2202,0.2153,0.233,0.2424,0.2551,0.2649,0.2756,0.2687,0.2127,0.182,0.1961,0.2045,0.1987,0.1877,0.1933,0.1877,0.1766,0.1597,0.129,0.1206,0.1094,0.0954,0.0954,0.0982,0.0954,0.0954,0.1094,0.1122,0.1094,0.1122,0.115,0.1094,0.0982,0.1037,0.1121,0.1121,0.1094,0.1177,0.1261,0.1455,0.1539,0.1596,0.1736,0.1992,0.2161,0.225,0.3261,0.304,0.2801,0.2677,0.2613,0.2332,0.2116,0.1963,0.1764,0.1631,0.1549,0.1263,0.1096,0.1075,0.0973,0.0898,0.0898,0.0811,0.084,0.0925,0.0624,0.0421,0.0308,0.0168,0.0,-0.0196,-0.0196,-0.0112,-0.0168,-0.0055,0.0,0.0,0.0236,0.0128,0.0,0.0,0.0074,0.0,-0.0024,-0.0047,-0.0115,-0.0068,0.0023,0.0136,0.0272,0.0388,0.0604,0.0822,0.1016,0.1343,0.158,0.1748,0.1899,0.2038,0.2076,0.209,0.2209,0.2269,0.2431,0.2578,0.2624,0.2583,0.2578,0.2572,0.2591,0.2749,0.2703,0.2644,0.2632,0.2583,0.2594,0.2782,0.2935,0.3037,0.3203,0.3291,0.3299,0.2766,0.2571,0.2687,0.2567,0.2456,0.2317,0.2378,0.2462,0.2294,0.2156,0.1821,0.1514,0.1346,0.1234,0.1234,0.1234,0.1206,0.1234,0.1346,0.1375,0.1346,0.143,0.1542,0.1375,0.129,0.1402,0.1513,0.1485,0.1513,0.1625,0.1764,0.2069,0.2293,0.2406,0.2603,0.2828,0.283,0.2802,0.326,0.3129,0.282,0.2662,0.2561,0.2295,0.2077,0.1904,0.1679,0.1602,0.1572,0.1262,0.1122,0.1093,0.0982,0.0955,0.0952,0.0952,0.1033,0.1088,0.0965,0.0912,0.0831,0.0749,0.0554,0.0418,0.0363,0.0363,0.0223,0.0216,0.0,0.0,0.0,0.0268,0.0219,0.0243,0.0262,0.0139,0.0116,0.0092,0.009,0.0157,0.027,0.0382,0.0473,0.0631,0.0795,0.0954,0.1202,0.1451,0.1645,0.1813,0.1991,0.2206,0.2282,0.2433,0.2693,0.2817,0.295,0.3101,0.3106,0.305,0.2956,0.3012,0.2989,0.2994,0.2973,0.2956,0.2958,0.2951,0.2978,0.3132,0.3284,0.3445,0.365,0.3791,0.3941,0.3771,0.3658,0.3566,0.3382,0.3237,0.301,0.3014,0.2943,0.2907,0.274,0.2464,0.21,0.1626,0.1542,0.1515,0.1487,0.1487,0.1542,0.1624,0.1766,0.1822,0.1877,0.1961,0.1794,0.1738,0.1905,0.1987,0.1903,0.1931,0.2073,0.238,0.2768,0.2935,0.2963,0.3102,0.3244,0.3163,0.3112,0.3208,0.2848,0.2739,0.2649,0.2503,0.2182,0.2002,0.1928,0.1716,0.16,0.1572,0.1346,0.1229,0.1232,0.1205,0.1182,0.12,0.1238,0.1308,0.1331,0.1355,0.1258,0.1211,0.1176,0.1052,0.0954,0.0879,0.0852,0.0753,0.0626,0.0452,0.0,0.0598,0.054,0.0511,0.0533,0.0389,0.0273,0.0275,0.0273,0.0338,0.0404,0.0516,0.0652,0.0787,0.0965,0.1166,0.1345,0.1614,0.1982,0.2212,0.2442,0.283,0.3001,0.3106,0.3221,0.3353,0.3437,0.3586,0.3447,0.3433,0.3562,0.3441,0.3167,0.3131,0.3133,0.3182,0.3172,0.3191,0.3192,0.3188,0.3301,0.3514,0.3758,0.3894,0.3994,0.4096,0.4112,0.3999,0.3972,0.3814,0.3671,0.3504,0.3466,0.34,0.3412,0.3322,0.307,0.2708,0.2235,0.192,0.189,0.1778,0.1773,0.1839,0.195,0.2153,0.2296,0.235,0.2434,0.2464,0.2436,0.2491,0.2517,0.249,0.2464,0.2493,0.2856,0.3213,0.3241,0.3269,0.3463,0.3602,0.3494,0.3441,0.3194,0.2807,0.2719,0.2579,0.2354,0.2156,0.2071,0.2015,0.1738,0.16,0.1598,0.1382,0.132,0.131,0.1302,0.1343,0.144,0.1429,0.1515,0.1598,0.1628,0.1604,0.1585,0.1596,0.1561,0.145,0.1298,0.1164,0.1115,0.0979,0.0821,0.0769,0.0931,0.0919,0.0907,0.0926,0.0879,0.0674,0.0539,0.0516,0.0628,0.074,0.0875,0.11,0.1234,0.1456,0.1655,0.1835,0.2168,0.2494,0.272,0.2997,0.3377,0.3626,0.3908,0.4024,0.4113,0.4202,0.4275,0.406,0.4052,0.4029,0.3863,0.3672,0.3508,0.3471,0.3387,0.3292,0.3339,0.337,0.3368,0.3436,0.3718,0.4011,0.4065,0.4117,0.4141,0.4164,0.4183,0.4186,0.4104,0.3949,0.3867,0.3865,0.3917,0.4042,0.403,0.3862,0.3429,0.2941,0.2581,0.2398,0.2206,0.2069,0.2163,0.2276,0.2407,0.261,0.273,0.2841,0.3014,0.3019,0.2935,0.3019,0.313,0.3105,0.3107,0.3244,0.3519,0.3547,0.3602,0.3771,0.3855,0.3716,0.3688,0.3221,0.2916,0.2777,0.2549,0.2268,0.224,0.2235,0.2176,0.1838,0.1648,0.1608,0.1455,0.1459,0.1502,0.1459,0.1519,0.1599,0.1649,0.1656,0.1805,0.1778,0.177,0.185,0.1957,0.1887,0.1811,0.1746,0.1635,0.1422,0.1305,0.121,0.1166,0.1305,0.1371,0.1369,0.1387,0.1432,0.1499,0.1186,0.1031,0.1277,0.1344,0.1389,0.1748,0.1925,0.2075,0.221,0.2413,0.2657,0.2917,0.3161,0.3402,0.3843,0.4277,0.4603,0.4736,0.4822,0.4867,0.4865,0.4688,0.4561,0.4447,0.4261,0.4137,0.3989,0.3777,0.3642,0.3658,0.3753,0.3808,0.3832,0.3835,0.4043,0.4205,0.4265,0.4323,0.4408,0.4404,0.434,0.4304,0.4179,0.41,0.4227,0.4206,0.4274,0.4542,0.4522,0.4362,0.412,0.3563,0.3221,0.2905,0.2595,0.243,0.2542,0.2651,0.2702,0.2861,0.3086,0.3222,0.3373,0.3369,0.3322,0.3436,0.3577,0.3685,0.3741,0.3796,0.3796,0.3796,0.391,0.4079,0.4107,0.4076,0.4021,0.336,0.3049,0.2916,0.2747,0.2577,0.2465,0.2424,0.2399,0.2127,0.1991,0.1953,0.195,0.1917,0.1806,0.1747,0.1782,0.1835,0.1799,0.18,0.1851,0.1842,0.1883,0.1916,0.206,0.2101,0.2151,0.2141,0.212,0.1997,0.1816,0.1682,0.1753,0.1794,0.177,0.1856,0.1899,0.201,0.2257,0.2077,0.1832,0.1943,0.2032,0.2123,0.2304,0.2413,0.2613,0.2768,0.2901,0.3167,0.343,0.3621,0.4036,0.4644,0.5066,0.5316,0.5403,0.5414,0.5425,0.5382,0.5221,0.507,0.4961,0.4787,0.4581,0.4393,0.4147,0.4047,0.4129,0.4184,0.4244,0.4298,0.4292,0.4333,0.442,0.4489,0.4582,0.4702,0.4652,0.4572,0.4451,0.4321,0.4369,0.4537,0.4602,0.4677,0.4692,0.4612,0.4523,0.4484,0.4133,0.3766,0.343,0.2996,0.2859,0.2942,0.3039,0.31,0.3343,0.3599,0.3702,0.375,0.3763,0.3769,0.3882,0.4021,0.4076,0.4104,0.4079,0.4079,0.4159,0.4377,0.4656,0.4688,0.4656,0.4546,0.3497,0.3216,0.2993,0.2747,0.2552,0.2546,0.2525,0.2419,0.2323,0.2255,0.2174,0.2109,0.2066,0.2033,0.1986,0.1969,0.1981,0.193,0.1925,0.1923,0.1963,0.2014,0.2067,0.2159,0.2215,0.2267,0.2315,0.233,0.2387,0.2215,0.2022,0.2196,0.2172,0.2239,0.239,0.2479,0.266,0.2973,0.2879,0.2832,0.2721,0.2721,0.2793,0.2862,0.3059,0.3214,0.3347,0.348,0.3678,0.3913,0.4092,0.4532,0.5046,0.5479,0.5752,0.5887,0.5918,0.5928,0.5833,0.5671,0.5486,0.5405,0.5267,0.505,0.5193,0.4972,0.4719,0.4736,0.4622,0.4666,0.4731,0.474,0.4933,0.5052,0.4974,0.4969,0.5174,0.5294,0.5264,0.5246,0.5065,0.4911,0.4997,0.4939,0.4978,0.4831,0.4758,0.4754,0.4695,0.4586,0.4264,0.3968,0.3529,0.3349,0.3422,0.3466,0.3519,0.3799,0.4036,0.4141,0.4141,0.4179,0.4245,0.4298,0.4353,0.4384,0.4384,0.4522,0.4629,0.4763,0.5011,0.5258,0.5234,0.5207,0.5152,0.3622,0.334,0.307,0.2762,0.244,0.2578,0.26,0.2501,0.249,0.2422,0.2272,0.206,0.2034,0.2055,0.206,0.2035,0.2022,0.2029,0.2027,0.205,0.214,0.2154,0.2219,0.2357,0.2366,0.2346,0.2339,0.2404,0.2453,0.235,0.242,0.2573,0.2707,0.2821,0.2998,0.3151,0.3328,0.3486,0.3571,0.3726,0.3612,0.3435,0.3439,0.3549,0.3726,0.3766,0.3899,0.4008,0.4188,0.4363,0.4536,0.4947,0.5368,0.5763,0.5998,0.6173,0.6315,0.6329,0.6267,0.5988,0.5934,0.5894,0.5684,0.5674,0.5793,0.5728,0.5453,0.534,0.5226,0.5183,0.5248,0.5321,0.5531,0.558,0.5435,0.5373,0.5618,0.5825,0.5853,0.5894,0.573,0.5499,0.5396,0.5344,0.5267,0.5109,0.5003,0.4966,0.491,0.4747,0.4514,0.434,0.4097,0.3974,0.3914,0.3819,0.3814,0.3956,0.4163,0.4373,0.4532,0.4622,0.4653,0.468,0.4708,0.4849,0.4987,0.512,0.5258,0.5336,0.5559,0.575,0.5723,0.57,0.5755,0.3572,0.3254,0.3287,0.3135,0.2882,0.2887,0.2875,0.2783,0.2576,0.2432,0.2306,0.2224,0.218,0.216,0.217,0.2156,0.2134,0.2134,0.2156,0.2178,0.2223,0.2241,0.2306,0.2415,0.2482,0.2504,0.2529,0.2595,0.266,0.2707,0.2796,0.2901,0.3037,0.3217,0.3423,0.3556,0.3644,0.3818,0.3968,0.4052,0.4027,0.3917,0.395,0.3998,0.402,0.4104,0.4188,0.4254,0.4346,0.4555,0.4866,0.5218,0.561,0.5987,0.6248,0.6411,0.6542,0.6531,0.6396,0.6251,0.6231,0.626,0.6105,0.6077,0.6184,0.6255,0.612,0.6136,0.6044,0.5986,0.6013,0.6056,0.6191,0.5974,0.5831,0.5907,0.6093,0.6153,0.6173,0.6187,0.6139,0.5959,0.5806,0.5809,0.5898,0.5731,0.5586,0.5533,0.5236,0.5006,0.4794,0.4716,0.4654,0.4447,0.4304,0.4061,0.4017,0.4153,0.4323,0.4617,0.4862,0.5046,0.5085,0.5085,0.5304,0.55,0.5637,0.5664,0.575,0.5832,0.6077,0.6245,0.6191,0.6191,0.6223]}]]